<?xml version="1.0" encoding="UTF-8" standalone="no" ?>
<gpx xmlns="http://www.topografix.com/GPX/1/1" xmlns:xsi="http://www.w3.org/2001/XMLSchema-instance" xsi:schemaLocation="http://www.topografix.com/GPX/1/1 http://www.topografix.com/GPX/1/1/gpx.xsd" version="1.1" creator="VisuGPX - https://www.visugpx.com">
  <metadata>
    <name>Fargues Saint Hilaire - Créon</name>
    <desc><![CDATA[Randonnée VTT]]></desc>
  </metadata>
  <trk>
    <name><![CDATA[Fargues Creon]]></name>
    <trkseg>
      <trkpt lat="44.82055" lon="-0.43873">
        <ele>83</ele>
        <time>2013-12-22T12:41:49Z</time>
      </trkpt>
      <trkpt lat="44.82052" lon="-0.43845">
        <ele>83</ele>
        <time>2013-12-22T12:41:57Z</time>
      </trkpt>
      <trkpt lat="44.82044" lon="-0.43807">
        <ele>82</ele>
        <time>2013-12-22T12:42:06Z</time>
      </trkpt>
      <trkpt lat="44.82034" lon="-0.43773">
        <ele>82</ele>
        <time>2013-12-22T12:42:14Z</time>
      </trkpt>
      <trkpt lat="44.82024" lon="-0.43735">
        <ele>81</ele>
        <time>2013-12-22T12:42:22Z</time>
      </trkpt>
      <trkpt lat="44.82026" lon="-0.43706">
        <ele>81</ele>
        <time>2013-12-22T12:42:28Z</time>
      </trkpt>
      <trkpt lat="44.82034" lon="-0.43682">
        <ele>81</ele>
        <time>2013-12-22T12:42:35Z</time>
      </trkpt>
      <trkpt lat="44.82041" lon="-0.43669">
        <ele>81</ele>
        <time>2013-12-22T12:42:40Z</time>
      </trkpt>
      <trkpt lat="44.82053" lon="-0.4363">
        <ele>82</ele>
        <time>2013-12-22T12:43:01Z</time>
      </trkpt>
      <trkpt lat="44.82045" lon="-0.43635">
        <ele>82</ele>
        <time>2013-12-22T12:43:11Z</time>
      </trkpt>
      <trkpt lat="44.82049" lon="-0.43636">
        <ele>82</ele>
        <time>2013-12-22T12:43:22Z</time>
      </trkpt>
      <trkpt lat="44.82051" lon="-0.43636">
        <ele>82</ele>
        <time>2013-12-22T12:43:25Z</time>
      </trkpt>
      <trkpt lat="44.82051" lon="-0.43625">
        <ele>82</ele>
        <time>2013-12-22T12:43:30Z</time>
      </trkpt>
      <trkpt lat="44.82047" lon="-0.436">
        <ele>82</ele>
        <time>2013-12-22T12:43:35Z</time>
      </trkpt>
      <trkpt lat="44.82025" lon="-0.43551">
        <ele>80</ele>
        <time>2013-12-22T12:43:43Z</time>
      </trkpt>
      <trkpt lat="44.82" lon="-0.43494">
        <ele>80</ele>
        <time>2013-12-22T12:43:51Z</time>
      </trkpt>
      <trkpt lat="44.81997" lon="-0.43478">
        <ele>80</ele>
        <time>2013-12-22T12:43:53Z</time>
      </trkpt>
      <trkpt lat="44.81993" lon="-0.43458">
        <ele>79</ele>
        <time>2013-12-22T12:43:57Z</time>
      </trkpt>
      <trkpt lat="44.81988" lon="-0.43427">
        <ele>78</ele>
        <time>2013-12-22T12:44:03Z</time>
      </trkpt>
      <trkpt lat="44.81988" lon="-0.43415">
        <ele>78</ele>
        <time>2013-12-22T12:44:05Z</time>
      </trkpt>
      <trkpt lat="44.81989" lon="-0.43409">
        <ele>78</ele>
        <time>2013-12-22T12:44:06Z</time>
      </trkpt>
      <trkpt lat="44.8199" lon="-0.43404">
        <ele>77</ele>
        <time>2013-12-22T12:44:07Z</time>
      </trkpt>
      <trkpt lat="44.81992" lon="-0.43399">
        <ele>77</ele>
        <time>2013-12-22T12:44:08Z</time>
      </trkpt>
      <trkpt lat="44.81994" lon="-0.43394">
        <ele>77</ele>
        <time>2013-12-22T12:44:09Z</time>
      </trkpt>
      <trkpt lat="44.82009" lon="-0.43364">
        <ele>76</ele>
        <time>2013-12-22T12:44:16Z</time>
      </trkpt>
      <trkpt lat="44.82023" lon="-0.43336">
        <ele>75</ele>
        <time>2013-12-22T12:44:23Z</time>
      </trkpt>
      <trkpt lat="44.82027" lon="-0.43316">
        <ele>74</ele>
        <time>2013-12-22T12:44:29Z</time>
      </trkpt>
      <trkpt lat="44.82028" lon="-0.43313">
        <ele>74</ele>
        <time>2013-12-22T12:44:31Z</time>
      </trkpt>
      <trkpt lat="44.82027" lon="-0.43311">
        <ele>74</ele>
        <time>2013-12-22T12:44:32Z</time>
      </trkpt>
      <trkpt lat="44.82026" lon="-0.43309">
        <ele>74</ele>
        <time>2013-12-22T12:44:33Z</time>
      </trkpt>
      <trkpt lat="44.82023" lon="-0.43299">
        <ele>73</ele>
        <time>2013-12-22T12:44:37Z</time>
      </trkpt>
      <trkpt lat="44.82023" lon="-0.43297">
        <ele>73</ele>
        <time>2013-12-22T12:44:38Z</time>
      </trkpt>
      <trkpt lat="44.82026" lon="-0.43274">
        <ele>72</ele>
        <time>2013-12-22T12:44:44Z</time>
      </trkpt>
      <trkpt lat="44.82027" lon="-0.43268">
        <ele>72</ele>
        <time>2013-12-22T12:44:45Z</time>
      </trkpt>
      <trkpt lat="44.82034" lon="-0.43227">
        <ele>69</ele>
        <time>2013-12-22T12:44:50Z</time>
      </trkpt>
      <trkpt lat="44.82034" lon="-0.43217">
        <ele>69</ele>
        <time>2013-12-22T12:44:51Z</time>
      </trkpt>
      <trkpt lat="44.82032" lon="-0.43207">
        <ele>68</ele>
        <time>2013-12-22T12:44:52Z</time>
      </trkpt>
      <trkpt lat="44.8203" lon="-0.43198">
        <ele>67</ele>
        <time>2013-12-22T12:44:53Z</time>
      </trkpt>
      <trkpt lat="44.82028" lon="-0.4319">
        <ele>67</ele>
        <time>2013-12-22T12:44:54Z</time>
      </trkpt>
      <trkpt lat="44.82023" lon="-0.43171">
        <ele>66</ele>
        <time>2013-12-22T12:44:57Z</time>
      </trkpt>
      <trkpt lat="44.82019" lon="-0.43152">
        <ele>64</ele>
        <time>2013-12-22T12:45:00Z</time>
      </trkpt>
      <trkpt lat="44.82019" lon="-0.43145">
        <ele>63</ele>
        <time>2013-12-22T12:45:01Z</time>
      </trkpt>
      <trkpt lat="44.82019" lon="-0.4313">
        <ele>62</ele>
        <time>2013-12-22T12:45:03Z</time>
      </trkpt>
      <trkpt lat="44.82019" lon="-0.43122">
        <ele>61</ele>
        <time>2013-12-22T12:45:04Z</time>
      </trkpt>
      <trkpt lat="44.82021" lon="-0.43106">
        <ele>59</ele>
        <time>2013-12-22T12:45:06Z</time>
      </trkpt>
      <trkpt lat="44.82025" lon="-0.43088">
        <ele>57</ele>
        <time>2013-12-22T12:45:08Z</time>
      </trkpt>
      <trkpt lat="44.82029" lon="-0.43079">
        <ele>56</ele>
        <time>2013-12-22T12:45:09Z</time>
      </trkpt>
      <trkpt lat="44.82033" lon="-0.43071">
        <ele>55</ele>
        <time>2013-12-22T12:45:10Z</time>
      </trkpt>
      <trkpt lat="44.8204" lon="-0.43064">
        <ele>55</ele>
        <time>2013-12-22T12:45:11Z</time>
      </trkpt>
      <trkpt lat="44.82047" lon="-0.43058">
        <ele>54</ele>
        <time>2013-12-22T12:45:12Z</time>
      </trkpt>
      <trkpt lat="44.82055" lon="-0.43052">
        <ele>54</ele>
        <time>2013-12-22T12:45:13Z</time>
      </trkpt>
      <trkpt lat="44.82084" lon="-0.43031">
        <ele>54</ele>
        <time>2013-12-22T12:45:17Z</time>
      </trkpt>
      <trkpt lat="44.8209" lon="-0.43024">
        <ele>55</ele>
        <time>2013-12-22T12:45:18Z</time>
      </trkpt>
      <trkpt lat="44.82094" lon="-0.43018">
        <ele>55</ele>
        <time>2013-12-22T12:45:19Z</time>
      </trkpt>
      <trkpt lat="44.82098" lon="-0.43012">
        <ele>55</ele>
        <time>2013-12-22T12:45:20Z</time>
      </trkpt>
      <trkpt lat="44.821" lon="-0.43007">
        <ele>56</ele>
        <time>2013-12-22T12:45:21Z</time>
      </trkpt>
      <trkpt lat="44.82102" lon="-0.43001">
        <ele>56</ele>
        <time>2013-12-22T12:45:22Z</time>
      </trkpt>
      <trkpt lat="44.82118" lon="-0.42968">
        <ele>58</ele>
        <time>2013-12-22T12:45:30Z</time>
      </trkpt>
      <trkpt lat="44.8214" lon="-0.42936">
        <ele>61</ele>
        <time>2013-12-22T12:45:40Z</time>
      </trkpt>
      <trkpt lat="44.82153" lon="-0.42918">
        <ele>63</ele>
        <time>2013-12-22T12:45:46Z</time>
      </trkpt>
      <trkpt lat="44.82167" lon="-0.42897">
        <ele>65</ele>
        <time>2013-12-22T12:45:53Z</time>
      </trkpt>
      <trkpt lat="44.82169" lon="-0.42891">
        <ele>66</ele>
        <time>2013-12-22T12:45:55Z</time>
      </trkpt>
      <trkpt lat="44.82169" lon="-0.42888">
        <ele>66</ele>
        <time>2013-12-22T12:45:56Z</time>
      </trkpt>
      <trkpt lat="44.82167" lon="-0.42885">
        <ele>66</ele>
        <time>2013-12-22T12:45:57Z</time>
      </trkpt>
      <trkpt lat="44.82165" lon="-0.42882">
        <ele>66</ele>
        <time>2013-12-22T12:45:58Z</time>
      </trkpt>
      <trkpt lat="44.82164" lon="-0.42879">
        <ele>66</ele>
        <time>2013-12-22T12:45:59Z</time>
      </trkpt>
      <trkpt lat="44.82162" lon="-0.42876">
        <ele>66</ele>
        <time>2013-12-22T12:46:00Z</time>
      </trkpt>
      <trkpt lat="44.82161" lon="-0.42873">
        <ele>66</ele>
        <time>2013-12-22T12:46:01Z</time>
      </trkpt>
      <trkpt lat="44.8216" lon="-0.42869">
        <ele>66</ele>
        <time>2013-12-22T12:46:02Z</time>
      </trkpt>
      <trkpt lat="44.8215" lon="-0.42844">
        <ele>67</ele>
        <time>2013-12-22T12:46:11Z</time>
      </trkpt>
      <trkpt lat="44.82142" lon="-0.42825">
        <ele>68</ele>
        <time>2013-12-22T12:46:19Z</time>
      </trkpt>
      <trkpt lat="44.82137" lon="-0.42801">
        <ele>70</ele>
        <time>2013-12-22T12:46:27Z</time>
      </trkpt>
      <trkpt lat="44.82137" lon="-0.42769">
        <ele>72</ele>
        <time>2013-12-22T12:46:38Z</time>
      </trkpt>
      <trkpt lat="44.82137" lon="-0.42743">
        <ele>74</ele>
        <time>2013-12-22T12:46:47Z</time>
      </trkpt>
      <trkpt lat="44.82138" lon="-0.42718">
        <ele>76</ele>
        <time>2013-12-22T12:46:56Z</time>
      </trkpt>
      <trkpt lat="44.82138" lon="-0.42701">
        <ele>76</ele>
        <time>2013-12-22T12:47:04Z</time>
      </trkpt>
      <trkpt lat="44.82138" lon="-0.42699">
        <ele>76</ele>
        <time>2013-12-22T12:47:05Z</time>
      </trkpt>
      <trkpt lat="44.82138" lon="-0.42697">
        <ele>76</ele>
        <time>2013-12-22T12:47:06Z</time>
      </trkpt>
      <trkpt lat="44.82138" lon="-0.42695">
        <ele>76</ele>
        <time>2013-12-22T12:47:08Z</time>
      </trkpt>
      <trkpt lat="44.82136" lon="-0.42693">
        <ele>76</ele>
        <time>2013-12-22T12:47:09Z</time>
      </trkpt>
      <trkpt lat="44.82135" lon="-0.42692">
        <ele>76</ele>
        <time>2013-12-22T12:47:10Z</time>
      </trkpt>
      <trkpt lat="44.82133" lon="-0.42692">
        <ele>76</ele>
        <time>2013-12-22T12:47:11Z</time>
      </trkpt>
      <trkpt lat="44.82131" lon="-0.42691">
        <ele>76</ele>
        <time>2013-12-22T12:47:12Z</time>
      </trkpt>
      <trkpt lat="44.82126" lon="-0.4269">
        <ele>76</ele>
        <time>2013-12-22T12:47:15Z</time>
      </trkpt>
      <trkpt lat="44.82124" lon="-0.42689">
        <ele>76</ele>
        <time>2013-12-22T12:47:16Z</time>
      </trkpt>
      <trkpt lat="44.82121" lon="-0.42689">
        <ele>76</ele>
        <time>2013-12-22T12:47:17Z</time>
      </trkpt>
      <trkpt lat="44.82113" lon="-0.42687">
        <ele>76</ele>
        <time>2013-12-22T12:47:21Z</time>
      </trkpt>
      <trkpt lat="44.82112" lon="-0.42684">
        <ele>76</ele>
        <time>2013-12-22T12:47:22Z</time>
      </trkpt>
      <trkpt lat="44.82111" lon="-0.42682">
        <ele>76</ele>
        <time>2013-12-22T12:47:23Z</time>
      </trkpt>
      <trkpt lat="44.82111" lon="-0.42654">
        <ele>76</ele>
        <time>2013-12-22T12:47:32Z</time>
      </trkpt>
      <trkpt lat="44.8211" lon="-0.42624">
        <ele>74</ele>
        <time>2013-12-22T12:47:38Z</time>
      </trkpt>
      <trkpt lat="44.82109" lon="-0.42591">
        <ele>73</ele>
        <time>2013-12-22T12:47:44Z</time>
      </trkpt>
      <trkpt lat="44.82108" lon="-0.4254">
        <ele>70</ele>
        <time>2013-12-22T12:47:51Z</time>
      </trkpt>
      <trkpt lat="44.82107" lon="-0.42533">
        <ele>69</ele>
        <time>2013-12-22T12:47:52Z</time>
      </trkpt>
      <trkpt lat="44.82105" lon="-0.42499">
        <ele>68</ele>
        <time>2013-12-22T12:47:57Z</time>
      </trkpt>
      <trkpt lat="44.82104" lon="-0.42493">
        <ele>67</ele>
        <time>2013-12-22T12:47:58Z</time>
      </trkpt>
      <trkpt lat="44.82103" lon="-0.42487">
        <ele>67</ele>
        <time>2013-12-22T12:47:59Z</time>
      </trkpt>
      <trkpt lat="44.82102" lon="-0.42481">
        <ele>67</ele>
        <time>2013-12-22T12:48:00Z</time>
      </trkpt>
      <trkpt lat="44.82101" lon="-0.42475">
        <ele>66</ele>
        <time>2013-12-22T12:48:01Z</time>
      </trkpt>
      <trkpt lat="44.82096" lon="-0.4245">
        <ele>65</ele>
        <time>2013-12-22T12:48:06Z</time>
      </trkpt>
      <trkpt lat="44.8209" lon="-0.42437">
        <ele>63</ele>
        <time>2013-12-22T12:48:11Z</time>
      </trkpt>
      <trkpt lat="44.82082" lon="-0.42418">
        <ele>61</ele>
        <time>2013-12-22T12:48:18Z</time>
      </trkpt>
      <trkpt lat="44.82075" lon="-0.42403">
        <ele>59</ele>
        <time>2013-12-22T12:48:23Z</time>
      </trkpt>
      <trkpt lat="44.82069" lon="-0.42397">
        <ele>58</ele>
        <time>2013-12-22T12:48:27Z</time>
      </trkpt>
      <trkpt lat="44.82065" lon="-0.42393">
        <ele>57</ele>
        <time>2013-12-22T12:48:31Z</time>
      </trkpt>
      <trkpt lat="44.82054" lon="-0.42388">
        <ele>55</ele>
        <time>2013-12-22T12:48:38Z</time>
      </trkpt>
      <trkpt lat="44.8205" lon="-0.42386">
        <ele>54</ele>
        <time>2013-12-22T12:48:45Z</time>
      </trkpt>
      <trkpt lat="44.82046" lon="-0.42385">
        <ele>54</ele>
        <time>2013-12-22T12:48:52Z</time>
      </trkpt>
      <trkpt lat="44.82041" lon="-0.42383">
        <ele>53</ele>
        <time>2013-12-22T12:48:56Z</time>
      </trkpt>
      <trkpt lat="44.82032" lon="-0.4238">
        <ele>52</ele>
        <time>2013-12-22T12:49:02Z</time>
      </trkpt>
      <trkpt lat="44.82018" lon="-0.42373">
        <ele>51</ele>
        <time>2013-12-22T12:49:09Z</time>
      </trkpt>
      <trkpt lat="44.82014" lon="-0.42371">
        <ele>50</ele>
        <time>2013-12-22T12:49:11Z</time>
      </trkpt>
      <trkpt lat="44.82009" lon="-0.42369">
        <ele>50</ele>
        <time>2013-12-22T12:49:14Z</time>
      </trkpt>
      <trkpt lat="44.81998" lon="-0.42364">
        <ele>48</ele>
        <time>2013-12-22T12:49:19Z</time>
      </trkpt>
      <trkpt lat="44.81987" lon="-0.42359">
        <ele>47</ele>
        <time>2013-12-22T12:49:25Z</time>
      </trkpt>
      <trkpt lat="44.81971" lon="-0.42351">
        <ele>44</ele>
        <time>2013-12-22T12:49:31Z</time>
      </trkpt>
      <trkpt lat="44.8195" lon="-0.42341">
        <ele>41</ele>
        <time>2013-12-22T12:49:39Z</time>
      </trkpt>
      <trkpt lat="44.81932" lon="-0.42329">
        <ele>40</ele>
        <time>2013-12-22T12:49:44Z</time>
      </trkpt>
      <trkpt lat="44.81928" lon="-0.42326">
        <ele>40</ele>
        <time>2013-12-22T12:49:45Z</time>
      </trkpt>
      <trkpt lat="44.81912" lon="-0.42315">
        <ele>39</ele>
        <time>2013-12-22T12:49:49Z</time>
      </trkpt>
      <trkpt lat="44.81883" lon="-0.42292">
        <ele>37</ele>
        <time>2013-12-22T12:49:57Z</time>
      </trkpt>
      <trkpt lat="44.81872" lon="-0.42285">
        <ele>36</ele>
        <time>2013-12-22T12:50:02Z</time>
      </trkpt>
      <trkpt lat="44.81867" lon="-0.42288">
        <ele>36</ele>
        <time>2013-12-22T12:50:07Z</time>
      </trkpt>
      <trkpt lat="44.81863" lon="-0.42292">
        <ele>37</ele>
        <time>2013-12-22T12:50:14Z</time>
      </trkpt>
      <trkpt lat="44.81857" lon="-0.42293">
        <ele>37</ele>
        <time>2013-12-22T12:50:20Z</time>
      </trkpt>
      <trkpt lat="44.81852" lon="-0.42293">
        <ele>36</ele>
        <time>2013-12-22T12:50:23Z</time>
      </trkpt>
      <trkpt lat="44.81842" lon="-0.42298">
        <ele>37</ele>
        <time>2013-12-22T12:50:27Z</time>
      </trkpt>
      <trkpt lat="44.81831" lon="-0.42304">
        <ele>36</ele>
        <time>2013-12-22T12:50:32Z</time>
      </trkpt>
      <trkpt lat="44.81823" lon="-0.42305">
        <ele>36</ele>
        <time>2013-12-22T12:50:38Z</time>
      </trkpt>
      <trkpt lat="44.8182" lon="-0.42302">
        <ele>36</ele>
        <time>2013-12-22T12:50:44Z</time>
      </trkpt>
      <trkpt lat="44.81817" lon="-0.42299">
        <ele>36</ele>
        <time>2013-12-22T12:50:52Z</time>
      </trkpt>
      <trkpt lat="44.81814" lon="-0.42297">
        <ele>36</ele>
        <time>2013-12-22T12:50:59Z</time>
      </trkpt>
      <trkpt lat="44.81814" lon="-0.42297">
        <ele>36</ele>
        <time>2013-12-22T12:51:00Z</time>
      </trkpt>
      <trkpt lat="44.81812" lon="-0.42293">
        <ele>36</ele>
        <time>2013-12-22T12:51:05Z</time>
      </trkpt>
      <trkpt lat="44.81812" lon="-0.42292">
        <ele>36</ele>
        <time>2013-12-22T12:51:07Z</time>
      </trkpt>
      <trkpt lat="44.81809" lon="-0.42289">
        <ele>36</ele>
        <time>2013-12-22T12:51:10Z</time>
      </trkpt>
      <trkpt lat="44.81804" lon="-0.4228">
        <ele>36</ele>
        <time>2013-12-22T12:51:17Z</time>
      </trkpt>
      <trkpt lat="44.81796" lon="-0.42268">
        <ele>37</ele>
        <time>2013-12-22T12:51:23Z</time>
      </trkpt>
      <trkpt lat="44.81792" lon="-0.42251">
        <ele>38</ele>
        <time>2013-12-22T12:51:29Z</time>
      </trkpt>
      <trkpt lat="44.81791" lon="-0.42234">
        <ele>38</ele>
        <time>2013-12-22T12:51:36Z</time>
      </trkpt>
      <trkpt lat="44.8179" lon="-0.42222">
        <ele>39</ele>
        <time>2013-12-22T12:51:40Z</time>
      </trkpt>
      <trkpt lat="44.81789" lon="-0.42219">
        <ele>39</ele>
        <time>2013-12-22T12:51:42Z</time>
      </trkpt>
      <trkpt lat="44.81789" lon="-0.42201">
        <ele>39</ele>
        <time>2013-12-22T12:51:48Z</time>
      </trkpt>
      <trkpt lat="44.81791" lon="-0.4218">
        <ele>41</ele>
        <time>2013-12-22T12:51:55Z</time>
      </trkpt>
      <trkpt lat="44.81792" lon="-0.42168">
        <ele>41</ele>
        <time>2013-12-22T12:51:59Z</time>
      </trkpt>
      <trkpt lat="44.81794" lon="-0.42145">
        <ele>42</ele>
        <time>2013-12-22T12:52:06Z</time>
      </trkpt>
      <trkpt lat="44.81797" lon="-0.42126">
        <ele>43</ele>
        <time>2013-12-22T12:52:13Z</time>
      </trkpt>
      <trkpt lat="44.81797" lon="-0.42117">
        <ele>44</ele>
        <time>2013-12-22T12:52:17Z</time>
      </trkpt>
      <trkpt lat="44.81795" lon="-0.421">
        <ele>45</ele>
        <time>2013-12-22T12:52:24Z</time>
      </trkpt>
      <trkpt lat="44.8179" lon="-0.42084">
        <ele>46</ele>
        <time>2013-12-22T12:52:31Z</time>
      </trkpt>
      <trkpt lat="44.81788" lon="-0.42076">
        <ele>47</ele>
        <time>2013-12-22T12:52:34Z</time>
      </trkpt>
      <trkpt lat="44.81789" lon="-0.42069">
        <ele>47</ele>
        <time>2013-12-22T12:52:37Z</time>
      </trkpt>
      <trkpt lat="44.81786" lon="-0.4206">
        <ele>48</ele>
        <time>2013-12-22T12:52:41Z</time>
      </trkpt>
      <trkpt lat="44.81781" lon="-0.42054">
        <ele>49</ele>
        <time>2013-12-22T12:52:45Z</time>
      </trkpt>
      <trkpt lat="44.8178" lon="-0.42051">
        <ele>49</ele>
        <time>2013-12-22T12:52:47Z</time>
      </trkpt>
      <trkpt lat="44.81784" lon="-0.42033">
        <ele>50</ele>
        <time>2013-12-22T12:52:56Z</time>
      </trkpt>
      <trkpt lat="44.81787" lon="-0.42023">
        <ele>50</ele>
        <time>2013-12-22T12:53:01Z</time>
      </trkpt>
      <trkpt lat="44.81794" lon="-0.4201">
        <ele>50</ele>
        <time>2013-12-22T12:53:07Z</time>
      </trkpt>
      <trkpt lat="44.81797" lon="-0.42006">
        <ele>50</ele>
        <time>2013-12-22T12:53:09Z</time>
      </trkpt>
      <trkpt lat="44.81802" lon="-0.41998">
        <ele>50</ele>
        <time>2013-12-22T12:53:12Z</time>
      </trkpt>
      <trkpt lat="44.81805" lon="-0.41981">
        <ele>51</ele>
        <time>2013-12-22T12:53:18Z</time>
      </trkpt>
      <trkpt lat="44.81807" lon="-0.41973">
        <ele>51</ele>
        <time>2013-12-22T12:53:21Z</time>
      </trkpt>
      <trkpt lat="44.81811" lon="-0.41962">
        <ele>51</ele>
        <time>2013-12-22T12:53:25Z</time>
      </trkpt>
      <trkpt lat="44.81823" lon="-0.41941">
        <ele>51</ele>
        <time>2013-12-22T12:53:33Z</time>
      </trkpt>
      <trkpt lat="44.81831" lon="-0.41929">
        <ele>51</ele>
        <time>2013-12-22T12:53:38Z</time>
      </trkpt>
      <trkpt lat="44.81839" lon="-0.41926">
        <ele>49</ele>
        <time>2013-12-22T12:53:42Z</time>
      </trkpt>
      <trkpt lat="44.81851" lon="-0.4191">
        <ele>48</ele>
        <time>2013-12-22T12:53:50Z</time>
      </trkpt>
      <trkpt lat="44.81854" lon="-0.41906">
        <ele>47</ele>
        <time>2013-12-22T12:53:52Z</time>
      </trkpt>
      <trkpt lat="44.81864" lon="-0.41884">
        <ele>46</ele>
        <time>2013-12-22T12:53:58Z</time>
      </trkpt>
      <trkpt lat="44.81871" lon="-0.41856">
        <ele>45</ele>
        <time>2013-12-22T12:54:05Z</time>
      </trkpt>
      <trkpt lat="44.81872" lon="-0.41843">
        <ele>45</ele>
        <time>2013-12-22T12:54:08Z</time>
      </trkpt>
      <trkpt lat="44.81871" lon="-0.41818">
        <ele>44</ele>
        <time>2013-12-22T12:54:14Z</time>
      </trkpt>
      <trkpt lat="44.8187" lon="-0.4181">
        <ele>44</ele>
        <time>2013-12-22T12:54:16Z</time>
      </trkpt>
      <trkpt lat="44.81869" lon="-0.41793">
        <ele>43</ele>
        <time>2013-12-22T12:54:21Z</time>
      </trkpt>
      <trkpt lat="44.81873" lon="-0.41773">
        <ele>42</ele>
        <time>2013-12-22T12:54:29Z</time>
      </trkpt>
      <trkpt lat="44.8188" lon="-0.41752">
        <ele>43</ele>
        <time>2013-12-22T12:54:36Z</time>
      </trkpt>
      <trkpt lat="44.81884" lon="-0.41742">
        <ele>43</ele>
        <time>2013-12-22T12:54:41Z</time>
      </trkpt>
      <trkpt lat="44.81887" lon="-0.41719">
        <ele>44</ele>
        <time>2013-12-22T12:54:49Z</time>
      </trkpt>
      <trkpt lat="44.81887" lon="-0.41701">
        <ele>45</ele>
        <time>2013-12-22T12:54:56Z</time>
      </trkpt>
      <trkpt lat="44.81885" lon="-0.4169">
        <ele>46</ele>
        <time>2013-12-22T12:55:02Z</time>
      </trkpt>
      <trkpt lat="44.81882" lon="-0.41683">
        <ele>47</ele>
        <time>2013-12-22T12:55:06Z</time>
      </trkpt>
      <trkpt lat="44.81879" lon="-0.41676">
        <ele>47</ele>
        <time>2013-12-22T12:55:10Z</time>
      </trkpt>
      <trkpt lat="44.81873" lon="-0.41659">
        <ele>49</ele>
        <time>2013-12-22T12:55:17Z</time>
      </trkpt>
      <trkpt lat="44.81871" lon="-0.41648">
        <ele>50</ele>
        <time>2013-12-22T12:55:22Z</time>
      </trkpt>
      <trkpt lat="44.81863" lon="-0.41632">
        <ele>51</ele>
        <time>2013-12-22T12:55:30Z</time>
      </trkpt>
      <trkpt lat="44.81858" lon="-0.41635">
        <ele>51</ele>
        <time>2013-12-22T12:55:35Z</time>
      </trkpt>
      <trkpt lat="44.81852" lon="-0.41641">
        <ele>51</ele>
        <time>2013-12-22T12:55:43Z</time>
      </trkpt>
      <trkpt lat="44.81851" lon="-0.4164">
        <ele>52</ele>
        <time>2013-12-22T12:55:44Z</time>
      </trkpt>
      <trkpt lat="44.81857" lon="-0.41635">
        <ele>52</ele>
        <time>2013-12-22T12:55:50Z</time>
      </trkpt>
      <trkpt lat="44.8186" lon="-0.41636">
        <ele>51</ele>
        <time>2013-12-22T12:55:53Z</time>
      </trkpt>
      <trkpt lat="44.81867" lon="-0.41628">
        <ele>51</ele>
        <time>2013-12-22T12:56:00Z</time>
      </trkpt>
      <trkpt lat="44.81867" lon="-0.4163">
        <ele>51</ele>
        <time>2013-12-22T12:56:09Z</time>
      </trkpt>
      <trkpt lat="44.81867" lon="-0.41629">
        <ele>51</ele>
        <time>2013-12-22T12:56:23Z</time>
      </trkpt>
      <trkpt lat="44.81868" lon="-0.41629">
        <ele>51</ele>
        <time>2013-12-22T12:56:31Z</time>
      </trkpt>
      <trkpt lat="44.81868" lon="-0.41632">
        <ele>51</ele>
        <time>2013-12-22T12:56:47Z</time>
      </trkpt>
      <trkpt lat="44.81869" lon="-0.41632">
        <ele>51</ele>
        <time>2013-12-22T12:56:56Z</time>
      </trkpt>
      <trkpt lat="44.81869" lon="-0.41632">
        <ele>51</ele>
        <time>2013-12-22T12:57:03Z</time>
      </trkpt>
      <trkpt lat="44.81869" lon="-0.41632">
        <ele>51</ele>
        <time>2013-12-22T12:57:16Z</time>
      </trkpt>
      <trkpt lat="44.81869" lon="-0.41633">
        <ele>51</ele>
        <time>2013-12-22T12:57:37Z</time>
      </trkpt>
      <trkpt lat="44.81869" lon="-0.41633">
        <ele>51</ele>
        <time>2013-12-22T12:57:48Z</time>
      </trkpt>
      <trkpt lat="44.81869" lon="-0.41633">
        <ele>51</ele>
        <time>2013-12-22T12:58:01Z</time>
      </trkpt>
      <trkpt lat="44.81869" lon="-0.41633">
        <ele>51</ele>
        <time>2013-12-22T12:58:09Z</time>
      </trkpt>
      <trkpt lat="44.81868" lon="-0.41633">
        <ele>51</ele>
        <time>2013-12-22T12:58:21Z</time>
      </trkpt>
      <trkpt lat="44.81869" lon="-0.41633">
        <ele>51</ele>
        <time>2013-12-22T12:58:32Z</time>
      </trkpt>
      <trkpt lat="44.81869" lon="-0.41633">
        <ele>51</ele>
        <time>2013-12-22T12:58:44Z</time>
      </trkpt>
      <trkpt lat="44.8187" lon="-0.41632">
        <ele>51</ele>
        <time>2013-12-22T12:58:53Z</time>
      </trkpt>
      <trkpt lat="44.8187" lon="-0.41631">
        <ele>51</ele>
        <time>2013-12-22T12:59:03Z</time>
      </trkpt>
      <trkpt lat="44.8187" lon="-0.41629">
        <ele>51</ele>
        <time>2013-12-22T12:59:12Z</time>
      </trkpt>
      <trkpt lat="44.8187" lon="-0.41628">
        <ele>51</ele>
        <time>2013-12-22T12:59:24Z</time>
      </trkpt>
      <trkpt lat="44.8187" lon="-0.4162">
        <ele>51</ele>
        <time>2013-12-22T12:59:28Z</time>
      </trkpt>
      <trkpt lat="44.81874" lon="-0.416">
        <ele>51</ele>
        <time>2013-12-22T12:59:36Z</time>
      </trkpt>
      <trkpt lat="44.81881" lon="-0.41569">
        <ele>51</ele>
        <time>2013-12-22T12:59:44Z</time>
      </trkpt>
      <trkpt lat="44.81889" lon="-0.41524">
        <ele>52</ele>
        <time>2013-12-22T12:59:53Z</time>
      </trkpt>
      <trkpt lat="44.81895" lon="-0.41489">
        <ele>53</ele>
        <time>2013-12-22T13:00:00Z</time>
      </trkpt>
      <trkpt lat="44.81902" lon="-0.41458">
        <ele>52</ele>
        <time>2013-12-22T13:00:06Z</time>
      </trkpt>
      <trkpt lat="44.81903" lon="-0.4144">
        <ele>53</ele>
        <time>2013-12-22T13:00:09Z</time>
      </trkpt>
      <trkpt lat="44.81904" lon="-0.41434">
        <ele>53</ele>
        <time>2013-12-22T13:00:10Z</time>
      </trkpt>
      <trkpt lat="44.81904" lon="-0.41429">
        <ele>53</ele>
        <time>2013-12-22T13:00:11Z</time>
      </trkpt>
      <trkpt lat="44.81905" lon="-0.41423">
        <ele>53</ele>
        <time>2013-12-22T13:00:12Z</time>
      </trkpt>
      <trkpt lat="44.81906" lon="-0.41416">
        <ele>53</ele>
        <time>2013-12-22T13:00:13Z</time>
      </trkpt>
      <trkpt lat="44.81907" lon="-0.4141">
        <ele>53</ele>
        <time>2013-12-22T13:00:14Z</time>
      </trkpt>
      <trkpt lat="44.81908" lon="-0.41403">
        <ele>53</ele>
        <time>2013-12-22T13:00:15Z</time>
      </trkpt>
      <trkpt lat="44.81915" lon="-0.41357">
        <ele>54</ele>
        <time>2013-12-22T13:00:22Z</time>
      </trkpt>
      <trkpt lat="44.81915" lon="-0.41346">
        <ele>54</ele>
        <time>2013-12-22T13:00:24Z</time>
      </trkpt>
      <trkpt lat="44.81917" lon="-0.41332">
        <ele>54</ele>
        <time>2013-12-22T13:00:26Z</time>
      </trkpt>
      <trkpt lat="44.81918" lon="-0.41325">
        <ele>54</ele>
        <time>2013-12-22T13:00:27Z</time>
      </trkpt>
      <trkpt lat="44.81919" lon="-0.41318">
        <ele>54</ele>
        <time>2013-12-22T13:00:28Z</time>
      </trkpt>
      <trkpt lat="44.81921" lon="-0.41311">
        <ele>54</ele>
        <time>2013-12-22T13:00:29Z</time>
      </trkpt>
      <trkpt lat="44.81922" lon="-0.41304">
        <ele>54</ele>
        <time>2013-12-22T13:00:30Z</time>
      </trkpt>
      <trkpt lat="44.81923" lon="-0.41298">
        <ele>54</ele>
        <time>2013-12-22T13:00:31Z</time>
      </trkpt>
      <trkpt lat="44.81923" lon="-0.41291">
        <ele>54</ele>
        <time>2013-12-22T13:00:32Z</time>
      </trkpt>
      <trkpt lat="44.81931" lon="-0.41269">
        <ele>53</ele>
        <time>2013-12-22T13:00:37Z</time>
      </trkpt>
      <trkpt lat="44.81949" lon="-0.41246">
        <ele>50</ele>
        <time>2013-12-22T13:00:44Z</time>
      </trkpt>
      <trkpt lat="44.81952" lon="-0.41246">
        <ele>50</ele>
        <time>2013-12-22T13:00:45Z</time>
      </trkpt>
      <trkpt lat="44.81956" lon="-0.41248">
        <ele>49</ele>
        <time>2013-12-22T13:00:46Z</time>
      </trkpt>
      <trkpt lat="44.81959" lon="-0.41251">
        <ele>48</ele>
        <time>2013-12-22T13:00:47Z</time>
      </trkpt>
      <trkpt lat="44.81963" lon="-0.41254">
        <ele>48</ele>
        <time>2013-12-22T13:00:48Z</time>
      </trkpt>
      <trkpt lat="44.81987" lon="-0.41274">
        <ele>45</ele>
        <time>2013-12-22T13:00:53Z</time>
      </trkpt>
      <trkpt lat="44.81993" lon="-0.41276">
        <ele>45</ele>
        <time>2013-12-22T13:00:54Z</time>
      </trkpt>
      <trkpt lat="44.81999" lon="-0.41278">
        <ele>45</ele>
        <time>2013-12-22T13:00:55Z</time>
      </trkpt>
      <trkpt lat="44.82005" lon="-0.4128">
        <ele>45</ele>
        <time>2013-12-22T13:00:56Z</time>
      </trkpt>
      <trkpt lat="44.8201" lon="-0.4128">
        <ele>45</ele>
        <time>2013-12-22T13:00:57Z</time>
      </trkpt>
      <trkpt lat="44.8204" lon="-0.41279">
        <ele>45</ele>
        <time>2013-12-22T13:01:03Z</time>
      </trkpt>
      <trkpt lat="44.82086" lon="-0.41259">
        <ele>46</ele>
        <time>2013-12-22T13:01:13Z</time>
      </trkpt>
      <trkpt lat="44.82116" lon="-0.41249">
        <ele>47</ele>
        <time>2013-12-22T13:01:20Z</time>
      </trkpt>
      <trkpt lat="44.82121" lon="-0.41248">
        <ele>47</ele>
        <time>2013-12-22T13:01:21Z</time>
      </trkpt>
      <trkpt lat="44.82125" lon="-0.41248">
        <ele>48</ele>
        <time>2013-12-22T13:01:22Z</time>
      </trkpt>
      <trkpt lat="44.8213" lon="-0.41248">
        <ele>48</ele>
        <time>2013-12-22T13:01:23Z</time>
      </trkpt>
      <trkpt lat="44.82164" lon="-0.41259">
        <ele>50</ele>
        <time>2013-12-22T13:01:31Z</time>
      </trkpt>
      <trkpt lat="44.82186" lon="-0.41271">
        <ele>51</ele>
        <time>2013-12-22T13:01:38Z</time>
      </trkpt>
      <trkpt lat="44.82211" lon="-0.41284">
        <ele>53</ele>
        <time>2013-12-22T13:01:46Z</time>
      </trkpt>
      <trkpt lat="44.82229" lon="-0.41299">
        <ele>55</ele>
        <time>2013-12-22T13:01:53Z</time>
      </trkpt>
      <trkpt lat="44.82249" lon="-0.41317">
        <ele>57</ele>
        <time>2013-12-22T13:02:01Z</time>
      </trkpt>
      <trkpt lat="44.82261" lon="-0.41328">
        <ele>58</ele>
        <time>2013-12-22T13:02:08Z</time>
      </trkpt>
      <trkpt lat="44.82278" lon="-0.41339">
        <ele>58</ele>
        <time>2013-12-22T13:02:16Z</time>
      </trkpt>
      <trkpt lat="44.82296" lon="-0.41338">
        <ele>58</ele>
        <time>2013-12-22T13:02:23Z</time>
      </trkpt>
      <trkpt lat="44.82308" lon="-0.41316">
        <ele>60</ele>
        <time>2013-12-22T13:02:31Z</time>
      </trkpt>
      <trkpt lat="44.82314" lon="-0.41289">
        <ele>61</ele>
        <time>2013-12-22T13:02:39Z</time>
      </trkpt>
      <trkpt lat="44.82325" lon="-0.41266">
        <ele>62</ele>
        <time>2013-12-22T13:02:46Z</time>
      </trkpt>
      <trkpt lat="44.82341" lon="-0.41247">
        <ele>64</ele>
        <time>2013-12-22T13:02:54Z</time>
      </trkpt>
      <trkpt lat="44.82353" lon="-0.41232">
        <ele>65</ele>
        <time>2013-12-22T13:03:01Z</time>
      </trkpt>
      <trkpt lat="44.82366" lon="-0.41217">
        <ele>65</ele>
        <time>2013-12-22T13:03:07Z</time>
      </trkpt>
      <trkpt lat="44.82379" lon="-0.41193">
        <ele>64</ele>
        <time>2013-12-22T13:03:14Z</time>
      </trkpt>
      <trkpt lat="44.82393" lon="-0.41175">
        <ele>63</ele>
        <time>2013-12-22T13:03:21Z</time>
      </trkpt>
      <trkpt lat="44.82406" lon="-0.41154">
        <ele>63</ele>
        <time>2013-12-22T13:03:26Z</time>
      </trkpt>
      <trkpt lat="44.82418" lon="-0.41131">
        <ele>63</ele>
        <time>2013-12-22T13:03:31Z</time>
      </trkpt>
      <trkpt lat="44.8242" lon="-0.41127">
        <ele>63</ele>
        <time>2013-12-22T13:03:32Z</time>
      </trkpt>
      <trkpt lat="44.82422" lon="-0.41123">
        <ele>64</ele>
        <time>2013-12-22T13:03:33Z</time>
      </trkpt>
      <trkpt lat="44.82424" lon="-0.4112">
        <ele>64</ele>
        <time>2013-12-22T13:03:34Z</time>
      </trkpt>
      <trkpt lat="44.82427" lon="-0.41116">
        <ele>64</ele>
        <time>2013-12-22T13:03:35Z</time>
      </trkpt>
      <trkpt lat="44.82444" lon="-0.41091">
        <ele>66</ele>
        <time>2013-12-22T13:03:41Z</time>
      </trkpt>
      <trkpt lat="44.82456" lon="-0.41064">
        <ele>67</ele>
        <time>2013-12-22T13:03:47Z</time>
      </trkpt>
      <trkpt lat="44.8247" lon="-0.41018">
        <ele>67</ele>
        <time>2013-12-22T13:03:57Z</time>
      </trkpt>
      <trkpt lat="44.82472" lon="-0.41011">
        <ele>67</ele>
        <time>2013-12-22T13:04:00Z</time>
      </trkpt>
      <trkpt lat="44.82473" lon="-0.41003">
        <ele>66</ele>
        <time>2013-12-22T13:04:03Z</time>
      </trkpt>
      <trkpt lat="44.82479" lon="-0.40979">
        <ele>65</ele>
        <time>2013-12-22T13:04:09Z</time>
      </trkpt>
      <trkpt lat="44.82487" lon="-0.40942">
        <ele>64</ele>
        <time>2013-12-22T13:04:15Z</time>
      </trkpt>
      <trkpt lat="44.82491" lon="-0.4093">
        <ele>64</ele>
        <time>2013-12-22T13:04:17Z</time>
      </trkpt>
      <trkpt lat="44.82506" lon="-0.40885">
        <ele>63</ele>
        <time>2013-12-22T13:04:26Z</time>
      </trkpt>
      <trkpt lat="44.82519" lon="-0.4086">
        <ele>63</ele>
        <time>2013-12-22T13:04:33Z</time>
      </trkpt>
      <trkpt lat="44.82536" lon="-0.40839">
        <ele>62</ele>
        <time>2013-12-22T13:04:40Z</time>
      </trkpt>
      <trkpt lat="44.8254" lon="-0.40828">
        <ele>62</ele>
        <time>2013-12-22T13:04:42Z</time>
      </trkpt>
      <trkpt lat="44.82551" lon="-0.40814">
        <ele>61</ele>
        <time>2013-12-22T13:04:45Z</time>
      </trkpt>
      <trkpt lat="44.82558" lon="-0.40786">
        <ele>59</ele>
        <time>2013-12-22T13:04:49Z</time>
      </trkpt>
      <trkpt lat="44.82557" lon="-0.4078">
        <ele>59</ele>
        <time>2013-12-22T13:04:50Z</time>
      </trkpt>
      <trkpt lat="44.82551" lon="-0.40747">
        <ele>59</ele>
        <time>2013-12-22T13:04:57Z</time>
      </trkpt>
      <trkpt lat="44.82539" lon="-0.40722">
        <ele>59</ele>
        <time>2013-12-22T13:05:04Z</time>
      </trkpt>
      <trkpt lat="44.82534" lon="-0.40703">
        <ele>59</ele>
        <time>2013-12-22T13:05:09Z</time>
      </trkpt>
      <trkpt lat="44.82533" lon="-0.407">
        <ele>59</ele>
        <time>2013-12-22T13:05:10Z</time>
      </trkpt>
      <trkpt lat="44.82535" lon="-0.40684">
        <ele>60</ele>
        <time>2013-12-22T13:05:17Z</time>
      </trkpt>
      <trkpt lat="44.82537" lon="-0.40674">
        <ele>60</ele>
        <time>2013-12-22T13:05:22Z</time>
      </trkpt>
      <trkpt lat="44.82538" lon="-0.4067">
        <ele>60</ele>
        <time>2013-12-22T13:05:24Z</time>
      </trkpt>
      <trkpt lat="44.82542" lon="-0.4066">
        <ele>60</ele>
        <time>2013-12-22T13:05:28Z</time>
      </trkpt>
      <trkpt lat="44.82548" lon="-0.40649">
        <ele>61</ele>
        <time>2013-12-22T13:05:33Z</time>
      </trkpt>
      <trkpt lat="44.82558" lon="-0.40628">
        <ele>62</ele>
        <time>2013-12-22T13:05:41Z</time>
      </trkpt>
      <trkpt lat="44.82566" lon="-0.40614">
        <ele>62</ele>
        <time>2013-12-22T13:05:47Z</time>
      </trkpt>
      <trkpt lat="44.8258" lon="-0.40588">
        <ele>64</ele>
        <time>2013-12-22T13:05:55Z</time>
      </trkpt>
      <trkpt lat="44.82583" lon="-0.4058">
        <ele>64</ele>
        <time>2013-12-22T13:05:57Z</time>
      </trkpt>
      <trkpt lat="44.82587" lon="-0.40569">
        <ele>65</ele>
        <time>2013-12-22T13:06:01Z</time>
      </trkpt>
      <trkpt lat="44.82589" lon="-0.40539">
        <ele>66</ele>
        <time>2013-12-22T13:06:09Z</time>
      </trkpt>
      <trkpt lat="44.82589" lon="-0.40523">
        <ele>67</ele>
        <time>2013-12-22T13:06:15Z</time>
      </trkpt>
      <trkpt lat="44.82587" lon="-0.40512">
        <ele>67</ele>
        <time>2013-12-22T13:06:20Z</time>
      </trkpt>
      <trkpt lat="44.82588" lon="-0.40506">
        <ele>68</ele>
        <time>2013-12-22T13:06:23Z</time>
      </trkpt>
      <trkpt lat="44.82585" lon="-0.40492">
        <ele>69</ele>
        <time>2013-12-22T13:06:30Z</time>
      </trkpt>
      <trkpt lat="44.82584" lon="-0.40473">
        <ele>70</ele>
        <time>2013-12-22T13:06:38Z</time>
      </trkpt>
      <trkpt lat="44.82584" lon="-0.40453">
        <ele>70</ele>
        <time>2013-12-22T13:06:46Z</time>
      </trkpt>
      <trkpt lat="44.82584" lon="-0.40436">
        <ele>71</ele>
        <time>2013-12-22T13:06:52Z</time>
      </trkpt>
      <trkpt lat="44.82586" lon="-0.4042">
        <ele>72</ele>
        <time>2013-12-22T13:06:58Z</time>
      </trkpt>
      <trkpt lat="44.82587" lon="-0.40399">
        <ele>72</ele>
        <time>2013-12-22T13:07:05Z</time>
      </trkpt>
      <trkpt lat="44.8259" lon="-0.40373">
        <ele>73</ele>
        <time>2013-12-22T13:07:12Z</time>
      </trkpt>
      <trkpt lat="44.82595" lon="-0.40343">
        <ele>73</ele>
        <time>2013-12-22T13:07:21Z</time>
      </trkpt>
      <trkpt lat="44.82598" lon="-0.4032">
        <ele>74</ele>
        <time>2013-12-22T13:07:29Z</time>
      </trkpt>
      <trkpt lat="44.82598" lon="-0.40298">
        <ele>74</ele>
        <time>2013-12-22T13:07:37Z</time>
      </trkpt>
      <trkpt lat="44.82598" lon="-0.40279">
        <ele>74</ele>
        <time>2013-12-22T13:07:44Z</time>
      </trkpt>
      <trkpt lat="44.82597" lon="-0.40259">
        <ele>76</ele>
        <time>2013-12-22T13:07:51Z</time>
      </trkpt>
      <trkpt lat="44.82596" lon="-0.40245">
        <ele>76</ele>
        <time>2013-12-22T13:07:57Z</time>
      </trkpt>
      <trkpt lat="44.82597" lon="-0.40221">
        <ele>78</ele>
        <time>2013-12-22T13:08:05Z</time>
      </trkpt>
      <trkpt lat="44.82595" lon="-0.40185">
        <ele>79</ele>
        <time>2013-12-22T13:08:14Z</time>
      </trkpt>
      <trkpt lat="44.82596" lon="-0.40151">
        <ele>80</ele>
        <time>2013-12-22T13:08:22Z</time>
      </trkpt>
      <trkpt lat="44.826" lon="-0.40125">
        <ele>81</ele>
        <time>2013-12-22T13:08:29Z</time>
      </trkpt>
      <trkpt lat="44.82611" lon="-0.40099">
        <ele>83</ele>
        <time>2013-12-22T13:08:38Z</time>
      </trkpt>
      <trkpt lat="44.82624" lon="-0.40089">
        <ele>84</ele>
        <time>2013-12-22T13:08:45Z</time>
      </trkpt>
      <trkpt lat="44.82639" lon="-0.4007">
        <ele>85</ele>
        <time>2013-12-22T13:08:53Z</time>
      </trkpt>
      <trkpt lat="44.82652" lon="-0.4005">
        <ele>86</ele>
        <time>2013-12-22T13:09:00Z</time>
      </trkpt>
      <trkpt lat="44.82669" lon="-0.40022">
        <ele>87</ele>
        <time>2013-12-22T13:09:09Z</time>
      </trkpt>
      <trkpt lat="44.82681" lon="-0.39992">
        <ele>87</ele>
        <time>2013-12-22T13:09:17Z</time>
      </trkpt>
      <trkpt lat="44.82695" lon="-0.39972">
        <ele>87</ele>
        <time>2013-12-22T13:09:23Z</time>
      </trkpt>
      <trkpt lat="44.82716" lon="-0.3995">
        <ele>88</ele>
        <time>2013-12-22T13:09:31Z</time>
      </trkpt>
      <trkpt lat="44.82739" lon="-0.39928">
        <ele>88</ele>
        <time>2013-12-22T13:09:39Z</time>
      </trkpt>
      <trkpt lat="44.82754" lon="-0.39915">
        <ele>88</ele>
        <time>2013-12-22T13:09:44Z</time>
      </trkpt>
      <trkpt lat="44.82778" lon="-0.39895">
        <ele>89</ele>
        <time>2013-12-22T13:09:51Z</time>
      </trkpt>
      <trkpt lat="44.8281" lon="-0.39865">
        <ele>90</ele>
        <time>2013-12-22T13:10:01Z</time>
      </trkpt>
      <trkpt lat="44.82843" lon="-0.39831">
        <ele>90</ele>
        <time>2013-12-22T13:10:12Z</time>
      </trkpt>
      <trkpt lat="44.82866" lon="-0.39807">
        <ele>91</ele>
        <time>2013-12-22T13:10:20Z</time>
      </trkpt>
      <trkpt lat="44.82886" lon="-0.39786">
        <ele>91</ele>
        <time>2013-12-22T13:10:28Z</time>
      </trkpt>
      <trkpt lat="44.829" lon="-0.39772">
        <ele>91</ele>
        <time>2013-12-22T13:10:35Z</time>
      </trkpt>
      <trkpt lat="44.829" lon="-0.39771">
        <ele>91</ele>
        <time>2013-12-22T13:10:39Z</time>
      </trkpt>
      <trkpt lat="44.82901" lon="-0.39771">
        <ele>91</ele>
        <time>2013-12-22T13:10:47Z</time>
      </trkpt>
      <trkpt lat="44.82901" lon="-0.39771">
        <ele>91</ele>
        <time>2013-12-22T13:10:59Z</time>
      </trkpt>
      <trkpt lat="44.82901" lon="-0.39772">
        <ele>91</ele>
        <time>2013-12-22T13:11:14Z</time>
      </trkpt>
      <trkpt lat="44.82901" lon="-0.39771">
        <ele>91</ele>
        <time>2013-12-22T13:11:21Z</time>
      </trkpt>
      <trkpt lat="44.82901" lon="-0.39762">
        <ele>91</ele>
        <time>2013-12-22T13:11:28Z</time>
      </trkpt>
      <trkpt lat="44.829" lon="-0.39761">
        <ele>91</ele>
        <time>2013-12-22T13:11:29Z</time>
      </trkpt>
      <trkpt lat="44.82896" lon="-0.39755">
        <ele>91</ele>
        <time>2013-12-22T13:11:33Z</time>
      </trkpt>
      <trkpt lat="44.82885" lon="-0.39742">
        <ele>91</ele>
        <time>2013-12-22T13:11:40Z</time>
      </trkpt>
      <trkpt lat="44.82869" lon="-0.39726">
        <ele>91</ele>
        <time>2013-12-22T13:11:46Z</time>
      </trkpt>
      <trkpt lat="44.82841" lon="-0.3969">
        <ele>90</ele>
        <time>2013-12-22T13:11:54Z</time>
      </trkpt>
      <trkpt lat="44.82809" lon="-0.39649">
        <ele>88</ele>
        <time>2013-12-22T13:12:02Z</time>
      </trkpt>
      <trkpt lat="44.82785" lon="-0.39614">
        <ele>87</ele>
        <time>2013-12-22T13:12:08Z</time>
      </trkpt>
      <trkpt lat="44.82778" lon="-0.39601">
        <ele>87</ele>
        <time>2013-12-22T13:12:10Z</time>
      </trkpt>
      <trkpt lat="44.82775" lon="-0.39597">
        <ele>87</ele>
        <time>2013-12-22T13:12:11Z</time>
      </trkpt>
      <trkpt lat="44.82774" lon="-0.39593">
        <ele>87</ele>
        <time>2013-12-22T13:12:12Z</time>
      </trkpt>
      <trkpt lat="44.82773" lon="-0.39589">
        <ele>87</ele>
        <time>2013-12-22T13:12:13Z</time>
      </trkpt>
      <trkpt lat="44.82772" lon="-0.39585">
        <ele>87</ele>
        <time>2013-12-22T13:12:14Z</time>
      </trkpt>
      <trkpt lat="44.82774" lon="-0.39581">
        <ele>87</ele>
        <time>2013-12-22T13:12:15Z</time>
      </trkpt>
      <trkpt lat="44.82776" lon="-0.3958">
        <ele>87</ele>
        <time>2013-12-22T13:12:16Z</time>
      </trkpt>
      <trkpt lat="44.82779" lon="-0.3958">
        <ele>87</ele>
        <time>2013-12-22T13:12:17Z</time>
      </trkpt>
      <trkpt lat="44.82807" lon="-0.3959">
        <ele>88</ele>
        <time>2013-12-22T13:12:26Z</time>
      </trkpt>
      <trkpt lat="44.82837" lon="-0.39596">
        <ele>89</ele>
        <time>2013-12-22T13:12:34Z</time>
      </trkpt>
      <trkpt lat="44.82872" lon="-0.39599">
        <ele>89</ele>
        <time>2013-12-22T13:12:43Z</time>
      </trkpt>
      <trkpt lat="44.82898" lon="-0.396">
        <ele>90</ele>
        <time>2013-12-22T13:12:50Z</time>
      </trkpt>
      <trkpt lat="44.829" lon="-0.39597">
        <ele>90</ele>
        <time>2013-12-22T13:12:51Z</time>
      </trkpt>
      <trkpt lat="44.829" lon="-0.39595">
        <ele>90</ele>
        <time>2013-12-22T13:12:52Z</time>
      </trkpt>
      <trkpt lat="44.82899" lon="-0.39591">
        <ele>90</ele>
        <time>2013-12-22T13:12:53Z</time>
      </trkpt>
      <trkpt lat="44.82897" lon="-0.39588">
        <ele>90</ele>
        <time>2013-12-22T13:12:54Z</time>
      </trkpt>
      <trkpt lat="44.82896" lon="-0.39585">
        <ele>90</ele>
        <time>2013-12-22T13:12:55Z</time>
      </trkpt>
      <trkpt lat="44.82895" lon="-0.39581">
        <ele>90</ele>
        <time>2013-12-22T13:12:56Z</time>
      </trkpt>
      <trkpt lat="44.82894" lon="-0.39577">
        <ele>90</ele>
        <time>2013-12-22T13:12:57Z</time>
      </trkpt>
      <trkpt lat="44.82886" lon="-0.39546">
        <ele>91</ele>
        <time>2013-12-22T13:13:05Z</time>
      </trkpt>
      <trkpt lat="44.82873" lon="-0.3952">
        <ele>91</ele>
        <time>2013-12-22T13:13:12Z</time>
      </trkpt>
      <trkpt lat="44.82851" lon="-0.39478">
        <ele>93</ele>
        <time>2013-12-22T13:13:22Z</time>
      </trkpt>
      <trkpt lat="44.82833" lon="-0.39446">
        <ele>93</ele>
        <time>2013-12-22T13:13:30Z</time>
      </trkpt>
      <trkpt lat="44.82808" lon="-0.39403">
        <ele>92</ele>
        <time>2013-12-22T13:13:40Z</time>
      </trkpt>
      <trkpt lat="44.82801" lon="-0.39389">
        <ele>92</ele>
        <time>2013-12-22T13:13:43Z</time>
      </trkpt>
      <trkpt lat="44.8279" lon="-0.39358">
        <ele>93</ele>
        <time>2013-12-22T13:13:49Z</time>
      </trkpt>
      <trkpt lat="44.82773" lon="-0.39313">
        <ele>93</ele>
        <time>2013-12-22T13:13:58Z</time>
      </trkpt>
      <trkpt lat="44.82766" lon="-0.39293">
        <ele>93</ele>
        <time>2013-12-22T13:14:02Z</time>
      </trkpt>
      <trkpt lat="44.8275" lon="-0.39238">
        <ele>92</ele>
        <time>2013-12-22T13:14:11Z</time>
      </trkpt>
      <trkpt lat="44.82743" lon="-0.39217">
        <ele>91</ele>
        <time>2013-12-22T13:14:14Z</time>
      </trkpt>
      <trkpt lat="44.8274" lon="-0.3921">
        <ele>91</ele>
        <time>2013-12-22T13:14:15Z</time>
      </trkpt>
      <trkpt lat="44.82738" lon="-0.39202">
        <ele>91</ele>
        <time>2013-12-22T13:14:16Z</time>
      </trkpt>
      <trkpt lat="44.82721" lon="-0.39146">
        <ele>88</ele>
        <time>2013-12-22T13:14:23Z</time>
      </trkpt>
      <trkpt lat="44.82714" lon="-0.39116">
        <ele>88</ele>
        <time>2013-12-22T13:14:27Z</time>
      </trkpt>
      <trkpt lat="44.82711" lon="-0.39064">
        <ele>89</ele>
        <time>2013-12-22T13:14:34Z</time>
      </trkpt>
      <trkpt lat="44.82712" lon="-0.3903">
        <ele>90</ele>
        <time>2013-12-22T13:14:39Z</time>
      </trkpt>
      <trkpt lat="44.82713" lon="-0.39009">
        <ele>91</ele>
        <time>2013-12-22T13:14:42Z</time>
      </trkpt>
      <trkpt lat="44.82713" lon="-0.39004">
        <ele>91</ele>
        <time>2013-12-22T13:14:43Z</time>
      </trkpt>
      <trkpt lat="44.82714" lon="-0.38998">
        <ele>91</ele>
        <time>2013-12-22T13:14:44Z</time>
      </trkpt>
      <trkpt lat="44.82715" lon="-0.38992">
        <ele>91</ele>
        <time>2013-12-22T13:14:45Z</time>
      </trkpt>
      <trkpt lat="44.82715" lon="-0.38953">
        <ele>92</ele>
        <time>2013-12-22T13:14:51Z</time>
      </trkpt>
      <trkpt lat="44.82715" lon="-0.38938">
        <ele>91</ele>
        <time>2013-12-22T13:14:53Z</time>
      </trkpt>
      <trkpt lat="44.82714" lon="-0.38884">
        <ele>89</ele>
        <time>2013-12-22T13:15:01Z</time>
      </trkpt>
      <trkpt lat="44.82702" lon="-0.38819">
        <ele>86</ele>
        <time>2013-12-22T13:15:09Z</time>
      </trkpt>
      <trkpt lat="44.82689" lon="-0.38754">
        <ele>84</ele>
        <time>2013-12-22T13:15:16Z</time>
      </trkpt>
      <trkpt lat="44.82676" lon="-0.3869">
        <ele>81</ele>
        <time>2013-12-22T13:15:22Z</time>
      </trkpt>
      <trkpt lat="44.82659" lon="-0.38607">
        <ele>78</ele>
        <time>2013-12-22T13:15:30Z</time>
      </trkpt>
      <trkpt lat="44.82652" lon="-0.3857">
        <ele>77</ele>
        <time>2013-12-22T13:15:35Z</time>
      </trkpt>
      <trkpt lat="44.82645" lon="-0.38536">
        <ele>76</ele>
        <time>2013-12-22T13:15:42Z</time>
      </trkpt>
      <trkpt lat="44.82641" lon="-0.38509">
        <ele>76</ele>
        <time>2013-12-22T13:15:47Z</time>
      </trkpt>
      <trkpt lat="44.8264" lon="-0.38478">
        <ele>75</ele>
        <time>2013-12-22T13:15:53Z</time>
      </trkpt>
      <trkpt lat="44.82639" lon="-0.38446">
        <ele>74</ele>
        <time>2013-12-22T13:15:59Z</time>
      </trkpt>
      <trkpt lat="44.82639" lon="-0.38441">
        <ele>74</ele>
        <time>2013-12-22T13:16:00Z</time>
      </trkpt>
      <trkpt lat="44.82631" lon="-0.38409">
        <ele>72</ele>
        <time>2013-12-22T13:16:06Z</time>
      </trkpt>
      <trkpt lat="44.82617" lon="-0.38381">
        <ele>70</ele>
        <time>2013-12-22T13:16:13Z</time>
      </trkpt>
      <trkpt lat="44.82603" lon="-0.38356">
        <ele>67</ele>
        <time>2013-12-22T13:16:19Z</time>
      </trkpt>
      <trkpt lat="44.82597" lon="-0.38343">
        <ele>66</ele>
        <time>2013-12-22T13:16:22Z</time>
      </trkpt>
      <trkpt lat="44.82587" lon="-0.38324">
        <ele>64</ele>
        <time>2013-12-22T13:16:26Z</time>
      </trkpt>
      <trkpt lat="44.82571" lon="-0.38291">
        <ele>62</ele>
        <time>2013-12-22T13:16:33Z</time>
      </trkpt>
      <trkpt lat="44.8257" lon="-0.38272">
        <ele>62</ele>
        <time>2013-12-22T13:16:38Z</time>
      </trkpt>
      <trkpt lat="44.82571" lon="-0.38252">
        <ele>62</ele>
        <time>2013-12-22T13:16:43Z</time>
      </trkpt>
      <trkpt lat="44.82571" lon="-0.3824">
        <ele>62</ele>
        <time>2013-12-22T13:16:46Z</time>
      </trkpt>
      <trkpt lat="44.82573" lon="-0.38213">
        <ele>63</ele>
        <time>2013-12-22T13:16:54Z</time>
      </trkpt>
      <trkpt lat="44.82573" lon="-0.38206">
        <ele>63</ele>
        <time>2013-12-22T13:16:56Z</time>
      </trkpt>
      <trkpt lat="44.82571" lon="-0.38192">
        <ele>63</ele>
        <time>2013-12-22T13:17:02Z</time>
      </trkpt>
      <trkpt lat="44.8257" lon="-0.38189">
        <ele>63</ele>
        <time>2013-12-22T13:17:08Z</time>
      </trkpt>
      <trkpt lat="44.82568" lon="-0.38182">
        <ele>64</ele>
        <time>2013-12-22T13:17:12Z</time>
      </trkpt>
      <trkpt lat="44.82563" lon="-0.38164">
        <ele>64</ele>
        <time>2013-12-22T13:17:17Z</time>
      </trkpt>
      <trkpt lat="44.82555" lon="-0.38142">
        <ele>65</ele>
        <time>2013-12-22T13:17:24Z</time>
      </trkpt>
      <trkpt lat="44.82549" lon="-0.38131">
        <ele>65</ele>
        <time>2013-12-22T13:17:29Z</time>
      </trkpt>
      <trkpt lat="44.8254" lon="-0.38117">
        <ele>66</ele>
        <time>2013-12-22T13:17:35Z</time>
      </trkpt>
      <trkpt lat="44.82539" lon="-0.38115">
        <ele>67</ele>
        <time>2013-12-22T13:17:36Z</time>
      </trkpt>
      <trkpt lat="44.82534" lon="-0.38097">
        <ele>67</ele>
        <time>2013-12-22T13:17:44Z</time>
      </trkpt>
      <trkpt lat="44.82534" lon="-0.38095">
        <ele>68</ele>
        <time>2013-12-22T13:17:45Z</time>
      </trkpt>
      <trkpt lat="44.82534" lon="-0.38078">
        <ele>68</ele>
        <time>2013-12-22T13:17:52Z</time>
      </trkpt>
      <trkpt lat="44.82531" lon="-0.38066">
        <ele>69</ele>
        <time>2013-12-22T13:17:58Z</time>
      </trkpt>
      <trkpt lat="44.82533" lon="-0.38062">
        <ele>68</ele>
        <time>2013-12-22T13:18:06Z</time>
      </trkpt>
      <trkpt lat="44.82532" lon="-0.38054">
        <ele>69</ele>
        <time>2013-12-22T13:18:11Z</time>
      </trkpt>
      <trkpt lat="44.8253" lon="-0.38047">
        <ele>69</ele>
        <time>2013-12-22T13:18:19Z</time>
      </trkpt>
      <trkpt lat="44.8253" lon="-0.38042">
        <ele>69</ele>
        <time>2013-12-22T13:18:22Z</time>
      </trkpt>
      <trkpt lat="44.82526" lon="-0.38026">
        <ele>69</ele>
        <time>2013-12-22T13:18:30Z</time>
      </trkpt>
      <trkpt lat="44.82525" lon="-0.38017">
        <ele>69</ele>
        <time>2013-12-22T13:18:35Z</time>
      </trkpt>
      <trkpt lat="44.82517" lon="-0.38">
        <ele>70</ele>
        <time>2013-12-22T13:18:45Z</time>
      </trkpt>
      <trkpt lat="44.82512" lon="-0.37992">
        <ele>70</ele>
        <time>2013-12-22T13:18:51Z</time>
      </trkpt>
      <trkpt lat="44.82511" lon="-0.37987">
        <ele>70</ele>
        <time>2013-12-22T13:18:57Z</time>
      </trkpt>
      <trkpt lat="44.8251" lon="-0.37984">
        <ele>70</ele>
        <time>2013-12-22T13:18:58Z</time>
      </trkpt>
      <trkpt lat="44.82503" lon="-0.37968">
        <ele>70</ele>
        <time>2013-12-22T13:19:05Z</time>
      </trkpt>
      <trkpt lat="44.8249" lon="-0.37952">
        <ele>71</ele>
        <time>2013-12-22T13:19:11Z</time>
      </trkpt>
      <trkpt lat="44.82477" lon="-0.37938">
        <ele>72</ele>
        <time>2013-12-22T13:19:17Z</time>
      </trkpt>
      <trkpt lat="44.82461" lon="-0.37917">
        <ele>72</ele>
        <time>2013-12-22T13:19:24Z</time>
      </trkpt>
      <trkpt lat="44.82458" lon="-0.37912">
        <ele>72</ele>
        <time>2013-12-22T13:19:26Z</time>
      </trkpt>
      <trkpt lat="44.8246" lon="-0.37906">
        <ele>72</ele>
        <time>2013-12-22T13:19:33Z</time>
      </trkpt>
      <trkpt lat="44.82459" lon="-0.37905">
        <ele>72</ele>
        <time>2013-12-22T13:19:43Z</time>
      </trkpt>
      <trkpt lat="44.82459" lon="-0.37906">
        <ele>72</ele>
        <time>2013-12-22T13:19:55Z</time>
      </trkpt>
      <trkpt lat="44.8246" lon="-0.37906">
        <ele>72</ele>
        <time>2013-12-22T13:20:13Z</time>
      </trkpt>
      <trkpt lat="44.8246" lon="-0.37906">
        <ele>72</ele>
        <time>2013-12-22T13:20:21Z</time>
      </trkpt>
      <trkpt lat="44.8246" lon="-0.37906">
        <ele>72</ele>
        <time>2013-12-22T13:20:30Z</time>
      </trkpt>
      <trkpt lat="44.8246" lon="-0.37906">
        <ele>72</ele>
        <time>2013-12-22T13:20:42Z</time>
      </trkpt>
      <trkpt lat="44.82461" lon="-0.37905">
        <ele>72</ele>
        <time>2013-12-22T13:20:53Z</time>
      </trkpt>
      <trkpt lat="44.82466" lon="-0.37898">
        <ele>71</ele>
        <time>2013-12-22T13:20:57Z</time>
      </trkpt>
      <trkpt lat="44.82484" lon="-0.37889">
        <ele>70</ele>
        <time>2013-12-22T13:21:04Z</time>
      </trkpt>
      <trkpt lat="44.82506" lon="-0.37873">
        <ele>68</ele>
        <time>2013-12-22T13:21:11Z</time>
      </trkpt>
      <trkpt lat="44.82533" lon="-0.37836">
        <ele>66</ele>
        <time>2013-12-22T13:21:19Z</time>
      </trkpt>
      <trkpt lat="44.82545" lon="-0.37822">
        <ele>65</ele>
        <time>2013-12-22T13:21:22Z</time>
      </trkpt>
      <trkpt lat="44.82549" lon="-0.37817">
        <ele>65</ele>
        <time>2013-12-22T13:21:23Z</time>
      </trkpt>
      <trkpt lat="44.82581" lon="-0.37789">
        <ele>61</ele>
        <time>2013-12-22T13:21:29Z</time>
      </trkpt>
      <trkpt lat="44.82589" lon="-0.37785">
        <ele>60</ele>
        <time>2013-12-22T13:21:30Z</time>
      </trkpt>
      <trkpt lat="44.82605" lon="-0.37779">
        <ele>59</ele>
        <time>2013-12-22T13:21:32Z</time>
      </trkpt>
      <trkpt lat="44.82648" lon="-0.37768">
        <ele>56</ele>
        <time>2013-12-22T13:21:38Z</time>
      </trkpt>
      <trkpt lat="44.82656" lon="-0.37764">
        <ele>56</ele>
        <time>2013-12-22T13:21:42Z</time>
      </trkpt>
      <trkpt lat="44.82656" lon="-0.37762">
        <ele>56</ele>
        <time>2013-12-22T13:21:43Z</time>
      </trkpt>
      <trkpt lat="44.82651" lon="-0.37747">
        <ele>56</ele>
        <time>2013-12-22T13:21:48Z</time>
      </trkpt>
      <trkpt lat="44.8265" lon="-0.37744">
        <ele>56</ele>
        <time>2013-12-22T13:21:49Z</time>
      </trkpt>
      <trkpt lat="44.82648" lon="-0.37735">
        <ele>56</ele>
        <time>2013-12-22T13:21:53Z</time>
      </trkpt>
      <trkpt lat="44.82632" lon="-0.37717">
        <ele>56</ele>
        <time>2013-12-22T13:22:01Z</time>
      </trkpt>
      <trkpt lat="44.82625" lon="-0.37706">
        <ele>56</ele>
        <time>2013-12-22T13:22:05Z</time>
      </trkpt>
      <trkpt lat="44.8261" lon="-0.37683">
        <ele>55</ele>
        <time>2013-12-22T13:22:12Z</time>
      </trkpt>
      <trkpt lat="44.82608" lon="-0.37676">
        <ele>55</ele>
        <time>2013-12-22T13:22:14Z</time>
      </trkpt>
      <trkpt lat="44.82601" lon="-0.3765">
        <ele>55</ele>
        <time>2013-12-22T13:22:20Z</time>
      </trkpt>
      <trkpt lat="44.82592" lon="-0.37617">
        <ele>55</ele>
        <time>2013-12-22T13:22:27Z</time>
      </trkpt>
      <trkpt lat="44.82583" lon="-0.37581">
        <ele>55</ele>
        <time>2013-12-22T13:22:34Z</time>
      </trkpt>
      <trkpt lat="44.82571" lon="-0.3755">
        <ele>54</ele>
        <time>2013-12-22T13:22:40Z</time>
      </trkpt>
      <trkpt lat="44.82559" lon="-0.37518">
        <ele>54</ele>
        <time>2013-12-22T13:22:47Z</time>
      </trkpt>
      <trkpt lat="44.8255" lon="-0.37493">
        <ele>54</ele>
        <time>2013-12-22T13:22:52Z</time>
      </trkpt>
      <trkpt lat="44.82545" lon="-0.37453">
        <ele>54</ele>
        <time>2013-12-22T13:23:00Z</time>
      </trkpt>
      <trkpt lat="44.82547" lon="-0.37423">
        <ele>55</ele>
        <time>2013-12-22T13:23:07Z</time>
      </trkpt>
      <trkpt lat="44.82543" lon="-0.37399">
        <ele>55</ele>
        <time>2013-12-22T13:23:13Z</time>
      </trkpt>
      <trkpt lat="44.82541" lon="-0.37378">
        <ele>54</ele>
        <time>2013-12-22T13:23:19Z</time>
      </trkpt>
      <trkpt lat="44.82541" lon="-0.37365">
        <ele>55</ele>
        <time>2013-12-22T13:23:24Z</time>
      </trkpt>
      <trkpt lat="44.82538" lon="-0.37344">
        <ele>54</ele>
        <time>2013-12-22T13:23:30Z</time>
      </trkpt>
      <trkpt lat="44.82538" lon="-0.37342">
        <ele>54</ele>
        <time>2013-12-22T13:23:31Z</time>
      </trkpt>
      <trkpt lat="44.82538" lon="-0.37321">
        <ele>54</ele>
        <time>2013-12-22T13:23:38Z</time>
      </trkpt>
      <trkpt lat="44.82537" lon="-0.37297">
        <ele>54</ele>
        <time>2013-12-22T13:23:44Z</time>
      </trkpt>
      <trkpt lat="44.82534" lon="-0.37274">
        <ele>53</ele>
        <time>2013-12-22T13:23:50Z</time>
      </trkpt>
      <trkpt lat="44.82533" lon="-0.37259">
        <ele>53</ele>
        <time>2013-12-22T13:23:55Z</time>
      </trkpt>
      <trkpt lat="44.8253" lon="-0.37243">
        <ele>52</ele>
        <time>2013-12-22T13:24:00Z</time>
      </trkpt>
      <trkpt lat="44.82525" lon="-0.37225">
        <ele>52</ele>
        <time>2013-12-22T13:24:06Z</time>
      </trkpt>
      <trkpt lat="44.82521" lon="-0.37213">
        <ele>52</ele>
        <time>2013-12-22T13:24:12Z</time>
      </trkpt>
      <trkpt lat="44.82516" lon="-0.37204">
        <ele>52</ele>
        <time>2013-12-22T13:24:19Z</time>
      </trkpt>
      <trkpt lat="44.82513" lon="-0.37197">
        <ele>52</ele>
        <time>2013-12-22T13:24:25Z</time>
      </trkpt>
      <trkpt lat="44.82511" lon="-0.37188">
        <ele>52</ele>
        <time>2013-12-22T13:24:32Z</time>
      </trkpt>
      <trkpt lat="44.82506" lon="-0.37182">
        <ele>52</ele>
        <time>2013-12-22T13:24:39Z</time>
      </trkpt>
      <trkpt lat="44.82503" lon="-0.37176">
        <ele>51</ele>
        <time>2013-12-22T13:24:47Z</time>
      </trkpt>
      <trkpt lat="44.82501" lon="-0.37172">
        <ele>51</ele>
        <time>2013-12-22T13:24:53Z</time>
      </trkpt>
      <trkpt lat="44.825" lon="-0.3717">
        <ele>51</ele>
        <time>2013-12-22T13:24:58Z</time>
      </trkpt>
      <trkpt lat="44.82497" lon="-0.37164">
        <ele>51</ele>
        <time>2013-12-22T13:25:03Z</time>
      </trkpt>
      <trkpt lat="44.82494" lon="-0.37151">
        <ele>51</ele>
        <time>2013-12-22T13:25:10Z</time>
      </trkpt>
      <trkpt lat="44.8249" lon="-0.37135">
        <ele>51</ele>
        <time>2013-12-22T13:25:15Z</time>
      </trkpt>
      <trkpt lat="44.82487" lon="-0.37129">
        <ele>51</ele>
        <time>2013-12-22T13:25:17Z</time>
      </trkpt>
      <trkpt lat="44.82483" lon="-0.37119">
        <ele>51</ele>
        <time>2013-12-22T13:25:25Z</time>
      </trkpt>
      <trkpt lat="44.8248" lon="-0.37115">
        <ele>51</ele>
        <time>2013-12-22T13:25:31Z</time>
      </trkpt>
      <trkpt lat="44.82475" lon="-0.37115">
        <ele>51</ele>
        <time>2013-12-22T13:25:36Z</time>
      </trkpt>
      <trkpt lat="44.82472" lon="-0.37116">
        <ele>51</ele>
        <time>2013-12-22T13:25:41Z</time>
      </trkpt>
      <trkpt lat="44.82456" lon="-0.37123">
        <ele>51</ele>
        <time>2013-12-22T13:25:48Z</time>
      </trkpt>
      <trkpt lat="44.82434" lon="-0.37131">
        <ele>52</ele>
        <time>2013-12-22T13:25:55Z</time>
      </trkpt>
      <trkpt lat="44.82416" lon="-0.37138">
        <ele>53</ele>
        <time>2013-12-22T13:26:01Z</time>
      </trkpt>
      <trkpt lat="44.82401" lon="-0.37136">
        <ele>53</ele>
        <time>2013-12-22T13:26:06Z</time>
      </trkpt>
      <trkpt lat="44.82391" lon="-0.37136">
        <ele>54</ele>
        <time>2013-12-22T13:26:12Z</time>
      </trkpt>
      <trkpt lat="44.82385" lon="-0.37137">
        <ele>54</ele>
        <time>2013-12-22T13:26:18Z</time>
      </trkpt>
      <trkpt lat="44.82381" lon="-0.37135">
        <ele>54</ele>
        <time>2013-12-22T13:26:25Z</time>
      </trkpt>
      <trkpt lat="44.8238" lon="-0.37132">
        <ele>54</ele>
        <time>2013-12-22T13:26:31Z</time>
      </trkpt>
      <trkpt lat="44.82376" lon="-0.37131">
        <ele>54</ele>
        <time>2013-12-22T13:26:36Z</time>
      </trkpt>
      <trkpt lat="44.8237" lon="-0.37126">
        <ele>54</ele>
        <time>2013-12-22T13:26:40Z</time>
      </trkpt>
      <trkpt lat="44.82364" lon="-0.37121">
        <ele>54</ele>
        <time>2013-12-22T13:26:45Z</time>
      </trkpt>
      <trkpt lat="44.8235" lon="-0.37121">
        <ele>55</ele>
        <time>2013-12-22T13:26:53Z</time>
      </trkpt>
      <trkpt lat="44.82332" lon="-0.37121">
        <ele>56</ele>
        <time>2013-12-22T13:27:00Z</time>
      </trkpt>
      <trkpt lat="44.82322" lon="-0.37125">
        <ele>56</ele>
        <time>2013-12-22T13:27:05Z</time>
      </trkpt>
      <trkpt lat="44.82312" lon="-0.37125">
        <ele>56</ele>
        <time>2013-12-22T13:27:11Z</time>
      </trkpt>
      <trkpt lat="44.82302" lon="-0.37126">
        <ele>57</ele>
        <time>2013-12-22T13:27:18Z</time>
      </trkpt>
      <trkpt lat="44.82286" lon="-0.37128">
        <ele>59</ele>
        <time>2013-12-22T13:27:26Z</time>
      </trkpt>
      <trkpt lat="44.82275" lon="-0.37129">
        <ele>59</ele>
        <time>2013-12-22T13:27:34Z</time>
      </trkpt>
      <trkpt lat="44.82266" lon="-0.37129">
        <ele>60</ele>
        <time>2013-12-22T13:27:41Z</time>
      </trkpt>
      <trkpt lat="44.82256" lon="-0.37128">
        <ele>62</ele>
        <time>2013-12-22T13:27:49Z</time>
      </trkpt>
      <trkpt lat="44.82249" lon="-0.37129">
        <ele>63</ele>
        <time>2013-12-22T13:27:56Z</time>
      </trkpt>
      <trkpt lat="44.82242" lon="-0.3713">
        <ele>64</ele>
        <time>2013-12-22T13:28:00Z</time>
      </trkpt>
      <trkpt lat="44.82229" lon="-0.37129">
        <ele>65</ele>
        <time>2013-12-22T13:28:08Z</time>
      </trkpt>
      <trkpt lat="44.82221" lon="-0.37127">
        <ele>67</ele>
        <time>2013-12-22T13:28:15Z</time>
      </trkpt>
      <trkpt lat="44.82213" lon="-0.37125">
        <ele>68</ele>
        <time>2013-12-22T13:28:21Z</time>
      </trkpt>
      <trkpt lat="44.82203" lon="-0.37126">
        <ele>69</ele>
        <time>2013-12-22T13:28:28Z</time>
      </trkpt>
      <trkpt lat="44.82193" lon="-0.37126">
        <ele>70</ele>
        <time>2013-12-22T13:28:35Z</time>
      </trkpt>
      <trkpt lat="44.82185" lon="-0.37124">
        <ele>72</ele>
        <time>2013-12-22T13:28:41Z</time>
      </trkpt>
      <trkpt lat="44.82179" lon="-0.37123">
        <ele>72</ele>
        <time>2013-12-22T13:28:45Z</time>
      </trkpt>
      <trkpt lat="44.82168" lon="-0.37124">
        <ele>73</ele>
        <time>2013-12-22T13:28:54Z</time>
      </trkpt>
      <trkpt lat="44.82158" lon="-0.37124">
        <ele>74</ele>
        <time>2013-12-22T13:29:02Z</time>
      </trkpt>
      <trkpt lat="44.8215" lon="-0.37123">
        <ele>75</ele>
        <time>2013-12-22T13:29:08Z</time>
      </trkpt>
      <trkpt lat="44.82142" lon="-0.37123">
        <ele>75</ele>
        <time>2013-12-22T13:29:15Z</time>
      </trkpt>
      <trkpt lat="44.82135" lon="-0.37122">
        <ele>76</ele>
        <time>2013-12-22T13:29:21Z</time>
      </trkpt>
      <trkpt lat="44.82127" lon="-0.3712">
        <ele>77</ele>
        <time>2013-12-22T13:29:29Z</time>
      </trkpt>
      <trkpt lat="44.8212" lon="-0.37118">
        <ele>78</ele>
        <time>2013-12-22T13:29:36Z</time>
      </trkpt>
      <trkpt lat="44.82113" lon="-0.37116">
        <ele>79</ele>
        <time>2013-12-22T13:29:42Z</time>
      </trkpt>
      <trkpt lat="44.82101" lon="-0.37117">
        <ele>80</ele>
        <time>2013-12-22T13:29:51Z</time>
      </trkpt>
      <trkpt lat="44.82098" lon="-0.37117">
        <ele>80</ele>
        <time>2013-12-22T13:29:54Z</time>
      </trkpt>
      <trkpt lat="44.82088" lon="-0.37115">
        <ele>82</ele>
        <time>2013-12-22T13:30:02Z</time>
      </trkpt>
      <trkpt lat="44.82084" lon="-0.37114">
        <ele>82</ele>
        <time>2013-12-22T13:30:06Z</time>
      </trkpt>
      <trkpt lat="44.82079" lon="-0.37112">
        <ele>83</ele>
        <time>2013-12-22T13:30:10Z</time>
      </trkpt>
      <trkpt lat="44.82077" lon="-0.3711">
        <ele>83</ele>
        <time>2013-12-22T13:30:16Z</time>
      </trkpt>
      <trkpt lat="44.82074" lon="-0.37105">
        <ele>84</ele>
        <time>2013-12-22T13:30:25Z</time>
      </trkpt>
      <trkpt lat="44.82073" lon="-0.37096">
        <ele>85</ele>
        <time>2013-12-22T13:30:32Z</time>
      </trkpt>
      <trkpt lat="44.82072" lon="-0.37082">
        <ele>86</ele>
        <time>2013-12-22T13:30:39Z</time>
      </trkpt>
      <trkpt lat="44.82068" lon="-0.37072">
        <ele>87</ele>
        <time>2013-12-22T13:30:46Z</time>
      </trkpt>
      <trkpt lat="44.82068" lon="-0.37072">
        <ele>87</ele>
        <time>2013-12-22T13:30:47Z</time>
      </trkpt>
      <trkpt lat="44.82056" lon="-0.37069">
        <ele>88</ele>
        <time>2013-12-22T13:30:57Z</time>
      </trkpt>
      <trkpt lat="44.82046" lon="-0.37069">
        <ele>88</ele>
        <time>2013-12-22T13:31:05Z</time>
      </trkpt>
      <trkpt lat="44.82038" lon="-0.37068">
        <ele>88</ele>
        <time>2013-12-22T13:31:13Z</time>
      </trkpt>
      <trkpt lat="44.82033" lon="-0.37069">
        <ele>89</ele>
        <time>2013-12-22T13:31:18Z</time>
      </trkpt>
      <trkpt lat="44.82024" lon="-0.37068">
        <ele>89</ele>
        <time>2013-12-22T13:31:26Z</time>
      </trkpt>
      <trkpt lat="44.82015" lon="-0.3707">
        <ele>89</ele>
        <time>2013-12-22T13:31:34Z</time>
      </trkpt>
      <trkpt lat="44.82011" lon="-0.37072">
        <ele>89</ele>
        <time>2013-12-22T13:31:37Z</time>
      </trkpt>
      <trkpt lat="44.82001" lon="-0.3708">
        <ele>90</ele>
        <time>2013-12-22T13:31:45Z</time>
      </trkpt>
      <trkpt lat="44.81989" lon="-0.37088">
        <ele>91</ele>
        <time>2013-12-22T13:31:54Z</time>
      </trkpt>
      <trkpt lat="44.81978" lon="-0.37091">
        <ele>91</ele>
        <time>2013-12-22T13:32:02Z</time>
      </trkpt>
      <trkpt lat="44.81967" lon="-0.37096">
        <ele>91</ele>
        <time>2013-12-22T13:32:11Z</time>
      </trkpt>
      <trkpt lat="44.81961" lon="-0.37098">
        <ele>91</ele>
        <time>2013-12-22T13:32:18Z</time>
      </trkpt>
      <trkpt lat="44.81961" lon="-0.37098">
        <ele>91</ele>
        <time>2013-12-22T13:32:25Z</time>
      </trkpt>
      <trkpt lat="44.81961" lon="-0.37099">
        <ele>91</ele>
        <time>2013-12-22T13:32:39Z</time>
      </trkpt>
      <trkpt lat="44.81961" lon="-0.37099">
        <ele>91</ele>
        <time>2013-12-22T13:32:55Z</time>
      </trkpt>
      <trkpt lat="44.81961" lon="-0.37099">
        <ele>91</ele>
        <time>2013-12-22T13:33:06Z</time>
      </trkpt>
      <trkpt lat="44.81961" lon="-0.371">
        <ele>91</ele>
        <time>2013-12-22T13:33:23Z</time>
      </trkpt>
      <trkpt lat="44.81961" lon="-0.371">
        <ele>91</ele>
        <time>2013-12-22T13:33:41Z</time>
      </trkpt>
      <trkpt lat="44.81961" lon="-0.371">
        <ele>91</ele>
        <time>2013-12-22T13:34:00Z</time>
      </trkpt>
      <trkpt lat="44.81961" lon="-0.371">
        <ele>91</ele>
        <time>2013-12-22T13:34:18Z</time>
      </trkpt>
      <trkpt lat="44.81962" lon="-0.37099">
        <ele>91</ele>
        <time>2013-12-22T13:34:35Z</time>
      </trkpt>
      <trkpt lat="44.81961" lon="-0.37099">
        <ele>91</ele>
        <time>2013-12-22T13:34:50Z</time>
      </trkpt>
      <trkpt lat="44.81961" lon="-0.37099">
        <ele>91</ele>
        <time>2013-12-22T13:35:03Z</time>
      </trkpt>
      <trkpt lat="44.81961" lon="-0.37099">
        <ele>91</ele>
        <time>2013-12-22T13:35:20Z</time>
      </trkpt>
      <trkpt lat="44.81961" lon="-0.37099">
        <ele>91</ele>
        <time>2013-12-22T13:35:37Z</time>
      </trkpt>
      <trkpt lat="44.81961" lon="-0.37099">
        <ele>91</ele>
        <time>2013-12-22T13:35:56Z</time>
      </trkpt>
      <trkpt lat="44.8196" lon="-0.37099">
        <ele>91</ele>
        <time>2013-12-22T13:36:07Z</time>
      </trkpt>
      <trkpt lat="44.8196" lon="-0.37099">
        <ele>91</ele>
        <time>2013-12-22T13:36:18Z</time>
      </trkpt>
      <trkpt lat="44.81962" lon="-0.37094">
        <ele>91</ele>
        <time>2013-12-22T13:36:23Z</time>
      </trkpt>
      <trkpt lat="44.81963" lon="-0.37094">
        <ele>91</ele>
        <time>2013-12-22T13:36:24Z</time>
      </trkpt>
      <trkpt lat="44.81969" lon="-0.37094">
        <ele>91</ele>
        <time>2013-12-22T13:36:28Z</time>
      </trkpt>
      <trkpt lat="44.81984" lon="-0.37085">
        <ele>91</ele>
        <time>2013-12-22T13:36:36Z</time>
      </trkpt>
      <trkpt lat="44.81991" lon="-0.3708">
        <ele>90</ele>
        <time>2013-12-22T13:36:42Z</time>
      </trkpt>
      <trkpt lat="44.81992" lon="-0.3708">
        <ele>90</ele>
        <time>2013-12-22T13:36:47Z</time>
      </trkpt>
      <trkpt lat="44.81992" lon="-0.3708">
        <ele>90</ele>
        <time>2013-12-22T13:36:56Z</time>
      </trkpt>
      <trkpt lat="44.81992" lon="-0.3708">
        <ele>90</ele>
        <time>2013-12-22T13:37:10Z</time>
      </trkpt>
      <trkpt lat="44.81993" lon="-0.37081">
        <ele>90</ele>
        <time>2013-12-22T13:37:23Z</time>
      </trkpt>
      <trkpt lat="44.81993" lon="-0.3708">
        <ele>90</ele>
        <time>2013-12-22T13:37:39Z</time>
      </trkpt>
      <trkpt lat="44.81992" lon="-0.3708">
        <ele>90</ele>
        <time>2013-12-22T13:37:56Z</time>
      </trkpt>
      <trkpt lat="44.81992" lon="-0.3708">
        <ele>90</ele>
        <time>2013-12-22T13:38:12Z</time>
      </trkpt>
      <trkpt lat="44.81992" lon="-0.3708">
        <ele>90</ele>
        <time>2013-12-22T13:38:26Z</time>
      </trkpt>
      <trkpt lat="44.81992" lon="-0.3708">
        <ele>90</ele>
        <time>2013-12-22T13:38:44Z</time>
      </trkpt>
      <trkpt lat="44.81992" lon="-0.3708">
        <ele>90</ele>
        <time>2013-12-22T13:38:59Z</time>
      </trkpt>
      <trkpt lat="44.81992" lon="-0.3708">
        <ele>90</ele>
        <time>2013-12-22T13:39:16Z</time>
      </trkpt>
      <trkpt lat="44.81992" lon="-0.37079">
        <ele>90</ele>
        <time>2013-12-22T13:39:32Z</time>
      </trkpt>
      <trkpt lat="44.81993" lon="-0.3708">
        <ele>90</ele>
        <time>2013-12-22T13:39:48Z</time>
      </trkpt>
      <trkpt lat="44.81993" lon="-0.3708">
        <ele>90</ele>
        <time>2013-12-22T13:40:08Z</time>
      </trkpt>
      <trkpt lat="44.81993" lon="-0.3708">
        <ele>90</ele>
        <time>2013-12-22T13:40:30Z</time>
      </trkpt>
      <trkpt lat="44.81992" lon="-0.3708">
        <ele>90</ele>
        <time>2013-12-22T13:40:43Z</time>
      </trkpt>
      <trkpt lat="44.81989" lon="-0.37081">
        <ele>90</ele>
        <time>2013-12-22T13:40:50Z</time>
      </trkpt>
      <trkpt lat="44.81988" lon="-0.37081">
        <ele>91</ele>
        <time>2013-12-22T13:40:57Z</time>
      </trkpt>
      <trkpt lat="44.81989" lon="-0.37081">
        <ele>91</ele>
        <time>2013-12-22T13:41:01Z</time>
      </trkpt>
      <trkpt lat="44.81988" lon="-0.37083">
        <ele>91</ele>
        <time>2013-12-22T13:41:03Z</time>
      </trkpt>
      <trkpt lat="44.81972" lon="-0.37093">
        <ele>91</ele>
        <time>2013-12-22T13:41:13Z</time>
      </trkpt>
      <trkpt lat="44.81951" lon="-0.371">
        <ele>91</ele>
        <time>2013-12-22T13:41:21Z</time>
      </trkpt>
      <trkpt lat="44.81934" lon="-0.37105">
        <ele>92</ele>
        <time>2013-12-22T13:41:27Z</time>
      </trkpt>
      <trkpt lat="44.81913" lon="-0.37108">
        <ele>93</ele>
        <time>2013-12-22T13:41:34Z</time>
      </trkpt>
      <trkpt lat="44.8189" lon="-0.37115">
        <ele>94</ele>
        <time>2013-12-22T13:41:43Z</time>
      </trkpt>
      <trkpt lat="44.81865" lon="-0.37121">
        <ele>95</ele>
        <time>2013-12-22T13:41:52Z</time>
      </trkpt>
      <trkpt lat="44.81839" lon="-0.37127">
        <ele>96</ele>
        <time>2013-12-22T13:42:01Z</time>
      </trkpt>
      <trkpt lat="44.81832" lon="-0.37117">
        <ele>96</ele>
        <time>2013-12-22T13:42:05Z</time>
      </trkpt>
      <trkpt lat="44.81842" lon="-0.37077">
        <ele>95</ele>
        <time>2013-12-22T13:42:14Z</time>
      </trkpt>
      <trkpt lat="44.81854" lon="-0.37029">
        <ele>94</ele>
        <time>2013-12-22T13:42:22Z</time>
      </trkpt>
      <trkpt lat="44.81865" lon="-0.36985">
        <ele>92</ele>
        <time>2013-12-22T13:42:28Z</time>
      </trkpt>
      <trkpt lat="44.81874" lon="-0.36952">
        <ele>90</ele>
        <time>2013-12-22T13:42:32Z</time>
      </trkpt>
      <trkpt lat="44.81891" lon="-0.3688">
        <ele>84</ele>
        <time>2013-12-22T13:42:39Z</time>
      </trkpt>
      <trkpt lat="44.81908" lon="-0.36795">
        <ele>78</ele>
        <time>2013-12-22T13:42:46Z</time>
      </trkpt>
      <trkpt lat="44.81914" lon="-0.36714">
        <ele>74</ele>
        <time>2013-12-22T13:42:52Z</time>
      </trkpt>
      <trkpt lat="44.81915" lon="-0.36633">
        <ele>71</ele>
        <time>2013-12-22T13:42:58Z</time>
      </trkpt>
      <trkpt lat="44.81914" lon="-0.36554">
        <ele>69</ele>
        <time>2013-12-22T13:43:05Z</time>
      </trkpt>
      <trkpt lat="44.81906" lon="-0.36505">
        <ele>68</ele>
        <time>2013-12-22T13:43:11Z</time>
      </trkpt>
      <trkpt lat="44.8189" lon="-0.36446">
        <ele>66</ele>
        <time>2013-12-22T13:43:19Z</time>
      </trkpt>
      <trkpt lat="44.81877" lon="-0.3639">
        <ele>66</ele>
        <time>2013-12-22T13:43:26Z</time>
      </trkpt>
      <trkpt lat="44.81872" lon="-0.36348">
        <ele>65</ele>
        <time>2013-12-22T13:43:31Z</time>
      </trkpt>
      <trkpt lat="44.81871" lon="-0.36304">
        <ele>65</ele>
        <time>2013-12-22T13:43:36Z</time>
      </trkpt>
      <trkpt lat="44.81871" lon="-0.36249">
        <ele>64</ele>
        <time>2013-12-22T13:43:42Z</time>
      </trkpt>
      <trkpt lat="44.81862" lon="-0.36198">
        <ele>63</ele>
        <time>2013-12-22T13:43:49Z</time>
      </trkpt>
      <trkpt lat="44.81855" lon="-0.36175">
        <ele>63</ele>
        <time>2013-12-22T13:43:55Z</time>
      </trkpt>
      <trkpt lat="44.81834" lon="-0.36177">
        <ele>63</ele>
        <time>2013-12-22T13:44:03Z</time>
      </trkpt>
      <trkpt lat="44.81812" lon="-0.36173">
        <ele>62</ele>
        <time>2013-12-22T13:44:11Z</time>
      </trkpt>
      <trkpt lat="44.81797" lon="-0.36164">
        <ele>61</ele>
        <time>2013-12-22T13:44:15Z</time>
      </trkpt>
      <trkpt lat="44.81784" lon="-0.36151">
        <ele>60</ele>
        <time>2013-12-22T13:44:18Z</time>
      </trkpt>
      <trkpt lat="44.81774" lon="-0.36143">
        <ele>59</ele>
        <time>2013-12-22T13:44:20Z</time>
      </trkpt>
      <trkpt lat="44.81769" lon="-0.3614">
        <ele>59</ele>
        <time>2013-12-22T13:44:21Z</time>
      </trkpt>
      <trkpt lat="44.81764" lon="-0.36138">
        <ele>58</ele>
        <time>2013-12-22T13:44:22Z</time>
      </trkpt>
      <trkpt lat="44.81758" lon="-0.36137">
        <ele>58</ele>
        <time>2013-12-22T13:44:23Z</time>
      </trkpt>
      <trkpt lat="44.81752" lon="-0.36136">
        <ele>57</ele>
        <time>2013-12-22T13:44:24Z</time>
      </trkpt>
      <trkpt lat="44.81746" lon="-0.36137">
        <ele>57</ele>
        <time>2013-12-22T13:44:25Z</time>
      </trkpt>
      <trkpt lat="44.8174" lon="-0.36139">
        <ele>57</ele>
        <time>2013-12-22T13:44:26Z</time>
      </trkpt>
      <trkpt lat="44.81734" lon="-0.36141">
        <ele>56</ele>
        <time>2013-12-22T13:44:27Z</time>
      </trkpt>
      <trkpt lat="44.81729" lon="-0.36144">
        <ele>56</ele>
        <time>2013-12-22T13:44:28Z</time>
      </trkpt>
      <trkpt lat="44.8171" lon="-0.36156">
        <ele>54</ele>
        <time>2013-12-22T13:44:33Z</time>
      </trkpt>
      <trkpt lat="44.81699" lon="-0.36163">
        <ele>53</ele>
        <time>2013-12-22T13:44:38Z</time>
      </trkpt>
      <trkpt lat="44.81697" lon="-0.36163">
        <ele>53</ele>
        <time>2013-12-22T13:44:39Z</time>
      </trkpt>
      <trkpt lat="44.81693" lon="-0.36162">
        <ele>53</ele>
        <time>2013-12-22T13:44:46Z</time>
      </trkpt>
      <trkpt lat="44.81691" lon="-0.36159">
        <ele>53</ele>
        <time>2013-12-22T13:44:52Z</time>
      </trkpt>
      <trkpt lat="44.8169" lon="-0.36157">
        <ele>52</ele>
        <time>2013-12-22T13:44:57Z</time>
      </trkpt>
      <trkpt lat="44.81688" lon="-0.36151">
        <ele>52</ele>
        <time>2013-12-22T13:45:01Z</time>
      </trkpt>
      <trkpt lat="44.81688" lon="-0.36149">
        <ele>52</ele>
        <time>2013-12-22T13:45:02Z</time>
      </trkpt>
      <trkpt lat="44.81688" lon="-0.36148">
        <ele>52</ele>
        <time>2013-12-22T13:45:03Z</time>
      </trkpt>
      <trkpt lat="44.81689" lon="-0.36146">
        <ele>52</ele>
        <time>2013-12-22T13:45:04Z</time>
      </trkpt>
      <trkpt lat="44.8169" lon="-0.36145">
        <ele>52</ele>
        <time>2013-12-22T13:45:05Z</time>
      </trkpt>
      <trkpt lat="44.81697" lon="-0.36134">
        <ele>53</ele>
        <time>2013-12-22T13:45:13Z</time>
      </trkpt>
      <trkpt lat="44.81698" lon="-0.3613">
        <ele>53</ele>
        <time>2013-12-22T13:45:15Z</time>
      </trkpt>
      <trkpt lat="44.81699" lon="-0.36129">
        <ele>53</ele>
        <time>2013-12-22T13:45:16Z</time>
      </trkpt>
      <trkpt lat="44.81701" lon="-0.3613">
        <ele>53</ele>
        <time>2013-12-22T13:45:18Z</time>
      </trkpt>
      <trkpt lat="44.81702" lon="-0.36131">
        <ele>53</ele>
        <time>2013-12-22T13:45:19Z</time>
      </trkpt>
      <trkpt lat="44.81702" lon="-0.36133">
        <ele>53</ele>
        <time>2013-12-22T13:45:20Z</time>
      </trkpt>
      <trkpt lat="44.81703" lon="-0.36134">
        <ele>53</ele>
        <time>2013-12-22T13:45:21Z</time>
      </trkpt>
      <trkpt lat="44.81707" lon="-0.36139">
        <ele>54</ele>
        <time>2013-12-22T13:45:24Z</time>
      </trkpt>
      <trkpt lat="44.81715" lon="-0.36129">
        <ele>54</ele>
        <time>2013-12-22T13:45:32Z</time>
      </trkpt>
      <trkpt lat="44.81723" lon="-0.36111">
        <ele>54</ele>
        <time>2013-12-22T13:45:39Z</time>
      </trkpt>
      <trkpt lat="44.81729" lon="-0.36101">
        <ele>54</ele>
        <time>2013-12-22T13:45:44Z</time>
      </trkpt>
      <trkpt lat="44.81737" lon="-0.36081">
        <ele>54</ele>
        <time>2013-12-22T13:45:50Z</time>
      </trkpt>
      <trkpt lat="44.81746" lon="-0.36058">
        <ele>53</ele>
        <time>2013-12-22T13:45:57Z</time>
      </trkpt>
      <trkpt lat="44.81756" lon="-0.36033">
        <ele>52</ele>
        <time>2013-12-22T13:46:03Z</time>
      </trkpt>
      <trkpt lat="44.81763" lon="-0.36016">
        <ele>51</ele>
        <time>2013-12-22T13:46:08Z</time>
      </trkpt>
      <trkpt lat="44.81771" lon="-0.35998">
        <ele>51</ele>
        <time>2013-12-22T13:46:14Z</time>
      </trkpt>
      <trkpt lat="44.81784" lon="-0.35975">
        <ele>52</ele>
        <time>2013-12-22T13:46:21Z</time>
      </trkpt>
      <trkpt lat="44.818" lon="-0.35966">
        <ele>53</ele>
        <time>2013-12-22T13:46:28Z</time>
      </trkpt>
      <trkpt lat="44.81806" lon="-0.35963">
        <ele>53</ele>
        <time>2013-12-22T13:46:31Z</time>
      </trkpt>
      <trkpt lat="44.81824" lon="-0.35953">
        <ele>55</ele>
        <time>2013-12-22T13:46:40Z</time>
      </trkpt>
      <trkpt lat="44.81844" lon="-0.35939">
        <ele>56</ele>
        <time>2013-12-22T13:46:50Z</time>
      </trkpt>
      <trkpt lat="44.81862" lon="-0.3592">
        <ele>55</ele>
        <time>2013-12-22T13:47:00Z</time>
      </trkpt>
      <trkpt lat="44.81881" lon="-0.35897">
        <ele>54</ele>
        <time>2013-12-22T13:47:09Z</time>
      </trkpt>
      <trkpt lat="44.8189" lon="-0.35871">
        <ele>52</ele>
        <time>2013-12-22T13:47:15Z</time>
      </trkpt>
      <trkpt lat="44.81903" lon="-0.3583">
        <ele>50</ele>
        <time>2013-12-22T13:47:23Z</time>
      </trkpt>
      <trkpt lat="44.81923" lon="-0.35797">
        <ele>50</ele>
        <time>2013-12-22T13:47:31Z</time>
      </trkpt>
      <trkpt lat="44.81933" lon="-0.35784">
        <ele>50</ele>
        <time>2013-12-22T13:47:37Z</time>
      </trkpt>
      <trkpt lat="44.8194" lon="-0.35775">
        <ele>50</ele>
        <time>2013-12-22T13:47:43Z</time>
      </trkpt>
      <trkpt lat="44.8195" lon="-0.35759">
        <ele>51</ele>
        <time>2013-12-22T13:47:49Z</time>
      </trkpt>
      <trkpt lat="44.8196" lon="-0.35742">
        <ele>52</ele>
        <time>2013-12-22T13:47:56Z</time>
      </trkpt>
      <trkpt lat="44.8197" lon="-0.35723">
        <ele>52</ele>
        <time>2013-12-22T13:48:02Z</time>
      </trkpt>
      <trkpt lat="44.81977" lon="-0.35712">
        <ele>53</ele>
        <time>2013-12-22T13:48:07Z</time>
      </trkpt>
      <trkpt lat="44.81991" lon="-0.35695">
        <ele>53</ele>
        <time>2013-12-22T13:48:14Z</time>
      </trkpt>
      <trkpt lat="44.81998" lon="-0.35679">
        <ele>53</ele>
        <time>2013-12-22T13:48:19Z</time>
      </trkpt>
      <trkpt lat="44.82008" lon="-0.35651">
        <ele>53</ele>
        <time>2013-12-22T13:48:27Z</time>
      </trkpt>
      <trkpt lat="44.82023" lon="-0.35635">
        <ele>54</ele>
        <time>2013-12-22T13:48:34Z</time>
      </trkpt>
      <trkpt lat="44.82035" lon="-0.35622">
        <ele>54</ele>
        <time>2013-12-22T13:48:39Z</time>
      </trkpt>
      <trkpt lat="44.82049" lon="-0.356">
        <ele>53</ele>
        <time>2013-12-22T13:48:46Z</time>
      </trkpt>
      <trkpt lat="44.82066" lon="-0.35582">
        <ele>53</ele>
        <time>2013-12-22T13:48:53Z</time>
      </trkpt>
      <trkpt lat="44.82085" lon="-0.35563">
        <ele>53</ele>
        <time>2013-12-22T13:49:00Z</time>
      </trkpt>
      <trkpt lat="44.82095" lon="-0.35555">
        <ele>53</ele>
        <time>2013-12-22T13:49:05Z</time>
      </trkpt>
      <trkpt lat="44.82096" lon="-0.35552">
        <ele>53</ele>
        <time>2013-12-22T13:49:11Z</time>
      </trkpt>
      <trkpt lat="44.82098" lon="-0.35551">
        <ele>53</ele>
        <time>2013-12-22T13:49:20Z</time>
      </trkpt>
      <trkpt lat="44.82098" lon="-0.35551">
        <ele>53</ele>
        <time>2013-12-22T13:49:28Z</time>
      </trkpt>
      <trkpt lat="44.82098" lon="-0.3555">
        <ele>53</ele>
        <time>2013-12-22T13:49:41Z</time>
      </trkpt>
      <trkpt lat="44.82098" lon="-0.3555">
        <ele>53</ele>
        <time>2013-12-22T13:49:53Z</time>
      </trkpt>
      <trkpt lat="44.82098" lon="-0.3555">
        <ele>53</ele>
        <time>2013-12-22T13:50:06Z</time>
      </trkpt>
      <trkpt lat="44.821" lon="-0.35549">
        <ele>53</ele>
        <time>2013-12-22T13:50:08Z</time>
      </trkpt>
      <trkpt lat="44.82095" lon="-0.35531">
        <ele>53</ele>
        <time>2013-12-22T13:50:14Z</time>
      </trkpt>
      <trkpt lat="44.8208" lon="-0.355">
        <ele>53</ele>
        <time>2013-12-22T13:50:22Z</time>
      </trkpt>
      <trkpt lat="44.8206" lon="-0.35464">
        <ele>52</ele>
        <time>2013-12-22T13:50:30Z</time>
      </trkpt>
      <trkpt lat="44.82033" lon="-0.35423">
        <ele>52</ele>
        <time>2013-12-22T13:50:40Z</time>
      </trkpt>
      <trkpt lat="44.82016" lon="-0.35397">
        <ele>51</ele>
        <time>2013-12-22T13:50:47Z</time>
      </trkpt>
      <trkpt lat="44.81993" lon="-0.35376">
        <ele>50</ele>
        <time>2013-12-22T13:50:55Z</time>
      </trkpt>
      <trkpt lat="44.81983" lon="-0.35365">
        <ele>49</ele>
        <time>2013-12-22T13:51:00Z</time>
      </trkpt>
      <trkpt lat="44.81972" lon="-0.35356">
        <ele>48</ele>
        <time>2013-12-22T13:51:06Z</time>
      </trkpt>
      <trkpt lat="44.81964" lon="-0.35348">
        <ele>48</ele>
        <time>2013-12-22T13:51:11Z</time>
      </trkpt>
      <trkpt lat="44.81961" lon="-0.35342">
        <ele>48</ele>
        <time>2013-12-22T13:51:16Z</time>
      </trkpt>
      <trkpt lat="44.81958" lon="-0.35339">
        <ele>48</ele>
        <time>2013-12-22T13:51:23Z</time>
      </trkpt>
      <trkpt lat="44.81953" lon="-0.35333">
        <ele>47</ele>
        <time>2013-12-22T13:51:30Z</time>
      </trkpt>
      <trkpt lat="44.81944" lon="-0.35322">
        <ele>46</ele>
        <time>2013-12-22T13:51:39Z</time>
      </trkpt>
      <trkpt lat="44.8194" lon="-0.35317">
        <ele>46</ele>
        <time>2013-12-22T13:51:45Z</time>
      </trkpt>
      <trkpt lat="44.81939" lon="-0.35316">
        <ele>46</ele>
        <time>2013-12-22T13:51:47Z</time>
      </trkpt>
      <trkpt lat="44.81938" lon="-0.35315">
        <ele>46</ele>
        <time>2013-12-22T13:51:48Z</time>
      </trkpt>
      <trkpt lat="44.81936" lon="-0.35314">
        <ele>45</ele>
        <time>2013-12-22T13:51:49Z</time>
      </trkpt>
      <trkpt lat="44.81933" lon="-0.35312">
        <ele>45</ele>
        <time>2013-12-22T13:51:50Z</time>
      </trkpt>
      <trkpt lat="44.81931" lon="-0.3531">
        <ele>45</ele>
        <time>2013-12-22T13:51:51Z</time>
      </trkpt>
      <trkpt lat="44.81928" lon="-0.35308">
        <ele>44</ele>
        <time>2013-12-22T13:51:52Z</time>
      </trkpt>
      <trkpt lat="44.81927" lon="-0.35306">
        <ele>44</ele>
        <time>2013-12-22T13:51:53Z</time>
      </trkpt>
      <trkpt lat="44.81925" lon="-0.35303">
        <ele>43</ele>
        <time>2013-12-22T13:51:54Z</time>
      </trkpt>
      <trkpt lat="44.81922" lon="-0.353">
        <ele>43</ele>
        <time>2013-12-22T13:51:55Z</time>
      </trkpt>
      <trkpt lat="44.81907" lon="-0.35289">
        <ele>40</ele>
        <time>2013-12-22T13:52:00Z</time>
      </trkpt>
      <trkpt lat="44.81891" lon="-0.35301">
        <ele>40</ele>
        <time>2013-12-22T13:52:07Z</time>
      </trkpt>
      <trkpt lat="44.81889" lon="-0.35303">
        <ele>40</ele>
        <time>2013-12-22T13:52:08Z</time>
      </trkpt>
      <trkpt lat="44.81878" lon="-0.35321">
        <ele>40</ele>
        <time>2013-12-22T13:52:14Z</time>
      </trkpt>
      <trkpt lat="44.81875" lon="-0.35328">
        <ele>39</ele>
        <time>2013-12-22T13:52:16Z</time>
      </trkpt>
      <trkpt lat="44.81862" lon="-0.35334">
        <ele>39</ele>
        <time>2013-12-22T13:52:21Z</time>
      </trkpt>
      <trkpt lat="44.81846" lon="-0.35314">
        <ele>38</ele>
        <time>2013-12-22T13:52:29Z</time>
      </trkpt>
      <trkpt lat="44.81843" lon="-0.35304">
        <ele>38</ele>
        <time>2013-12-22T13:52:32Z</time>
      </trkpt>
      <trkpt lat="44.81835" lon="-0.3529">
        <ele>38</ele>
        <time>2013-12-22T13:52:38Z</time>
      </trkpt>
      <trkpt lat="44.81834" lon="-0.35288">
        <ele>38</ele>
        <time>2013-12-22T13:52:39Z</time>
      </trkpt>
      <trkpt lat="44.81824" lon="-0.35277">
        <ele>39</ele>
        <time>2013-12-22T13:52:46Z</time>
      </trkpt>
      <trkpt lat="44.81822" lon="-0.35274">
        <ele>39</ele>
        <time>2013-12-22T13:52:47Z</time>
      </trkpt>
      <trkpt lat="44.81821" lon="-0.35271">
        <ele>39</ele>
        <time>2013-12-22T13:52:48Z</time>
      </trkpt>
      <trkpt lat="44.81819" lon="-0.35261">
        <ele>39</ele>
        <time>2013-12-22T13:52:54Z</time>
      </trkpt>
      <trkpt lat="44.81815" lon="-0.35241">
        <ele>40</ele>
        <time>2013-12-22T13:53:00Z</time>
      </trkpt>
      <trkpt lat="44.81821" lon="-0.35221">
        <ele>39</ele>
        <time>2013-12-22T13:53:06Z</time>
      </trkpt>
      <trkpt lat="44.81825" lon="-0.35201">
        <ele>39</ele>
        <time>2013-12-22T13:53:12Z</time>
      </trkpt>
      <trkpt lat="44.81834" lon="-0.35186">
        <ele>38</ele>
        <time>2013-12-22T13:53:17Z</time>
      </trkpt>
      <trkpt lat="44.81837" lon="-0.35169">
        <ele>38</ele>
        <time>2013-12-22T13:53:21Z</time>
      </trkpt>
      <trkpt lat="44.81836" lon="-0.35156">
        <ele>38</ele>
        <time>2013-12-22T13:53:25Z</time>
      </trkpt>
      <trkpt lat="44.81833" lon="-0.35145">
        <ele>37</ele>
        <time>2013-12-22T13:53:29Z</time>
      </trkpt>
      <trkpt lat="44.81822" lon="-0.35128">
        <ele>37</ele>
        <time>2013-12-22T13:53:35Z</time>
      </trkpt>
      <trkpt lat="44.81814" lon="-0.35115">
        <ele>37</ele>
        <time>2013-12-22T13:53:40Z</time>
      </trkpt>
      <trkpt lat="44.8181" lon="-0.35105">
        <ele>37</ele>
        <time>2013-12-22T13:53:48Z</time>
      </trkpt>
      <trkpt lat="44.81809" lon="-0.35101">
        <ele>37</ele>
        <time>2013-12-22T13:53:56Z</time>
      </trkpt>
      <trkpt lat="44.81806" lon="-0.35094">
        <ele>37</ele>
        <time>2013-12-22T13:54:11Z</time>
      </trkpt>
      <trkpt lat="44.81805" lon="-0.35092">
        <ele>37</ele>
        <time>2013-12-22T13:54:22Z</time>
      </trkpt>
      <trkpt lat="44.81805" lon="-0.35092">
        <ele>37</ele>
        <time>2013-12-22T13:54:37Z</time>
      </trkpt>
      <trkpt lat="44.81805" lon="-0.35091">
        <ele>37</ele>
        <time>2013-12-22T13:54:49Z</time>
      </trkpt>
      <trkpt lat="44.81805" lon="-0.35091">
        <ele>37</ele>
        <time>2013-12-22T13:55:00Z</time>
      </trkpt>
      <trkpt lat="44.81805" lon="-0.3509">
        <ele>37</ele>
        <time>2013-12-22T13:55:18Z</time>
      </trkpt>
      <trkpt lat="44.81805" lon="-0.35089">
        <ele>37</ele>
        <time>2013-12-22T13:55:29Z</time>
      </trkpt>
      <trkpt lat="44.81804" lon="-0.35087">
        <ele>37</ele>
        <time>2013-12-22T13:55:35Z</time>
      </trkpt>
      <trkpt lat="44.81804" lon="-0.35086">
        <ele>37</ele>
        <time>2013-12-22T13:55:36Z</time>
      </trkpt>
      <trkpt lat="44.81795" lon="-0.35077">
        <ele>37</ele>
        <time>2013-12-22T13:55:41Z</time>
      </trkpt>
      <trkpt lat="44.81784" lon="-0.35067">
        <ele>37</ele>
        <time>2013-12-22T13:55:46Z</time>
      </trkpt>
      <trkpt lat="44.81766" lon="-0.35067">
        <ele>37</ele>
        <time>2013-12-22T13:55:53Z</time>
      </trkpt>
      <trkpt lat="44.81752" lon="-0.35071">
        <ele>37</ele>
        <time>2013-12-22T13:56:00Z</time>
      </trkpt>
      <trkpt lat="44.81736" lon="-0.3508">
        <ele>38</ele>
        <time>2013-12-22T13:56:07Z</time>
      </trkpt>
      <trkpt lat="44.8171" lon="-0.35093">
        <ele>38</ele>
        <time>2013-12-22T13:56:14Z</time>
      </trkpt>
      <trkpt lat="44.81687" lon="-0.35101">
        <ele>38</ele>
        <time>2013-12-22T13:56:20Z</time>
      </trkpt>
      <trkpt lat="44.81659" lon="-0.35105">
        <ele>37</ele>
        <time>2013-12-22T13:56:26Z</time>
      </trkpt>
      <trkpt lat="44.81638" lon="-0.35107">
        <ele>37</ele>
        <time>2013-12-22T13:56:31Z</time>
      </trkpt>
      <trkpt lat="44.81621" lon="-0.35107">
        <ele>37</ele>
        <time>2013-12-22T13:56:36Z</time>
      </trkpt>
      <trkpt lat="44.81612" lon="-0.3509">
        <ele>36</ele>
        <time>2013-12-22T13:56:42Z</time>
      </trkpt>
      <trkpt lat="44.81612" lon="-0.35085">
        <ele>36</ele>
        <time>2013-12-22T13:56:43Z</time>
      </trkpt>
      <trkpt lat="44.81611" lon="-0.35025">
        <ele>36</ele>
        <time>2013-12-22T13:56:54Z</time>
      </trkpt>
      <trkpt lat="44.81612" lon="-0.34988">
        <ele>38</ele>
        <time>2013-12-22T13:57:01Z</time>
      </trkpt>
      <trkpt lat="44.81618" lon="-0.34949">
        <ele>40</ele>
        <time>2013-12-22T13:57:08Z</time>
      </trkpt>
      <trkpt lat="44.81633" lon="-0.34914">
        <ele>42</ele>
        <time>2013-12-22T13:57:16Z</time>
      </trkpt>
      <trkpt lat="44.81647" lon="-0.34883">
        <ele>43</ele>
        <time>2013-12-22T13:57:24Z</time>
      </trkpt>
      <trkpt lat="44.81659" lon="-0.34857">
        <ele>44</ele>
        <time>2013-12-22T13:57:30Z</time>
      </trkpt>
      <trkpt lat="44.81658" lon="-0.34852">
        <ele>44</ele>
        <time>2013-12-22T13:57:31Z</time>
      </trkpt>
      <trkpt lat="44.81651" lon="-0.34849">
        <ele>45</ele>
        <time>2013-12-22T13:57:35Z</time>
      </trkpt>
      <trkpt lat="44.81643" lon="-0.34857">
        <ele>46</ele>
        <time>2013-12-22T13:57:40Z</time>
      </trkpt>
      <trkpt lat="44.81622" lon="-0.34865">
        <ele>47</ele>
        <time>2013-12-22T13:57:49Z</time>
      </trkpt>
      <trkpt lat="44.8161" lon="-0.34868">
        <ele>48</ele>
        <time>2013-12-22T13:57:54Z</time>
      </trkpt>
      <trkpt lat="44.81593" lon="-0.34871">
        <ele>49</ele>
        <time>2013-12-22T13:58:00Z</time>
      </trkpt>
      <trkpt lat="44.81573" lon="-0.34875">
        <ele>48</ele>
        <time>2013-12-22T13:58:06Z</time>
      </trkpt>
      <trkpt lat="44.81552" lon="-0.34873">
        <ele>48</ele>
        <time>2013-12-22T13:58:12Z</time>
      </trkpt>
      <trkpt lat="44.81535" lon="-0.34852">
        <ele>48</ele>
        <time>2013-12-22T13:58:18Z</time>
      </trkpt>
      <trkpt lat="44.81513" lon="-0.34832">
        <ele>48</ele>
        <time>2013-12-22T13:58:25Z</time>
      </trkpt>
      <trkpt lat="44.81488" lon="-0.3482">
        <ele>47</ele>
        <time>2013-12-22T13:58:32Z</time>
      </trkpt>
      <trkpt lat="44.81469" lon="-0.3481">
        <ele>46</ele>
        <time>2013-12-22T13:58:37Z</time>
      </trkpt>
      <trkpt lat="44.81456" lon="-0.34801">
        <ele>46</ele>
        <time>2013-12-22T13:58:40Z</time>
      </trkpt>
      <trkpt lat="44.81448" lon="-0.34796">
        <ele>46</ele>
        <time>2013-12-22T13:58:42Z</time>
      </trkpt>
      <trkpt lat="44.81413" lon="-0.34771">
        <ele>46</ele>
        <time>2013-12-22T13:58:50Z</time>
      </trkpt>
      <trkpt lat="44.8139" lon="-0.34759">
        <ele>47</ele>
        <time>2013-12-22T13:58:56Z</time>
      </trkpt>
      <trkpt lat="44.81356" lon="-0.34743">
        <ele>48</ele>
        <time>2013-12-22T13:59:04Z</time>
      </trkpt>
      <trkpt lat="44.81335" lon="-0.34743">
        <ele>48</ele>
        <time>2013-12-22T13:59:09Z</time>
      </trkpt>
      <trkpt lat="44.81318" lon="-0.34744">
        <ele>47</ele>
        <time>2013-12-22T13:59:13Z</time>
      </trkpt>
      <trkpt lat="44.81288" lon="-0.34738">
        <ele>48</ele>
        <time>2013-12-22T13:59:20Z</time>
      </trkpt>
      <trkpt lat="44.81267" lon="-0.34725">
        <ele>48</ele>
        <time>2013-12-22T13:59:25Z</time>
      </trkpt>
      <trkpt lat="44.81264" lon="-0.34722">
        <ele>48</ele>
        <time>2013-12-22T13:59:26Z</time>
      </trkpt>
      <trkpt lat="44.81254" lon="-0.34708">
        <ele>49</ele>
        <time>2013-12-22T13:59:29Z</time>
      </trkpt>
      <trkpt lat="44.81241" lon="-0.34689">
        <ele>49</ele>
        <time>2013-12-22T13:59:34Z</time>
      </trkpt>
      <trkpt lat="44.81222" lon="-0.34667">
        <ele>49</ele>
        <time>2013-12-22T13:59:40Z</time>
      </trkpt>
      <trkpt lat="44.81206" lon="-0.34657">
        <ele>49</ele>
        <time>2013-12-22T13:59:45Z</time>
      </trkpt>
      <trkpt lat="44.81192" lon="-0.34646">
        <ele>49</ele>
        <time>2013-12-22T13:59:48Z</time>
      </trkpt>
      <trkpt lat="44.81188" lon="-0.34643">
        <ele>49</ele>
        <time>2013-12-22T13:59:49Z</time>
      </trkpt>
      <trkpt lat="44.81183" lon="-0.3464">
        <ele>49</ele>
        <time>2013-12-22T13:59:50Z</time>
      </trkpt>
      <trkpt lat="44.81178" lon="-0.34637">
        <ele>49</ele>
        <time>2013-12-22T13:59:51Z</time>
      </trkpt>
      <trkpt lat="44.81174" lon="-0.34634">
        <ele>50</ele>
        <time>2013-12-22T13:59:52Z</time>
      </trkpt>
      <trkpt lat="44.8117" lon="-0.3463">
        <ele>50</ele>
        <time>2013-12-22T13:59:53Z</time>
      </trkpt>
      <trkpt lat="44.81148" lon="-0.34617">
        <ele>51</ele>
        <time>2013-12-22T13:59:58Z</time>
      </trkpt>
      <trkpt lat="44.81128" lon="-0.34606">
        <ele>51</ele>
        <time>2013-12-22T14:00:03Z</time>
      </trkpt>
      <trkpt lat="44.81115" lon="-0.34599">
        <ele>51</ele>
        <time>2013-12-22T14:00:06Z</time>
      </trkpt>
      <trkpt lat="44.81096" lon="-0.34587">
        <ele>52</ele>
        <time>2013-12-22T14:00:11Z</time>
      </trkpt>
      <trkpt lat="44.81088" lon="-0.34584">
        <ele>52</ele>
        <time>2013-12-22T14:00:13Z</time>
      </trkpt>
      <trkpt lat="44.81073" lon="-0.34582">
        <ele>53</ele>
        <time>2013-12-22T14:00:16Z</time>
      </trkpt>
      <trkpt lat="44.81069" lon="-0.34583">
        <ele>52</ele>
        <time>2013-12-22T14:00:17Z</time>
      </trkpt>
      <trkpt lat="44.81064" lon="-0.34582">
        <ele>52</ele>
        <time>2013-12-22T14:00:18Z</time>
      </trkpt>
      <trkpt lat="44.8106" lon="-0.34582">
        <ele>52</ele>
        <time>2013-12-22T14:00:19Z</time>
      </trkpt>
      <trkpt lat="44.81055" lon="-0.34581">
        <ele>52</ele>
        <time>2013-12-22T14:00:20Z</time>
      </trkpt>
      <trkpt lat="44.8105" lon="-0.3458">
        <ele>52</ele>
        <time>2013-12-22T14:00:21Z</time>
      </trkpt>
      <trkpt lat="44.81046" lon="-0.3458">
        <ele>52</ele>
        <time>2013-12-22T14:00:22Z</time>
      </trkpt>
      <trkpt lat="44.81025" lon="-0.34578">
        <ele>51</ele>
        <time>2013-12-22T14:00:27Z</time>
      </trkpt>
      <trkpt lat="44.81009" lon="-0.34574">
        <ele>50</ele>
        <time>2013-12-22T14:00:32Z</time>
      </trkpt>
      <trkpt lat="44.80997" lon="-0.34569">
        <ele>50</ele>
        <time>2013-12-22T14:00:37Z</time>
      </trkpt>
      <trkpt lat="44.80996" lon="-0.34567">
        <ele>50</ele>
        <time>2013-12-22T14:00:38Z</time>
      </trkpt>
      <trkpt lat="44.80995" lon="-0.34564">
        <ele>50</ele>
        <time>2013-12-22T14:00:39Z</time>
      </trkpt>
      <trkpt lat="44.80993" lon="-0.34561">
        <ele>50</ele>
        <time>2013-12-22T14:00:40Z</time>
      </trkpt>
      <trkpt lat="44.8099" lon="-0.34558">
        <ele>49</ele>
        <time>2013-12-22T14:00:41Z</time>
      </trkpt>
      <trkpt lat="44.80988" lon="-0.34554">
        <ele>49</ele>
        <time>2013-12-22T14:00:42Z</time>
      </trkpt>
      <trkpt lat="44.80984" lon="-0.34552">
        <ele>49</ele>
        <time>2013-12-22T14:00:43Z</time>
      </trkpt>
      <trkpt lat="44.80981" lon="-0.3455">
        <ele>49</ele>
        <time>2013-12-22T14:00:44Z</time>
      </trkpt>
      <trkpt lat="44.80966" lon="-0.34543">
        <ele>50</ele>
        <time>2013-12-22T14:00:48Z</time>
      </trkpt>
      <trkpt lat="44.80951" lon="-0.34533">
        <ele>51</ele>
        <time>2013-12-22T14:00:54Z</time>
      </trkpt>
      <trkpt lat="44.80942" lon="-0.3453">
        <ele>52</ele>
        <time>2013-12-22T14:01:00Z</time>
      </trkpt>
      <trkpt lat="44.80931" lon="-0.34527">
        <ele>54</ele>
        <time>2013-12-22T14:01:07Z</time>
      </trkpt>
      <trkpt lat="44.80924" lon="-0.34525">
        <ele>54</ele>
        <time>2013-12-22T14:01:11Z</time>
      </trkpt>
      <trkpt lat="44.80922" lon="-0.34524">
        <ele>54</ele>
        <time>2013-12-22T14:01:12Z</time>
      </trkpt>
      <trkpt lat="44.8092" lon="-0.34524">
        <ele>54</ele>
        <time>2013-12-22T14:01:13Z</time>
      </trkpt>
      <trkpt lat="44.80918" lon="-0.34524">
        <ele>54</ele>
        <time>2013-12-22T14:01:14Z</time>
      </trkpt>
      <trkpt lat="44.80915" lon="-0.34524">
        <ele>54</ele>
        <time>2013-12-22T14:01:15Z</time>
      </trkpt>
      <trkpt lat="44.80912" lon="-0.34523">
        <ele>54</ele>
        <time>2013-12-22T14:01:16Z</time>
      </trkpt>
      <trkpt lat="44.80909" lon="-0.34521">
        <ele>54</ele>
        <time>2013-12-22T14:01:17Z</time>
      </trkpt>
      <trkpt lat="44.80907" lon="-0.3452">
        <ele>54</ele>
        <time>2013-12-22T14:01:18Z</time>
      </trkpt>
      <trkpt lat="44.80905" lon="-0.34519">
        <ele>54</ele>
        <time>2013-12-22T14:01:19Z</time>
      </trkpt>
      <trkpt lat="44.80903" lon="-0.34518">
        <ele>54</ele>
        <time>2013-12-22T14:01:20Z</time>
      </trkpt>
      <trkpt lat="44.80901" lon="-0.34518">
        <ele>54</ele>
        <time>2013-12-22T14:01:21Z</time>
      </trkpt>
      <trkpt lat="44.80885" lon="-0.34514">
        <ele>55</ele>
        <time>2013-12-22T14:01:27Z</time>
      </trkpt>
      <trkpt lat="44.80866" lon="-0.3451">
        <ele>54</ele>
        <time>2013-12-22T14:01:34Z</time>
      </trkpt>
      <trkpt lat="44.80846" lon="-0.3451">
        <ele>54</ele>
        <time>2013-12-22T14:01:40Z</time>
      </trkpt>
      <trkpt lat="44.80813" lon="-0.3451">
        <ele>53</ele>
        <time>2013-12-22T14:01:50Z</time>
      </trkpt>
      <trkpt lat="44.80801" lon="-0.3451">
        <ele>53</ele>
        <time>2013-12-22T14:01:54Z</time>
      </trkpt>
      <trkpt lat="44.80798" lon="-0.34508">
        <ele>53</ele>
        <time>2013-12-22T14:01:55Z</time>
      </trkpt>
      <trkpt lat="44.80795" lon="-0.34506">
        <ele>53</ele>
        <time>2013-12-22T14:01:56Z</time>
      </trkpt>
      <trkpt lat="44.80793" lon="-0.34504">
        <ele>53</ele>
        <time>2013-12-22T14:01:57Z</time>
      </trkpt>
      <trkpt lat="44.8079" lon="-0.34502">
        <ele>53</ele>
        <time>2013-12-22T14:01:58Z</time>
      </trkpt>
      <trkpt lat="44.80765" lon="-0.34484">
        <ele>51</ele>
        <time>2013-12-22T14:02:07Z</time>
      </trkpt>
      <trkpt lat="44.80752" lon="-0.34472">
        <ele>51</ele>
        <time>2013-12-22T14:02:11Z</time>
      </trkpt>
      <trkpt lat="44.80749" lon="-0.34468">
        <ele>51</ele>
        <time>2013-12-22T14:02:12Z</time>
      </trkpt>
      <trkpt lat="44.80739" lon="-0.34455">
        <ele>51</ele>
        <time>2013-12-22T14:02:15Z</time>
      </trkpt>
      <trkpt lat="44.80735" lon="-0.34452">
        <ele>51</ele>
        <time>2013-12-22T14:02:16Z</time>
      </trkpt>
      <trkpt lat="44.80712" lon="-0.34436">
        <ele>52</ele>
        <time>2013-12-22T14:02:23Z</time>
      </trkpt>
      <trkpt lat="44.80702" lon="-0.34425">
        <ele>53</ele>
        <time>2013-12-22T14:02:28Z</time>
      </trkpt>
      <trkpt lat="44.80687" lon="-0.34412">
        <ele>54</ele>
        <time>2013-12-22T14:02:36Z</time>
      </trkpt>
      <trkpt lat="44.80669" lon="-0.344">
        <ele>55</ele>
        <time>2013-12-22T14:02:44Z</time>
      </trkpt>
      <trkpt lat="44.80657" lon="-0.34392">
        <ele>55</ele>
        <time>2013-12-22T14:02:51Z</time>
      </trkpt>
      <trkpt lat="44.80645" lon="-0.34379">
        <ele>55</ele>
        <time>2013-12-22T14:03:00Z</time>
      </trkpt>
      <trkpt lat="44.80642" lon="-0.34373">
        <ele>55</ele>
        <time>2013-12-22T14:03:05Z</time>
      </trkpt>
      <trkpt lat="44.80641" lon="-0.34372">
        <ele>55</ele>
        <time>2013-12-22T14:03:06Z</time>
      </trkpt>
      <trkpt lat="44.8064" lon="-0.3437">
        <ele>55</ele>
        <time>2013-12-22T14:03:07Z</time>
      </trkpt>
      <trkpt lat="44.80639" lon="-0.34369">
        <ele>55</ele>
        <time>2013-12-22T14:03:08Z</time>
      </trkpt>
      <trkpt lat="44.80639" lon="-0.34367">
        <ele>55</ele>
        <time>2013-12-22T14:03:09Z</time>
      </trkpt>
      <trkpt lat="44.80637" lon="-0.3436">
        <ele>56</ele>
        <time>2013-12-22T14:03:13Z</time>
      </trkpt>
      <trkpt lat="44.80637" lon="-0.34359">
        <ele>56</ele>
        <time>2013-12-22T14:03:14Z</time>
      </trkpt>
      <trkpt lat="44.80636" lon="-0.34358">
        <ele>56</ele>
        <time>2013-12-22T14:03:15Z</time>
      </trkpt>
      <trkpt lat="44.80634" lon="-0.34358">
        <ele>56</ele>
        <time>2013-12-22T14:03:16Z</time>
      </trkpt>
      <trkpt lat="44.80633" lon="-0.34357">
        <ele>56</ele>
        <time>2013-12-22T14:03:17Z</time>
      </trkpt>
      <trkpt lat="44.80631" lon="-0.34356">
        <ele>56</ele>
        <time>2013-12-22T14:03:19Z</time>
      </trkpt>
      <trkpt lat="44.80629" lon="-0.34352">
        <ele>56</ele>
        <time>2013-12-22T14:03:26Z</time>
      </trkpt>
      <trkpt lat="44.80629" lon="-0.34351">
        <ele>56</ele>
        <time>2013-12-22T14:03:35Z</time>
      </trkpt>
      <trkpt lat="44.80629" lon="-0.3435">
        <ele>56</ele>
        <time>2013-12-22T14:03:46Z</time>
      </trkpt>
      <trkpt lat="44.80629" lon="-0.3435">
        <ele>56</ele>
        <time>2013-12-22T14:03:57Z</time>
      </trkpt>
      <trkpt lat="44.80629" lon="-0.3435">
        <ele>56</ele>
        <time>2013-12-22T14:04:08Z</time>
      </trkpt>
      <trkpt lat="44.80629" lon="-0.3435">
        <ele>56</ele>
        <time>2013-12-22T14:04:15Z</time>
      </trkpt>
      <trkpt lat="44.80629" lon="-0.3435">
        <ele>56</ele>
        <time>2013-12-22T14:04:26Z</time>
      </trkpt>
      <trkpt lat="44.80628" lon="-0.34348">
        <ele>56</ele>
        <time>2013-12-22T14:04:31Z</time>
      </trkpt>
      <trkpt lat="44.80626" lon="-0.34345">
        <ele>56</ele>
        <time>2013-12-22T14:04:38Z</time>
      </trkpt>
      <trkpt lat="44.80625" lon="-0.34345">
        <ele>56</ele>
        <time>2013-12-22T14:04:52Z</time>
      </trkpt>
      <trkpt lat="44.80625" lon="-0.34345">
        <ele>56</ele>
        <time>2013-12-22T14:04:59Z</time>
      </trkpt>
      <trkpt lat="44.80625" lon="-0.34345">
        <ele>56</ele>
        <time>2013-12-22T14:05:11Z</time>
      </trkpt>
      <trkpt lat="44.80625" lon="-0.34345">
        <ele>56</ele>
        <time>2013-12-22T14:05:21Z</time>
      </trkpt>
      <trkpt lat="44.80625" lon="-0.34345">
        <ele>56</ele>
        <time>2013-12-22T14:05:29Z</time>
      </trkpt>
      <trkpt lat="44.80625" lon="-0.34345">
        <ele>56</ele>
        <time>2013-12-22T14:05:42Z</time>
      </trkpt>
      <trkpt lat="44.80624" lon="-0.34345">
        <ele>56</ele>
        <time>2013-12-22T14:05:54Z</time>
      </trkpt>
      <trkpt lat="44.80624" lon="-0.34346">
        <ele>56</ele>
        <time>2013-12-22T14:06:02Z</time>
      </trkpt>
      <trkpt lat="44.80624" lon="-0.34345">
        <ele>56</ele>
        <time>2013-12-22T14:06:14Z</time>
      </trkpt>
      <trkpt lat="44.80624" lon="-0.34345">
        <ele>56</ele>
        <time>2013-12-22T14:06:26Z</time>
      </trkpt>
      <trkpt lat="44.80624" lon="-0.34345">
        <ele>56</ele>
        <time>2013-12-22T14:06:36Z</time>
      </trkpt>
      <trkpt lat="44.80623" lon="-0.34345">
        <ele>56</ele>
        <time>2013-12-22T14:06:45Z</time>
      </trkpt>
      <trkpt lat="44.80622" lon="-0.34345">
        <ele>56</ele>
        <time>2013-12-22T14:06:46Z</time>
      </trkpt>
      <trkpt lat="44.80621" lon="-0.34343">
        <ele>56</ele>
        <time>2013-12-22T14:06:47Z</time>
      </trkpt>
      <trkpt lat="44.8062" lon="-0.34342">
        <ele>56</ele>
        <time>2013-12-22T14:06:48Z</time>
      </trkpt>
      <trkpt lat="44.80619" lon="-0.3434">
        <ele>56</ele>
        <time>2013-12-22T14:06:49Z</time>
      </trkpt>
      <trkpt lat="44.80618" lon="-0.34339">
        <ele>55</ele>
        <time>2013-12-22T14:06:50Z</time>
      </trkpt>
      <trkpt lat="44.80617" lon="-0.34337">
        <ele>55</ele>
        <time>2013-12-22T14:06:51Z</time>
      </trkpt>
      <trkpt lat="44.80617" lon="-0.34335">
        <ele>55</ele>
        <time>2013-12-22T14:06:52Z</time>
      </trkpt>
      <trkpt lat="44.80616" lon="-0.34334">
        <ele>55</ele>
        <time>2013-12-22T14:06:53Z</time>
      </trkpt>
      <trkpt lat="44.80615" lon="-0.34331">
        <ele>55</ele>
        <time>2013-12-22T14:06:54Z</time>
      </trkpt>
      <trkpt lat="44.80611" lon="-0.3433">
        <ele>55</ele>
        <time>2013-12-22T14:08:08Z</time>
      </trkpt>
      <trkpt lat="44.8061" lon="-0.34332">
        <ele>54</ele>
        <time>2013-12-22T14:08:09Z</time>
      </trkpt>
      <trkpt lat="44.80608" lon="-0.34333">
        <ele>54</ele>
        <time>2013-12-22T14:08:10Z</time>
      </trkpt>
      <trkpt lat="44.80607" lon="-0.34333">
        <ele>54</ele>
        <time>2013-12-22T14:08:11Z</time>
      </trkpt>
      <trkpt lat="44.80605" lon="-0.34334">
        <ele>53</ele>
        <time>2013-12-22T14:08:12Z</time>
      </trkpt>
      <trkpt lat="44.80603" lon="-0.34336">
        <ele>53</ele>
        <time>2013-12-22T14:08:13Z</time>
      </trkpt>
      <trkpt lat="44.80601" lon="-0.34339">
        <ele>53</ele>
        <time>2013-12-22T14:08:14Z</time>
      </trkpt>
      <trkpt lat="44.80601" lon="-0.34342">
        <ele>52</ele>
        <time>2013-12-22T14:08:15Z</time>
      </trkpt>
      <trkpt lat="44.806" lon="-0.34345">
        <ele>52</ele>
        <time>2013-12-22T14:08:16Z</time>
      </trkpt>
      <trkpt lat="44.806" lon="-0.34348">
        <ele>52</ele>
        <time>2013-12-22T14:08:17Z</time>
      </trkpt>
      <trkpt lat="44.80599" lon="-0.34351">
        <ele>52</ele>
        <time>2013-12-22T14:08:18Z</time>
      </trkpt>
      <trkpt lat="44.80598" lon="-0.34354">
        <ele>51</ele>
        <time>2013-12-22T14:08:19Z</time>
      </trkpt>
      <trkpt lat="44.80598" lon="-0.34357">
        <ele>51</ele>
        <time>2013-12-22T14:08:20Z</time>
      </trkpt>
      <trkpt lat="44.80596" lon="-0.34359">
        <ele>51</ele>
        <time>2013-12-22T14:08:21Z</time>
      </trkpt>
      <trkpt lat="44.80595" lon="-0.34362">
        <ele>50</ele>
        <time>2013-12-22T14:08:22Z</time>
      </trkpt>
      <trkpt lat="44.80586" lon="-0.34384">
        <ele>48</ele>
        <time>2013-12-22T14:08:28Z</time>
      </trkpt>
      <trkpt lat="44.80575" lon="-0.34407">
        <ele>45</ele>
        <time>2013-12-22T14:08:33Z</time>
      </trkpt>
      <trkpt lat="44.80562" lon="-0.34424">
        <ele>43</ele>
        <time>2013-12-22T14:08:38Z</time>
      </trkpt>
      <trkpt lat="44.80546" lon="-0.34447">
        <ele>42</ele>
        <time>2013-12-22T14:08:45Z</time>
      </trkpt>
      <trkpt lat="44.80529" lon="-0.34475">
        <ele>41</ele>
        <time>2013-12-22T14:08:53Z</time>
      </trkpt>
      <trkpt lat="44.80517" lon="-0.34501">
        <ele>41</ele>
        <time>2013-12-22T14:09:01Z</time>
      </trkpt>
      <trkpt lat="44.80513" lon="-0.34511">
        <ele>42</ele>
        <time>2013-12-22T14:09:06Z</time>
      </trkpt>
      <trkpt lat="44.8051" lon="-0.34516">
        <ele>42</ele>
        <time>2013-12-22T14:09:13Z</time>
      </trkpt>
      <trkpt lat="44.80508" lon="-0.34517">
        <ele>42</ele>
        <time>2013-12-22T14:09:20Z</time>
      </trkpt>
      <trkpt lat="44.80508" lon="-0.34517">
        <ele>42</ele>
        <time>2013-12-22T14:09:23Z</time>
      </trkpt>
      <trkpt lat="44.80503" lon="-0.3452">
        <ele>42</ele>
        <time>2013-12-22T14:09:27Z</time>
      </trkpt>
      <trkpt lat="44.805" lon="-0.34522">
        <ele>42</ele>
        <time>2013-12-22T14:09:29Z</time>
      </trkpt>
      <trkpt lat="44.80494" lon="-0.34529">
        <ele>42</ele>
        <time>2013-12-22T14:09:33Z</time>
      </trkpt>
      <trkpt lat="44.8049" lon="-0.34534">
        <ele>43</ele>
        <time>2013-12-22T14:09:35Z</time>
      </trkpt>
      <trkpt lat="44.80471" lon="-0.3455">
        <ele>43</ele>
        <time>2013-12-22T14:09:44Z</time>
      </trkpt>
      <trkpt lat="44.80459" lon="-0.34561">
        <ele>44</ele>
        <time>2013-12-22T14:09:50Z</time>
      </trkpt>
      <trkpt lat="44.80445" lon="-0.34572">
        <ele>45</ele>
        <time>2013-12-22T14:09:56Z</time>
      </trkpt>
      <trkpt lat="44.80443" lon="-0.34574">
        <ele>45</ele>
        <time>2013-12-22T14:09:57Z</time>
      </trkpt>
      <trkpt lat="44.80436" lon="-0.34586">
        <ele>45</ele>
        <time>2013-12-22T14:10:03Z</time>
      </trkpt>
      <trkpt lat="44.80436" lon="-0.34588">
        <ele>45</ele>
        <time>2013-12-22T14:10:04Z</time>
      </trkpt>
      <trkpt lat="44.80442" lon="-0.34605">
        <ele>45</ele>
        <time>2013-12-22T14:10:12Z</time>
      </trkpt>
      <trkpt lat="44.80452" lon="-0.34634">
        <ele>45</ele>
        <time>2013-12-22T14:10:20Z</time>
      </trkpt>
      <trkpt lat="44.80461" lon="-0.34656">
        <ele>45</ele>
        <time>2013-12-22T14:10:26Z</time>
      </trkpt>
      <trkpt lat="44.80473" lon="-0.34689">
        <ele>45</ele>
        <time>2013-12-22T14:10:34Z</time>
      </trkpt>
      <trkpt lat="44.80485" lon="-0.3472">
        <ele>45</ele>
        <time>2013-12-22T14:10:41Z</time>
      </trkpt>
      <trkpt lat="44.80496" lon="-0.34743">
        <ele>44</ele>
        <time>2013-12-22T14:10:47Z</time>
      </trkpt>
      <trkpt lat="44.80497" lon="-0.34747">
        <ele>44</ele>
        <time>2013-12-22T14:10:48Z</time>
      </trkpt>
      <trkpt lat="44.80492" lon="-0.34761">
        <ele>44</ele>
        <time>2013-12-22T14:10:53Z</time>
      </trkpt>
      <trkpt lat="44.80483" lon="-0.3477">
        <ele>45</ele>
        <time>2013-12-22T14:11:00Z</time>
      </trkpt>
      <trkpt lat="44.80483" lon="-0.34771">
        <ele>45</ele>
        <time>2013-12-22T14:11:10Z</time>
      </trkpt>
      <trkpt lat="44.8048" lon="-0.34774">
        <ele>45</ele>
        <time>2013-12-22T14:11:18Z</time>
      </trkpt>
      <trkpt lat="44.80472" lon="-0.34786">
        <ele>45</ele>
        <time>2013-12-22T14:11:25Z</time>
      </trkpt>
      <trkpt lat="44.80471" lon="-0.34788">
        <ele>45</ele>
        <time>2013-12-22T14:11:26Z</time>
      </trkpt>
      <trkpt lat="44.8046" lon="-0.348">
        <ele>46</ele>
        <time>2013-12-22T14:11:33Z</time>
      </trkpt>
      <trkpt lat="44.80456" lon="-0.34803">
        <ele>46</ele>
        <time>2013-12-22T14:11:36Z</time>
      </trkpt>
      <trkpt lat="44.80452" lon="-0.34807">
        <ele>46</ele>
        <time>2013-12-22T14:11:39Z</time>
      </trkpt>
      <trkpt lat="44.80447" lon="-0.34809">
        <ele>46</ele>
        <time>2013-12-22T14:11:43Z</time>
      </trkpt>
      <trkpt lat="44.8044" lon="-0.34815">
        <ele>47</ele>
        <time>2013-12-22T14:11:47Z</time>
      </trkpt>
      <trkpt lat="44.80438" lon="-0.34822">
        <ele>47</ele>
        <time>2013-12-22T14:11:50Z</time>
      </trkpt>
      <trkpt lat="44.80433" lon="-0.34833">
        <ele>47</ele>
        <time>2013-12-22T14:11:55Z</time>
      </trkpt>
      <trkpt lat="44.80431" lon="-0.34848">
        <ele>48</ele>
        <time>2013-12-22T14:12:00Z</time>
      </trkpt>
      <trkpt lat="44.80427" lon="-0.34865">
        <ele>48</ele>
        <time>2013-12-22T14:12:06Z</time>
      </trkpt>
      <trkpt lat="44.80425" lon="-0.34872">
        <ele>49</ele>
        <time>2013-12-22T14:12:08Z</time>
      </trkpt>
      <trkpt lat="44.8042" lon="-0.34894">
        <ele>50</ele>
        <time>2013-12-22T14:12:14Z</time>
      </trkpt>
      <trkpt lat="44.80419" lon="-0.34901">
        <ele>50</ele>
        <time>2013-12-22T14:12:16Z</time>
      </trkpt>
      <trkpt lat="44.80414" lon="-0.3492">
        <ele>51</ele>
        <time>2013-12-22T14:12:23Z</time>
      </trkpt>
      <trkpt lat="44.80412" lon="-0.34925">
        <ele>51</ele>
        <time>2013-12-22T14:12:25Z</time>
      </trkpt>
      <trkpt lat="44.80411" lon="-0.34932">
        <ele>51</ele>
        <time>2013-12-22T14:12:28Z</time>
      </trkpt>
      <trkpt lat="44.80409" lon="-0.34943">
        <ele>52</ele>
        <time>2013-12-22T14:12:33Z</time>
      </trkpt>
      <trkpt lat="44.80406" lon="-0.34953">
        <ele>53</ele>
        <time>2013-12-22T14:12:38Z</time>
      </trkpt>
      <trkpt lat="44.80402" lon="-0.34963">
        <ele>53</ele>
        <time>2013-12-22T14:12:43Z</time>
      </trkpt>
      <trkpt lat="44.80399" lon="-0.34968">
        <ele>54</ele>
        <time>2013-12-22T14:12:49Z</time>
      </trkpt>
      <trkpt lat="44.80398" lon="-0.34973">
        <ele>54</ele>
        <time>2013-12-22T14:12:55Z</time>
      </trkpt>
      <trkpt lat="44.80395" lon="-0.34979">
        <ele>54</ele>
        <time>2013-12-22T14:13:01Z</time>
      </trkpt>
      <trkpt lat="44.80393" lon="-0.34985">
        <ele>55</ele>
        <time>2013-12-22T14:13:08Z</time>
      </trkpt>
      <trkpt lat="44.80392" lon="-0.34989">
        <ele>55</ele>
        <time>2013-12-22T14:13:15Z</time>
      </trkpt>
      <trkpt lat="44.80392" lon="-0.34991">
        <ele>55</ele>
        <time>2013-12-22T14:13:22Z</time>
      </trkpt>
      <trkpt lat="44.80389" lon="-0.34996">
        <ele>55</ele>
        <time>2013-12-22T14:13:30Z</time>
      </trkpt>
      <trkpt lat="44.80387" lon="-0.35">
        <ele>56</ele>
        <time>2013-12-22T14:13:37Z</time>
      </trkpt>
      <trkpt lat="44.80384" lon="-0.35007">
        <ele>56</ele>
        <time>2013-12-22T14:13:45Z</time>
      </trkpt>
      <trkpt lat="44.80381" lon="-0.35015">
        <ele>57</ele>
        <time>2013-12-22T14:13:52Z</time>
      </trkpt>
      <trkpt lat="44.8038" lon="-0.35019">
        <ele>57</ele>
        <time>2013-12-22T14:14:05Z</time>
      </trkpt>
      <trkpt lat="44.80379" lon="-0.35021">
        <ele>57</ele>
        <time>2013-12-22T14:14:16Z</time>
      </trkpt>
      <trkpt lat="44.80378" lon="-0.35022">
        <ele>57</ele>
        <time>2013-12-22T14:14:26Z</time>
      </trkpt>
      <trkpt lat="44.80378" lon="-0.35022">
        <ele>57</ele>
        <time>2013-12-22T14:14:34Z</time>
      </trkpt>
      <trkpt lat="44.80378" lon="-0.35024">
        <ele>57</ele>
        <time>2013-12-22T14:14:42Z</time>
      </trkpt>
      <trkpt lat="44.80378" lon="-0.35025">
        <ele>57</ele>
        <time>2013-12-22T14:14:50Z</time>
      </trkpt>
      <trkpt lat="44.80377" lon="-0.35025">
        <ele>57</ele>
        <time>2013-12-22T14:14:59Z</time>
      </trkpt>
      <trkpt lat="44.80377" lon="-0.35026">
        <ele>57</ele>
        <time>2013-12-22T14:15:06Z</time>
      </trkpt>
      <trkpt lat="44.80374" lon="-0.35028">
        <ele>57</ele>
        <time>2013-12-22T14:15:12Z</time>
      </trkpt>
      <trkpt lat="44.80371" lon="-0.35033">
        <ele>57</ele>
        <time>2013-12-22T14:15:24Z</time>
      </trkpt>
      <trkpt lat="44.80369" lon="-0.35034">
        <ele>57</ele>
        <time>2013-12-22T14:15:38Z</time>
      </trkpt>
      <trkpt lat="44.80369" lon="-0.35034">
        <ele>57</ele>
        <time>2013-12-22T14:15:51Z</time>
      </trkpt>
      <trkpt lat="44.80369" lon="-0.35034">
        <ele>57</ele>
        <time>2013-12-22T14:16:05Z</time>
      </trkpt>
      <trkpt lat="44.80368" lon="-0.35034">
        <ele>57</ele>
        <time>2013-12-22T14:16:16Z</time>
      </trkpt>
      <trkpt lat="44.80367" lon="-0.35034">
        <ele>57</ele>
        <time>2013-12-22T14:16:31Z</time>
      </trkpt>
      <trkpt lat="44.80367" lon="-0.35035">
        <ele>57</ele>
        <time>2013-12-22T14:16:36Z</time>
      </trkpt>
      <trkpt lat="44.80364" lon="-0.35039">
        <ele>57</ele>
        <time>2013-12-22T14:16:40Z</time>
      </trkpt>
      <trkpt lat="44.80357" lon="-0.35057">
        <ele>58</ele>
        <time>2013-12-22T14:16:50Z</time>
      </trkpt>
      <trkpt lat="44.8035" lon="-0.35071">
        <ele>59</ele>
        <time>2013-12-22T14:16:57Z</time>
      </trkpt>
      <trkpt lat="44.80348" lon="-0.35077">
        <ele>59</ele>
        <time>2013-12-22T14:17:00Z</time>
      </trkpt>
      <trkpt lat="44.8034" lon="-0.35091">
        <ele>60</ele>
        <time>2013-12-22T14:17:09Z</time>
      </trkpt>
      <trkpt lat="44.80335" lon="-0.35103">
        <ele>60</ele>
        <time>2013-12-22T14:17:17Z</time>
      </trkpt>
      <trkpt lat="44.80333" lon="-0.35107">
        <ele>61</ele>
        <time>2013-12-22T14:17:20Z</time>
      </trkpt>
      <trkpt lat="44.80329" lon="-0.35118">
        <ele>62</ele>
        <time>2013-12-22T14:17:27Z</time>
      </trkpt>
      <trkpt lat="44.80321" lon="-0.35131">
        <ele>62</ele>
        <time>2013-12-22T14:17:35Z</time>
      </trkpt>
      <trkpt lat="44.80319" lon="-0.35134">
        <ele>63</ele>
        <time>2013-12-22T14:17:37Z</time>
      </trkpt>
      <trkpt lat="44.80315" lon="-0.35144">
        <ele>64</ele>
        <time>2013-12-22T14:17:43Z</time>
      </trkpt>
      <trkpt lat="44.80312" lon="-0.35161">
        <ele>65</ele>
        <time>2013-12-22T14:17:53Z</time>
      </trkpt>
      <trkpt lat="44.80307" lon="-0.35167">
        <ele>65</ele>
        <time>2013-12-22T14:17:58Z</time>
      </trkpt>
      <trkpt lat="44.80303" lon="-0.3517">
        <ele>65</ele>
        <time>2013-12-22T14:18:05Z</time>
      </trkpt>
      <trkpt lat="44.80304" lon="-0.35171">
        <ele>66</ele>
        <time>2013-12-22T14:18:12Z</time>
      </trkpt>
      <trkpt lat="44.80304" lon="-0.35171">
        <ele>66</ele>
        <time>2013-12-22T14:18:23Z</time>
      </trkpt>
      <trkpt lat="44.80303" lon="-0.35173">
        <ele>66</ele>
        <time>2013-12-22T14:18:29Z</time>
      </trkpt>
      <trkpt lat="44.80303" lon="-0.35174">
        <ele>66</ele>
        <time>2013-12-22T14:18:39Z</time>
      </trkpt>
      <trkpt lat="44.80303" lon="-0.35175">
        <ele>66</ele>
        <time>2013-12-22T14:18:46Z</time>
      </trkpt>
      <trkpt lat="44.80302" lon="-0.35176">
        <ele>66</ele>
        <time>2013-12-22T14:18:52Z</time>
      </trkpt>
      <trkpt lat="44.80303" lon="-0.35178">
        <ele>66</ele>
        <time>2013-12-22T14:19:07Z</time>
      </trkpt>
      <trkpt lat="44.80304" lon="-0.35179">
        <ele>66</ele>
        <time>2013-12-22T14:19:22Z</time>
      </trkpt>
      <trkpt lat="44.80304" lon="-0.35181">
        <ele>66</ele>
        <time>2013-12-22T14:19:32Z</time>
      </trkpt>
      <trkpt lat="44.80303" lon="-0.35182">
        <ele>66</ele>
        <time>2013-12-22T14:19:50Z</time>
      </trkpt>
      <trkpt lat="44.80303" lon="-0.35183">
        <ele>67</ele>
        <time>2013-12-22T14:19:59Z</time>
      </trkpt>
      <trkpt lat="44.80302" lon="-0.35187">
        <ele>67</ele>
        <time>2013-12-22T14:20:07Z</time>
      </trkpt>
      <trkpt lat="44.80301" lon="-0.35193">
        <ele>67</ele>
        <time>2013-12-22T14:20:13Z</time>
      </trkpt>
      <trkpt lat="44.80299" lon="-0.35195">
        <ele>67</ele>
        <time>2013-12-22T14:20:20Z</time>
      </trkpt>
      <trkpt lat="44.80299" lon="-0.35195">
        <ele>67</ele>
        <time>2013-12-22T14:20:23Z</time>
      </trkpt>
      <trkpt lat="44.803" lon="-0.35202">
        <ele>68</ele>
        <time>2013-12-22T14:20:27Z</time>
      </trkpt>
      <trkpt lat="44.803" lon="-0.35217">
        <ele>69</ele>
        <time>2013-12-22T14:20:34Z</time>
      </trkpt>
      <trkpt lat="44.80299" lon="-0.35221">
        <ele>70</ele>
        <time>2013-12-22T14:20:36Z</time>
      </trkpt>
      <trkpt lat="44.80295" lon="-0.35236">
        <ele>71</ele>
        <time>2013-12-22T14:20:42Z</time>
      </trkpt>
      <trkpt lat="44.8029" lon="-0.35249">
        <ele>72</ele>
        <time>2013-12-22T14:20:50Z</time>
      </trkpt>
      <trkpt lat="44.80289" lon="-0.35255">
        <ele>72</ele>
        <time>2013-12-22T14:20:53Z</time>
      </trkpt>
      <trkpt lat="44.80292" lon="-0.35264">
        <ele>73</ele>
        <time>2013-12-22T14:20:59Z</time>
      </trkpt>
      <trkpt lat="44.80292" lon="-0.3527">
        <ele>74</ele>
        <time>2013-12-22T14:21:02Z</time>
      </trkpt>
      <trkpt lat="44.80292" lon="-0.35283">
        <ele>75</ele>
        <time>2013-12-22T14:21:08Z</time>
      </trkpt>
      <trkpt lat="44.80292" lon="-0.35289">
        <ele>75</ele>
        <time>2013-12-22T14:21:14Z</time>
      </trkpt>
      <trkpt lat="44.80291" lon="-0.35291">
        <ele>75</ele>
        <time>2013-12-22T14:21:16Z</time>
      </trkpt>
      <trkpt lat="44.80288" lon="-0.35302">
        <ele>76</ele>
        <time>2013-12-22T14:21:23Z</time>
      </trkpt>
      <trkpt lat="44.80283" lon="-0.35314">
        <ele>78</ele>
        <time>2013-12-22T14:21:29Z</time>
      </trkpt>
      <trkpt lat="44.80283" lon="-0.3532">
        <ele>78</ele>
        <time>2013-12-22T14:21:33Z</time>
      </trkpt>
      <trkpt lat="44.80281" lon="-0.35332">
        <ele>80</ele>
        <time>2013-12-22T14:21:41Z</time>
      </trkpt>
      <trkpt lat="44.80279" lon="-0.35343">
        <ele>81</ele>
        <time>2013-12-22T14:21:48Z</time>
      </trkpt>
      <trkpt lat="44.80278" lon="-0.35352">
        <ele>82</ele>
        <time>2013-12-22T14:21:54Z</time>
      </trkpt>
      <trkpt lat="44.80277" lon="-0.35355">
        <ele>82</ele>
        <time>2013-12-22T14:21:56Z</time>
      </trkpt>
      <trkpt lat="44.80278" lon="-0.35357">
        <ele>82</ele>
        <time>2013-12-22T14:21:58Z</time>
      </trkpt>
      <trkpt lat="44.80278" lon="-0.35365">
        <ele>83</ele>
        <time>2013-12-22T14:22:02Z</time>
      </trkpt>
      <trkpt lat="44.80277" lon="-0.35378">
        <ele>84</ele>
        <time>2013-12-22T14:22:09Z</time>
      </trkpt>
      <trkpt lat="44.80278" lon="-0.35382">
        <ele>84</ele>
        <time>2013-12-22T14:22:12Z</time>
      </trkpt>
      <trkpt lat="44.80271" lon="-0.35393">
        <ele>85</ele>
        <time>2013-12-22T14:22:21Z</time>
      </trkpt>
      <trkpt lat="44.80261" lon="-0.354">
        <ele>86</ele>
        <time>2013-12-22T14:22:29Z</time>
      </trkpt>
      <trkpt lat="44.80257" lon="-0.35403">
        <ele>86</ele>
        <time>2013-12-22T14:22:33Z</time>
      </trkpt>
      <trkpt lat="44.8025" lon="-0.3541">
        <ele>88</ele>
        <time>2013-12-22T14:22:39Z</time>
      </trkpt>
      <trkpt lat="44.80245" lon="-0.35417">
        <ele>89</ele>
        <time>2013-12-22T14:22:44Z</time>
      </trkpt>
      <trkpt lat="44.8023" lon="-0.35432">
        <ele>90</ele>
        <time>2013-12-22T14:22:54Z</time>
      </trkpt>
      <trkpt lat="44.80223" lon="-0.35447">
        <ele>90</ele>
        <time>2013-12-22T14:23:00Z</time>
      </trkpt>
      <trkpt lat="44.80212" lon="-0.35467">
        <ele>90</ele>
        <time>2013-12-22T14:23:07Z</time>
      </trkpt>
      <trkpt lat="44.80199" lon="-0.35487">
        <ele>91</ele>
        <time>2013-12-22T14:23:14Z</time>
      </trkpt>
      <trkpt lat="44.80187" lon="-0.35504">
        <ele>91</ele>
        <time>2013-12-22T14:23:20Z</time>
      </trkpt>
      <trkpt lat="44.80176" lon="-0.35522">
        <ele>91</ele>
        <time>2013-12-22T14:23:26Z</time>
      </trkpt>
      <trkpt lat="44.80167" lon="-0.35536">
        <ele>91</ele>
        <time>2013-12-22T14:23:33Z</time>
      </trkpt>
      <trkpt lat="44.80165" lon="-0.35536">
        <ele>91</ele>
        <time>2013-12-22T14:23:39Z</time>
      </trkpt>
      <trkpt lat="44.80165" lon="-0.35536">
        <ele>91</ele>
        <time>2013-12-22T14:23:50Z</time>
      </trkpt>
      <trkpt lat="44.80165" lon="-0.35535">
        <ele>91</ele>
        <time>2013-12-22T14:23:57Z</time>
      </trkpt>
      <trkpt lat="44.80164" lon="-0.35536">
        <ele>91</ele>
        <time>2013-12-22T14:24:11Z</time>
      </trkpt>
      <trkpt lat="44.80163" lon="-0.35538">
        <ele>91</ele>
        <time>2013-12-22T14:24:23Z</time>
      </trkpt>
      <trkpt lat="44.80159" lon="-0.35545">
        <ele>91</ele>
        <time>2013-12-22T14:24:28Z</time>
      </trkpt>
      <trkpt lat="44.8015" lon="-0.35557">
        <ele>91</ele>
        <time>2013-12-22T14:24:33Z</time>
      </trkpt>
      <trkpt lat="44.80131" lon="-0.35574">
        <ele>91</ele>
        <time>2013-12-22T14:24:40Z</time>
      </trkpt>
      <trkpt lat="44.80114" lon="-0.3559">
        <ele>92</ele>
        <time>2013-12-22T14:24:46Z</time>
      </trkpt>
      <trkpt lat="44.80091" lon="-0.35614">
        <ele>93</ele>
        <time>2013-12-22T14:24:55Z</time>
      </trkpt>
      <trkpt lat="44.80076" lon="-0.35631">
        <ele>93</ele>
        <time>2013-12-22T14:25:01Z</time>
      </trkpt>
      <trkpt lat="44.80056" lon="-0.35652">
        <ele>94</ele>
        <time>2013-12-22T14:25:09Z</time>
      </trkpt>
      <trkpt lat="44.80035" lon="-0.35675">
        <ele>95</ele>
        <time>2013-12-22T14:25:17Z</time>
      </trkpt>
      <trkpt lat="44.80014" lon="-0.35698">
        <ele>96</ele>
        <time>2013-12-22T14:25:26Z</time>
      </trkpt>
      <trkpt lat="44.79996" lon="-0.35718">
        <ele>97</ele>
        <time>2013-12-22T14:25:33Z</time>
      </trkpt>
      <trkpt lat="44.79978" lon="-0.35742">
        <ele>97</ele>
        <time>2013-12-22T14:25:40Z</time>
      </trkpt>
      <trkpt lat="44.79957" lon="-0.35769">
        <ele>97</ele>
        <time>2013-12-22T14:25:49Z</time>
      </trkpt>
      <trkpt lat="44.79941" lon="-0.35783">
        <ele>97</ele>
        <time>2013-12-22T14:25:56Z</time>
      </trkpt>
      <trkpt lat="44.79921" lon="-0.35799">
        <ele>97</ele>
        <time>2013-12-22T14:26:03Z</time>
      </trkpt>
      <trkpt lat="44.79908" lon="-0.35817">
        <ele>97</ele>
        <time>2013-12-22T14:26:09Z</time>
      </trkpt>
      <trkpt lat="44.79916" lon="-0.35846">
        <ele>97</ele>
        <time>2013-12-22T14:26:15Z</time>
      </trkpt>
      <trkpt lat="44.79935" lon="-0.35884">
        <ele>97</ele>
        <time>2013-12-22T14:26:23Z</time>
      </trkpt>
      <trkpt lat="44.79944" lon="-0.35913">
        <ele>96</ele>
        <time>2013-12-22T14:26:29Z</time>
      </trkpt>
      <trkpt lat="44.79946" lon="-0.35915">
        <ele>96</ele>
        <time>2013-12-22T14:26:30Z</time>
      </trkpt>
      <trkpt lat="44.79949" lon="-0.35917">
        <ele>96</ele>
        <time>2013-12-22T14:26:31Z</time>
      </trkpt>
      <trkpt lat="44.79952" lon="-0.35917">
        <ele>96</ele>
        <time>2013-12-22T14:26:32Z</time>
      </trkpt>
      <trkpt lat="44.79982" lon="-0.35917">
        <ele>96</ele>
        <time>2013-12-22T14:26:40Z</time>
      </trkpt>
      <trkpt lat="44.8001" lon="-0.35934">
        <ele>95</ele>
        <time>2013-12-22T14:26:48Z</time>
      </trkpt>
      <trkpt lat="44.80041" lon="-0.35959">
        <ele>94</ele>
        <time>2013-12-22T14:26:56Z</time>
      </trkpt>
      <trkpt lat="44.80054" lon="-0.35968">
        <ele>94</ele>
        <time>2013-12-22T14:26:59Z</time>
      </trkpt>
      <trkpt lat="44.80097" lon="-0.36008">
        <ele>94</ele>
        <time>2013-12-22T14:27:10Z</time>
      </trkpt>
      <trkpt lat="44.80133" lon="-0.36038">
        <ele>94</ele>
        <time>2013-12-22T14:27:19Z</time>
      </trkpt>
      <trkpt lat="44.80177" lon="-0.36063">
        <ele>95</ele>
        <time>2013-12-22T14:27:29Z</time>
      </trkpt>
      <trkpt lat="44.80193" lon="-0.36071">
        <ele>96</ele>
        <time>2013-12-22T14:27:33Z</time>
      </trkpt>
      <trkpt lat="44.80198" lon="-0.36074">
        <ele>96</ele>
        <time>2013-12-22T14:27:34Z</time>
      </trkpt>
      <trkpt lat="44.80248" lon="-0.36097">
        <ele>97</ele>
        <time>2013-12-22T14:27:46Z</time>
      </trkpt>
      <trkpt lat="44.80279" lon="-0.3611">
        <ele>97</ele>
        <time>2013-12-22T14:27:53Z</time>
      </trkpt>
      <trkpt lat="44.80329" lon="-0.36122">
        <ele>97</ele>
        <time>2013-12-22T14:28:04Z</time>
      </trkpt>
      <trkpt lat="44.8038" lon="-0.36123">
        <ele>96</ele>
        <time>2013-12-22T14:28:14Z</time>
      </trkpt>
      <trkpt lat="44.80426" lon="-0.36115">
        <ele>96</ele>
        <time>2013-12-22T14:28:22Z</time>
      </trkpt>
      <trkpt lat="44.80467" lon="-0.3611">
        <ele>95</ele>
        <time>2013-12-22T14:28:29Z</time>
      </trkpt>
      <trkpt lat="44.80473" lon="-0.36111">
        <ele>95</ele>
        <time>2013-12-22T14:28:30Z</time>
      </trkpt>
      <trkpt lat="44.80477" lon="-0.36113">
        <ele>95</ele>
        <time>2013-12-22T14:28:31Z</time>
      </trkpt>
      <trkpt lat="44.80481" lon="-0.36118">
        <ele>95</ele>
        <time>2013-12-22T14:28:32Z</time>
      </trkpt>
      <trkpt lat="44.80485" lon="-0.36123">
        <ele>94</ele>
        <time>2013-12-22T14:28:33Z</time>
      </trkpt>
      <trkpt lat="44.80488" lon="-0.36128">
        <ele>94</ele>
        <time>2013-12-22T14:28:34Z</time>
      </trkpt>
      <trkpt lat="44.80492" lon="-0.36133">
        <ele>94</ele>
        <time>2013-12-22T14:28:35Z</time>
      </trkpt>
      <trkpt lat="44.80523" lon="-0.36173">
        <ele>90</ele>
        <time>2013-12-22T14:28:42Z</time>
      </trkpt>
      <trkpt lat="44.80563" lon="-0.36224">
        <ele>83</ele>
        <time>2013-12-22T14:28:49Z</time>
      </trkpt>
      <trkpt lat="44.80612" lon="-0.3628">
        <ele>75</ele>
        <time>2013-12-22T14:28:56Z</time>
      </trkpt>
      <trkpt lat="44.80624" lon="-0.36292">
        <ele>73</ele>
        <time>2013-12-22T14:28:59Z</time>
      </trkpt>
      <trkpt lat="44.80635" lon="-0.36303">
        <ele>72</ele>
        <time>2013-12-22T14:29:06Z</time>
      </trkpt>
      <trkpt lat="44.80637" lon="-0.36304">
        <ele>71</ele>
        <time>2013-12-22T14:29:09Z</time>
      </trkpt>
      <trkpt lat="44.80638" lon="-0.36302">
        <ele>71</ele>
        <time>2013-12-22T14:29:10Z</time>
      </trkpt>
      <trkpt lat="44.8064" lon="-0.363">
        <ele>71</ele>
        <time>2013-12-22T14:29:11Z</time>
      </trkpt>
      <trkpt lat="44.80641" lon="-0.36298">
        <ele>71</ele>
        <time>2013-12-22T14:29:12Z</time>
      </trkpt>
      <trkpt lat="44.80642" lon="-0.36296">
        <ele>71</ele>
        <time>2013-12-22T14:29:13Z</time>
      </trkpt>
      <trkpt lat="44.80642" lon="-0.36294">
        <ele>71</ele>
        <time>2013-12-22T14:29:14Z</time>
      </trkpt>
      <trkpt lat="44.80643" lon="-0.36292">
        <ele>71</ele>
        <time>2013-12-22T14:29:15Z</time>
      </trkpt>
      <trkpt lat="44.80643" lon="-0.3629">
        <ele>71</ele>
        <time>2013-12-22T14:29:16Z</time>
      </trkpt>
      <trkpt lat="44.80645" lon="-0.3628">
        <ele>71</ele>
        <time>2013-12-22T14:29:20Z</time>
      </trkpt>
      <trkpt lat="44.80645" lon="-0.36277">
        <ele>71</ele>
        <time>2013-12-22T14:29:21Z</time>
      </trkpt>
      <trkpt lat="44.80646" lon="-0.36275">
        <ele>71</ele>
        <time>2013-12-22T14:29:22Z</time>
      </trkpt>
      <trkpt lat="44.80652" lon="-0.36263">
        <ele>71</ele>
        <time>2013-12-22T14:29:30Z</time>
      </trkpt>
      <trkpt lat="44.80655" lon="-0.36261">
        <ele>71</ele>
        <time>2013-12-22T14:29:37Z</time>
      </trkpt>
      <trkpt lat="44.80655" lon="-0.3626">
        <ele>71</ele>
        <time>2013-12-22T14:29:44Z</time>
      </trkpt>
      <trkpt lat="44.80656" lon="-0.36259">
        <ele>71</ele>
        <time>2013-12-22T14:29:52Z</time>
      </trkpt>
      <trkpt lat="44.80656" lon="-0.36259">
        <ele>71</ele>
        <time>2013-12-22T14:30:02Z</time>
      </trkpt>
      <trkpt lat="44.80656" lon="-0.36259">
        <ele>71</ele>
        <time>2013-12-22T14:30:15Z</time>
      </trkpt>
      <trkpt lat="44.80657" lon="-0.36256">
        <ele>72</ele>
        <time>2013-12-22T14:30:25Z</time>
      </trkpt>
      <trkpt lat="44.80657" lon="-0.36254">
        <ele>72</ele>
        <time>2013-12-22T14:30:29Z</time>
      </trkpt>
      <trkpt lat="44.80657" lon="-0.36251">
        <ele>72</ele>
        <time>2013-12-22T14:30:36Z</time>
      </trkpt>
      <trkpt lat="44.80661" lon="-0.36246">
        <ele>73</ele>
        <time>2013-12-22T14:30:42Z</time>
      </trkpt>
      <trkpt lat="44.80663" lon="-0.36242">
        <ele>74</ele>
        <time>2013-12-22T14:30:50Z</time>
      </trkpt>
      <trkpt lat="44.80665" lon="-0.36236">
        <ele>75</ele>
        <time>2013-12-22T14:30:57Z</time>
      </trkpt>
      <trkpt lat="44.8067" lon="-0.36227">
        <ele>77</ele>
        <time>2013-12-22T14:31:05Z</time>
      </trkpt>
      <trkpt lat="44.80673" lon="-0.36219">
        <ele>78</ele>
        <time>2013-12-22T14:31:12Z</time>
      </trkpt>
      <trkpt lat="44.80674" lon="-0.36219">
        <ele>78</ele>
        <time>2013-12-22T14:31:13Z</time>
      </trkpt>
      <trkpt lat="44.80677" lon="-0.36215">
        <ele>79</ele>
        <time>2013-12-22T14:31:17Z</time>
      </trkpt>
      <trkpt lat="44.80681" lon="-0.36209">
        <ele>80</ele>
        <time>2013-12-22T14:31:24Z</time>
      </trkpt>
      <trkpt lat="44.80681" lon="-0.36205">
        <ele>81</ele>
        <time>2013-12-22T14:31:30Z</time>
      </trkpt>
      <trkpt lat="44.80681" lon="-0.36202">
        <ele>81</ele>
        <time>2013-12-22T14:31:36Z</time>
      </trkpt>
      <trkpt lat="44.80683" lon="-0.36197">
        <ele>82</ele>
        <time>2013-12-22T14:31:42Z</time>
      </trkpt>
      <trkpt lat="44.80687" lon="-0.3619">
        <ele>82</ele>
        <time>2013-12-22T14:31:47Z</time>
      </trkpt>
      <trkpt lat="44.80688" lon="-0.36189">
        <ele>83</ele>
        <time>2013-12-22T14:31:48Z</time>
      </trkpt>
      <trkpt lat="44.80689" lon="-0.36188">
        <ele>83</ele>
        <time>2013-12-22T14:31:49Z</time>
      </trkpt>
      <trkpt lat="44.80689" lon="-0.36186">
        <ele>83</ele>
        <time>2013-12-22T14:31:50Z</time>
      </trkpt>
      <trkpt lat="44.8069" lon="-0.3618">
        <ele>84</ele>
        <time>2013-12-22T14:31:53Z</time>
      </trkpt>
      <trkpt lat="44.80691" lon="-0.36179">
        <ele>84</ele>
        <time>2013-12-22T14:31:54Z</time>
      </trkpt>
      <trkpt lat="44.80695" lon="-0.36168">
        <ele>85</ele>
        <time>2013-12-22T14:32:00Z</time>
      </trkpt>
      <trkpt lat="44.80696" lon="-0.36164">
        <ele>86</ele>
        <time>2013-12-22T14:32:02Z</time>
      </trkpt>
      <trkpt lat="44.80699" lon="-0.36157">
        <ele>86</ele>
        <time>2013-12-22T14:32:06Z</time>
      </trkpt>
      <trkpt lat="44.807" lon="-0.36155">
        <ele>86</ele>
        <time>2013-12-22T14:32:07Z</time>
      </trkpt>
      <trkpt lat="44.80703" lon="-0.36145">
        <ele>88</ele>
        <time>2013-12-22T14:32:14Z</time>
      </trkpt>
      <trkpt lat="44.80706" lon="-0.36137">
        <ele>88</ele>
        <time>2013-12-22T14:32:20Z</time>
      </trkpt>
      <trkpt lat="44.80711" lon="-0.36129">
        <ele>89</ele>
        <time>2013-12-22T14:32:27Z</time>
      </trkpt>
      <trkpt lat="44.80713" lon="-0.36121">
        <ele>90</ele>
        <time>2013-12-22T14:32:33Z</time>
      </trkpt>
      <trkpt lat="44.80717" lon="-0.36112">
        <ele>92</ele>
        <time>2013-12-22T14:32:41Z</time>
      </trkpt>
      <trkpt lat="44.8072" lon="-0.36105">
        <ele>92</ele>
        <time>2013-12-22T14:32:48Z</time>
      </trkpt>
      <trkpt lat="44.80724" lon="-0.36098">
        <ele>93</ele>
        <time>2013-12-22T14:32:55Z</time>
      </trkpt>
      <trkpt lat="44.80728" lon="-0.36088">
        <ele>94</ele>
        <time>2013-12-22T14:33:02Z</time>
      </trkpt>
      <trkpt lat="44.80729" lon="-0.36078">
        <ele>95</ele>
        <time>2013-12-22T14:33:10Z</time>
      </trkpt>
      <trkpt lat="44.80725" lon="-0.36073">
        <ele>95</ele>
        <time>2013-12-22T14:33:17Z</time>
      </trkpt>
      <trkpt lat="44.80721" lon="-0.36066">
        <ele>96</ele>
        <time>2013-12-22T14:33:25Z</time>
      </trkpt>
      <trkpt lat="44.80722" lon="-0.36061">
        <ele>96</ele>
        <time>2013-12-22T14:33:31Z</time>
      </trkpt>
      <trkpt lat="44.80725" lon="-0.36057">
        <ele>96</ele>
        <time>2013-12-22T14:33:36Z</time>
      </trkpt>
      <trkpt lat="44.80729" lon="-0.36056">
        <ele>96</ele>
        <time>2013-12-22T14:33:40Z</time>
      </trkpt>
      <trkpt lat="44.8073" lon="-0.36057">
        <ele>96</ele>
        <time>2013-12-22T14:33:41Z</time>
      </trkpt>
      <trkpt lat="44.80731" lon="-0.36057">
        <ele>96</ele>
        <time>2013-12-22T14:33:42Z</time>
      </trkpt>
      <trkpt lat="44.80735" lon="-0.36061">
        <ele>96</ele>
        <time>2013-12-22T14:33:48Z</time>
      </trkpt>
      <trkpt lat="44.80735" lon="-0.36064">
        <ele>96</ele>
        <time>2013-12-22T14:33:50Z</time>
      </trkpt>
      <trkpt lat="44.80734" lon="-0.36067">
        <ele>96</ele>
        <time>2013-12-22T14:33:51Z</time>
      </trkpt>
      <trkpt lat="44.80733" lon="-0.36076">
        <ele>96</ele>
        <time>2013-12-22T14:33:57Z</time>
      </trkpt>
      <trkpt lat="44.80729" lon="-0.36075">
        <ele>95</ele>
        <time>2013-12-22T14:34:05Z</time>
      </trkpt>
      <trkpt lat="44.80727" lon="-0.36074">
        <ele>95</ele>
        <time>2013-12-22T14:34:07Z</time>
      </trkpt>
      <trkpt lat="44.80724" lon="-0.36071">
        <ele>95</ele>
        <time>2013-12-22T14:34:12Z</time>
      </trkpt>
      <trkpt lat="44.80717" lon="-0.36066">
        <ele>95</ele>
        <time>2013-12-22T14:34:20Z</time>
      </trkpt>
      <trkpt lat="44.80714" lon="-0.36063">
        <ele>96</ele>
        <time>2013-12-22T14:34:24Z</time>
      </trkpt>
      <trkpt lat="44.80719" lon="-0.36058">
        <ele>96</ele>
        <time>2013-12-22T14:34:31Z</time>
      </trkpt>
      <trkpt lat="44.80721" lon="-0.36058">
        <ele>96</ele>
        <time>2013-12-22T14:34:34Z</time>
      </trkpt>
      <trkpt lat="44.80726" lon="-0.36056">
        <ele>96</ele>
        <time>2013-12-22T14:34:40Z</time>
      </trkpt>
      <trkpt lat="44.80733" lon="-0.36054">
        <ele>96</ele>
        <time>2013-12-22T14:34:48Z</time>
      </trkpt>
      <trkpt lat="44.80738" lon="-0.36055">
        <ele>96</ele>
        <time>2013-12-22T14:34:55Z</time>
      </trkpt>
      <trkpt lat="44.8074" lon="-0.36054">
        <ele>96</ele>
        <time>2013-12-22T14:34:57Z</time>
      </trkpt>
      <trkpt lat="44.80741" lon="-0.36053">
        <ele>96</ele>
        <time>2013-12-22T14:34:58Z</time>
      </trkpt>
      <trkpt lat="44.80742" lon="-0.36052">
        <ele>96</ele>
        <time>2013-12-22T14:34:59Z</time>
      </trkpt>
      <trkpt lat="44.80743" lon="-0.3605">
        <ele>96</ele>
        <time>2013-12-22T14:35:00Z</time>
      </trkpt>
      <trkpt lat="44.80744" lon="-0.3605">
        <ele>96</ele>
        <time>2013-12-22T14:35:01Z</time>
      </trkpt>
      <trkpt lat="44.8075" lon="-0.36044">
        <ele>96</ele>
        <time>2013-12-22T14:35:10Z</time>
      </trkpt>
      <trkpt lat="44.80757" lon="-0.36039">
        <ele>97</ele>
        <time>2013-12-22T14:35:19Z</time>
      </trkpt>
      <trkpt lat="44.80763" lon="-0.36035">
        <ele>97</ele>
        <time>2013-12-22T14:35:26Z</time>
      </trkpt>
      <trkpt lat="44.80769" lon="-0.36027">
        <ele>97</ele>
        <time>2013-12-22T14:35:35Z</time>
      </trkpt>
      <trkpt lat="44.80778" lon="-0.3602">
        <ele>97</ele>
        <time>2013-12-22T14:35:44Z</time>
      </trkpt>
      <trkpt lat="44.80779" lon="-0.36019">
        <ele>97</ele>
        <time>2013-12-22T14:35:45Z</time>
      </trkpt>
      <trkpt lat="44.8078" lon="-0.36017">
        <ele>97</ele>
        <time>2013-12-22T14:35:46Z</time>
      </trkpt>
      <trkpt lat="44.80781" lon="-0.36016">
        <ele>97</ele>
        <time>2013-12-22T14:35:47Z</time>
      </trkpt>
      <trkpt lat="44.80782" lon="-0.36015">
        <ele>97</ele>
        <time>2013-12-22T14:35:48Z</time>
      </trkpt>
      <trkpt lat="44.80784" lon="-0.36013">
        <ele>97</ele>
        <time>2013-12-22T14:35:49Z</time>
      </trkpt>
      <trkpt lat="44.80785" lon="-0.36012">
        <ele>97</ele>
        <time>2013-12-22T14:35:50Z</time>
      </trkpt>
      <trkpt lat="44.80798" lon="-0.35999">
        <ele>97</ele>
        <time>2013-12-22T14:35:58Z</time>
      </trkpt>
      <trkpt lat="44.80813" lon="-0.35984">
        <ele>96</ele>
        <time>2013-12-22T14:36:06Z</time>
      </trkpt>
      <trkpt lat="44.80835" lon="-0.35967">
        <ele>95</ele>
        <time>2013-12-22T14:36:13Z</time>
      </trkpt>
      <trkpt lat="44.80857" lon="-0.35942">
        <ele>95</ele>
        <time>2013-12-22T14:36:20Z</time>
      </trkpt>
      <trkpt lat="44.80862" lon="-0.35932">
        <ele>94</ele>
        <time>2013-12-22T14:36:22Z</time>
      </trkpt>
      <trkpt lat="44.80867" lon="-0.3592">
        <ele>94</ele>
        <time>2013-12-22T14:36:24Z</time>
      </trkpt>
      <trkpt lat="44.80875" lon="-0.35897">
        <ele>93</ele>
        <time>2013-12-22T14:36:28Z</time>
      </trkpt>
      <trkpt lat="44.80876" lon="-0.35892">
        <ele>93</ele>
        <time>2013-12-22T14:36:29Z</time>
      </trkpt>
      <trkpt lat="44.80883" lon="-0.35871">
        <ele>91</ele>
        <time>2013-12-22T14:36:34Z</time>
      </trkpt>
      <trkpt lat="44.80887" lon="-0.35867">
        <ele>90</ele>
        <time>2013-12-22T14:36:36Z</time>
      </trkpt>
      <trkpt lat="44.80891" lon="-0.35868">
        <ele>90</ele>
        <time>2013-12-22T14:36:37Z</time>
      </trkpt>
      <trkpt lat="44.80894" lon="-0.35871">
        <ele>90</ele>
        <time>2013-12-22T14:36:38Z</time>
      </trkpt>
      <trkpt lat="44.80898" lon="-0.35875">
        <ele>89</ele>
        <time>2013-12-22T14:36:39Z</time>
      </trkpt>
      <trkpt lat="44.80902" lon="-0.3588">
        <ele>89</ele>
        <time>2013-12-22T14:36:40Z</time>
      </trkpt>
      <trkpt lat="44.80931" lon="-0.35913">
        <ele>85</ele>
        <time>2013-12-22T14:36:47Z</time>
      </trkpt>
      <trkpt lat="44.80943" lon="-0.35922">
        <ele>83</ele>
        <time>2013-12-22T14:36:52Z</time>
      </trkpt>
      <trkpt lat="44.80948" lon="-0.35927">
        <ele>83</ele>
        <time>2013-12-22T14:36:58Z</time>
      </trkpt>
      <trkpt lat="44.80949" lon="-0.35929">
        <ele>83</ele>
        <time>2013-12-22T14:36:59Z</time>
      </trkpt>
      <trkpt lat="44.80948" lon="-0.35931">
        <ele>83</ele>
        <time>2013-12-22T14:37:00Z</time>
      </trkpt>
      <trkpt lat="44.80947" lon="-0.35933">
        <ele>83</ele>
        <time>2013-12-22T14:37:01Z</time>
      </trkpt>
      <trkpt lat="44.80946" lon="-0.35935">
        <ele>83</ele>
        <time>2013-12-22T14:37:02Z</time>
      </trkpt>
      <trkpt lat="44.80944" lon="-0.35938">
        <ele>83</ele>
        <time>2013-12-22T14:37:05Z</time>
      </trkpt>
      <trkpt lat="44.80944" lon="-0.3594">
        <ele>83</ele>
        <time>2013-12-22T14:37:06Z</time>
      </trkpt>
      <trkpt lat="44.80943" lon="-0.35941">
        <ele>83</ele>
        <time>2013-12-22T14:37:07Z</time>
      </trkpt>
      <trkpt lat="44.80942" lon="-0.35942">
        <ele>84</ele>
        <time>2013-12-22T14:37:13Z</time>
      </trkpt>
      <trkpt lat="44.80942" lon="-0.35942">
        <ele>84</ele>
        <time>2013-12-22T14:37:25Z</time>
      </trkpt>
      <trkpt lat="44.80942" lon="-0.35944">
        <ele>84</ele>
        <time>2013-12-22T14:37:32Z</time>
      </trkpt>
      <trkpt lat="44.80942" lon="-0.35945">
        <ele>84</ele>
        <time>2013-12-22T14:37:47Z</time>
      </trkpt>
      <trkpt lat="44.80942" lon="-0.35945">
        <ele>84</ele>
        <time>2013-12-22T14:38:00Z</time>
      </trkpt>
      <trkpt lat="44.80942" lon="-0.35944">
        <ele>84</ele>
        <time>2013-12-22T14:38:01Z</time>
      </trkpt>
      <trkpt lat="44.80943" lon="-0.35943">
        <ele>84</ele>
        <time>2013-12-22T14:38:05Z</time>
      </trkpt>
      <trkpt lat="44.80943" lon="-0.35943">
        <ele>84</ele>
        <time>2013-12-22T14:38:19Z</time>
      </trkpt>
      <trkpt lat="44.80943" lon="-0.35943">
        <ele>84</ele>
        <time>2013-12-22T14:38:35Z</time>
      </trkpt>
      <trkpt lat="44.80943" lon="-0.35943">
        <ele>84</ele>
        <time>2013-12-22T14:38:53Z</time>
      </trkpt>
      <trkpt lat="44.80943" lon="-0.35943">
        <ele>84</ele>
        <time>2013-12-22T14:39:12Z</time>
      </trkpt>
      <trkpt lat="44.80943" lon="-0.35943">
        <ele>83</ele>
        <time>2013-12-22T14:39:31Z</time>
      </trkpt>
      <trkpt lat="44.80944" lon="-0.35943">
        <ele>83</ele>
        <time>2013-12-22T14:39:40Z</time>
      </trkpt>
      <trkpt lat="44.80944" lon="-0.35943">
        <ele>83</ele>
        <time>2013-12-22T14:39:53Z</time>
      </trkpt>
      <trkpt lat="44.80944" lon="-0.35944">
        <ele>83</ele>
        <time>2013-12-22T14:40:09Z</time>
      </trkpt>
      <trkpt lat="44.80944" lon="-0.35944">
        <ele>83</ele>
        <time>2013-12-22T14:40:24Z</time>
      </trkpt>
      <trkpt lat="44.80944" lon="-0.35943">
        <ele>83</ele>
        <time>2013-12-22T14:40:39Z</time>
      </trkpt>
      <trkpt lat="44.80944" lon="-0.35944">
        <ele>83</ele>
        <time>2013-12-22T14:40:55Z</time>
      </trkpt>
      <trkpt lat="44.80943" lon="-0.35943">
        <ele>83</ele>
        <time>2013-12-22T14:40:56Z</time>
      </trkpt>
      <trkpt lat="44.8094" lon="-0.35944">
        <ele>84</ele>
        <time>2013-12-22T14:41:01Z</time>
      </trkpt>
      <trkpt lat="44.8094" lon="-0.35944">
        <ele>84</ele>
        <time>2013-12-22T14:41:03Z</time>
      </trkpt>
      <trkpt lat="44.80935" lon="-0.3595">
        <ele>85</ele>
        <time>2013-12-22T14:41:08Z</time>
      </trkpt>
      <trkpt lat="44.80927" lon="-0.35962">
        <ele>86</ele>
        <time>2013-12-22T14:41:18Z</time>
      </trkpt>
      <trkpt lat="44.80918" lon="-0.35975">
        <ele>86</ele>
        <time>2013-12-22T14:41:26Z</time>
      </trkpt>
      <trkpt lat="44.80909" lon="-0.35988">
        <ele>87</ele>
        <time>2013-12-22T14:41:34Z</time>
      </trkpt>
      <trkpt lat="44.80902" lon="-0.36008">
        <ele>86</ele>
        <time>2013-12-22T14:41:42Z</time>
      </trkpt>
      <trkpt lat="44.80899" lon="-0.36023">
        <ele>86</ele>
        <time>2013-12-22T14:41:48Z</time>
      </trkpt>
      <trkpt lat="44.80894" lon="-0.36043">
        <ele>85</ele>
        <time>2013-12-22T14:41:55Z</time>
      </trkpt>
      <trkpt lat="44.8089" lon="-0.36065">
        <ele>85</ele>
        <time>2013-12-22T14:42:02Z</time>
      </trkpt>
      <trkpt lat="44.80886" lon="-0.36095">
        <ele>85</ele>
        <time>2013-12-22T14:42:10Z</time>
      </trkpt>
      <trkpt lat="44.80881" lon="-0.36138">
        <ele>87</ele>
        <time>2013-12-22T14:42:19Z</time>
      </trkpt>
      <trkpt lat="44.80877" lon="-0.36174">
        <ele>88</ele>
        <time>2013-12-22T14:42:26Z</time>
      </trkpt>
      <trkpt lat="44.80868" lon="-0.36208">
        <ele>88</ele>
        <time>2013-12-22T14:42:34Z</time>
      </trkpt>
      <trkpt lat="44.80862" lon="-0.36223">
        <ele>89</ele>
        <time>2013-12-22T14:42:40Z</time>
      </trkpt>
      <trkpt lat="44.80861" lon="-0.36222">
        <ele>89</ele>
        <time>2013-12-22T14:42:47Z</time>
      </trkpt>
      <trkpt lat="44.8086" lon="-0.36225">
        <ele>89</ele>
        <time>2013-12-22T14:42:59Z</time>
      </trkpt>
      <trkpt lat="44.80858" lon="-0.36229">
        <ele>89</ele>
        <time>2013-12-22T14:43:01Z</time>
      </trkpt>
      <trkpt lat="44.80863" lon="-0.36245">
        <ele>88</ele>
        <time>2013-12-22T14:43:06Z</time>
      </trkpt>
      <trkpt lat="44.80883" lon="-0.36264">
        <ele>87</ele>
        <time>2013-12-22T14:43:13Z</time>
      </trkpt>
      <trkpt lat="44.80898" lon="-0.36278">
        <ele>86</ele>
        <time>2013-12-22T14:43:19Z</time>
      </trkpt>
      <trkpt lat="44.80909" lon="-0.36303">
        <ele>82</ele>
        <time>2013-12-22T14:43:25Z</time>
      </trkpt>
      <trkpt lat="44.80923" lon="-0.3633">
        <ele>79</ele>
        <time>2013-12-22T14:43:31Z</time>
      </trkpt>
      <trkpt lat="44.8093" lon="-0.36345">
        <ele>78</ele>
        <time>2013-12-22T14:43:34Z</time>
      </trkpt>
      <trkpt lat="44.80943" lon="-0.36373">
        <ele>74</ele>
        <time>2013-12-22T14:43:39Z</time>
      </trkpt>
      <trkpt lat="44.80946" lon="-0.36378">
        <ele>73</ele>
        <time>2013-12-22T14:43:40Z</time>
      </trkpt>
      <trkpt lat="44.80954" lon="-0.36397">
        <ele>71</ele>
        <time>2013-12-22T14:43:44Z</time>
      </trkpt>
      <trkpt lat="44.80957" lon="-0.36433">
        <ele>68</ele>
        <time>2013-12-22T14:43:51Z</time>
      </trkpt>
      <trkpt lat="44.80962" lon="-0.36454">
        <ele>66</ele>
        <time>2013-12-22T14:43:55Z</time>
      </trkpt>
      <trkpt lat="44.80963" lon="-0.36459">
        <ele>66</ele>
        <time>2013-12-22T14:43:56Z</time>
      </trkpt>
      <trkpt lat="44.80965" lon="-0.36465">
        <ele>66</ele>
        <time>2013-12-22T14:43:57Z</time>
      </trkpt>
      <trkpt lat="44.80967" lon="-0.3647">
        <ele>65</ele>
        <time>2013-12-22T14:43:58Z</time>
      </trkpt>
      <trkpt lat="44.80969" lon="-0.36475">
        <ele>65</ele>
        <time>2013-12-22T14:43:59Z</time>
      </trkpt>
      <trkpt lat="44.80971" lon="-0.36481">
        <ele>64</ele>
        <time>2013-12-22T14:44:00Z</time>
      </trkpt>
      <trkpt lat="44.80974" lon="-0.36485">
        <ele>64</ele>
        <time>2013-12-22T14:44:01Z</time>
      </trkpt>
      <trkpt lat="44.80976" lon="-0.3649">
        <ele>63</ele>
        <time>2013-12-22T14:44:02Z</time>
      </trkpt>
      <trkpt lat="44.80979" lon="-0.36496">
        <ele>63</ele>
        <time>2013-12-22T14:44:03Z</time>
      </trkpt>
      <trkpt lat="44.80992" lon="-0.36524">
        <ele>60</ele>
        <time>2013-12-22T14:44:08Z</time>
      </trkpt>
      <trkpt lat="44.80995" lon="-0.36528">
        <ele>60</ele>
        <time>2013-12-22T14:44:09Z</time>
      </trkpt>
      <trkpt lat="44.81002" lon="-0.36538">
        <ele>59</ele>
        <time>2013-12-22T14:44:11Z</time>
      </trkpt>
      <trkpt lat="44.81005" lon="-0.36543">
        <ele>58</ele>
        <time>2013-12-22T14:44:12Z</time>
      </trkpt>
      <trkpt lat="44.81021" lon="-0.36568">
        <ele>56</ele>
        <time>2013-12-22T14:44:18Z</time>
      </trkpt>
      <trkpt lat="44.81033" lon="-0.36591">
        <ele>54</ele>
        <time>2013-12-22T14:44:24Z</time>
      </trkpt>
      <trkpt lat="44.81045" lon="-0.36604">
        <ele>53</ele>
        <time>2013-12-22T14:44:28Z</time>
      </trkpt>
      <trkpt lat="44.81057" lon="-0.36613">
        <ele>51</ele>
        <time>2013-12-22T14:44:31Z</time>
      </trkpt>
      <trkpt lat="44.81061" lon="-0.36616">
        <ele>50</ele>
        <time>2013-12-22T14:44:32Z</time>
      </trkpt>
      <trkpt lat="44.81064" lon="-0.36619">
        <ele>49</ele>
        <time>2013-12-22T14:44:33Z</time>
      </trkpt>
      <trkpt lat="44.81067" lon="-0.36623">
        <ele>49</ele>
        <time>2013-12-22T14:44:34Z</time>
      </trkpt>
      <trkpt lat="44.81071" lon="-0.36625">
        <ele>48</ele>
        <time>2013-12-22T14:44:35Z</time>
      </trkpt>
      <trkpt lat="44.81074" lon="-0.36628">
        <ele>48</ele>
        <time>2013-12-22T14:44:36Z</time>
      </trkpt>
      <trkpt lat="44.81081" lon="-0.36636">
        <ele>47</ele>
        <time>2013-12-22T14:44:41Z</time>
      </trkpt>
      <trkpt lat="44.81082" lon="-0.36643">
        <ele>46</ele>
        <time>2013-12-22T14:44:47Z</time>
      </trkpt>
      <trkpt lat="44.81083" lon="-0.36645">
        <ele>46</ele>
        <time>2013-12-22T14:44:53Z</time>
      </trkpt>
      <trkpt lat="44.81084" lon="-0.36647">
        <ele>46</ele>
        <time>2013-12-22T14:44:59Z</time>
      </trkpt>
      <trkpt lat="44.81085" lon="-0.36648">
        <ele>46</ele>
        <time>2013-12-22T14:45:00Z</time>
      </trkpt>
      <trkpt lat="44.81085" lon="-0.36651">
        <ele>46</ele>
        <time>2013-12-22T14:45:04Z</time>
      </trkpt>
      <trkpt lat="44.81083" lon="-0.36652">
        <ele>46</ele>
        <time>2013-12-22T14:45:13Z</time>
      </trkpt>
      <trkpt lat="44.81083" lon="-0.36652">
        <ele>46</ele>
        <time>2013-12-22T14:45:27Z</time>
      </trkpt>
      <trkpt lat="44.81083" lon="-0.36653">
        <ele>46</ele>
        <time>2013-12-22T14:45:39Z</time>
      </trkpt>
      <trkpt lat="44.81083" lon="-0.36653">
        <ele>46</ele>
        <time>2013-12-22T14:45:51Z</time>
      </trkpt>
      <trkpt lat="44.81083" lon="-0.36652">
        <ele>46</ele>
        <time>2013-12-22T14:46:07Z</time>
      </trkpt>
      <trkpt lat="44.81084" lon="-0.36652">
        <ele>46</ele>
        <time>2013-12-22T14:46:09Z</time>
      </trkpt>
      <trkpt lat="44.81084" lon="-0.36653">
        <ele>46</ele>
        <time>2013-12-22T14:46:10Z</time>
      </trkpt>
      <trkpt lat="44.81085" lon="-0.36654">
        <ele>46</ele>
        <time>2013-12-22T14:46:11Z</time>
      </trkpt>
      <trkpt lat="44.81085" lon="-0.36657">
        <ele>46</ele>
        <time>2013-12-22T14:46:12Z</time>
      </trkpt>
      <trkpt lat="44.81085" lon="-0.36659">
        <ele>46</ele>
        <time>2013-12-22T14:46:13Z</time>
      </trkpt>
      <trkpt lat="44.81085" lon="-0.36662">
        <ele>45</ele>
        <time>2013-12-22T14:46:14Z</time>
      </trkpt>
      <trkpt lat="44.81085" lon="-0.36664">
        <ele>45</ele>
        <time>2013-12-22T14:46:15Z</time>
      </trkpt>
      <trkpt lat="44.81084" lon="-0.36666">
        <ele>45</ele>
        <time>2013-12-22T14:46:16Z</time>
      </trkpt>
      <trkpt lat="44.8108" lon="-0.3668">
        <ele>45</ele>
        <time>2013-12-22T14:46:22Z</time>
      </trkpt>
      <trkpt lat="44.81075" lon="-0.36699">
        <ele>45</ele>
        <time>2013-12-22T14:46:30Z</time>
      </trkpt>
      <trkpt lat="44.8107" lon="-0.3672">
        <ele>45</ele>
        <time>2013-12-22T14:46:38Z</time>
      </trkpt>
      <trkpt lat="44.81062" lon="-0.36744">
        <ele>45</ele>
        <time>2013-12-22T14:46:46Z</time>
      </trkpt>
      <trkpt lat="44.81056" lon="-0.36767">
        <ele>44</ele>
        <time>2013-12-22T14:46:54Z</time>
      </trkpt>
      <trkpt lat="44.8105" lon="-0.36792">
        <ele>44</ele>
        <time>2013-12-22T14:47:00Z</time>
      </trkpt>
      <trkpt lat="44.8105" lon="-0.36824">
        <ele>44</ele>
        <time>2013-12-22T14:47:07Z</time>
      </trkpt>
      <trkpt lat="44.81054" lon="-0.36856">
        <ele>44</ele>
        <time>2013-12-22T14:47:14Z</time>
      </trkpt>
      <trkpt lat="44.81054" lon="-0.3686">
        <ele>44</ele>
        <time>2013-12-22T14:47:15Z</time>
      </trkpt>
      <trkpt lat="44.81055" lon="-0.36865">
        <ele>44</ele>
        <time>2013-12-22T14:47:16Z</time>
      </trkpt>
      <trkpt lat="44.81055" lon="-0.36868">
        <ele>44</ele>
        <time>2013-12-22T14:47:17Z</time>
      </trkpt>
      <trkpt lat="44.81056" lon="-0.36872">
        <ele>45</ele>
        <time>2013-12-22T14:47:18Z</time>
      </trkpt>
      <trkpt lat="44.81057" lon="-0.36875">
        <ele>45</ele>
        <time>2013-12-22T14:47:19Z</time>
      </trkpt>
      <trkpt lat="44.81061" lon="-0.36913">
        <ele>46</ele>
        <time>2013-12-22T14:47:28Z</time>
      </trkpt>
      <trkpt lat="44.81059" lon="-0.36932">
        <ele>47</ele>
        <time>2013-12-22T14:47:34Z</time>
      </trkpt>
      <trkpt lat="44.81056" lon="-0.36933">
        <ele>47</ele>
        <time>2013-12-22T14:47:35Z</time>
      </trkpt>
      <trkpt lat="44.81054" lon="-0.36934">
        <ele>47</ele>
        <time>2013-12-22T14:47:36Z</time>
      </trkpt>
      <trkpt lat="44.81051" lon="-0.36936">
        <ele>47</ele>
        <time>2013-12-22T14:47:37Z</time>
      </trkpt>
      <trkpt lat="44.81048" lon="-0.36938">
        <ele>47</ele>
        <time>2013-12-22T14:47:38Z</time>
      </trkpt>
      <trkpt lat="44.81046" lon="-0.3694">
        <ele>47</ele>
        <time>2013-12-22T14:47:39Z</time>
      </trkpt>
      <trkpt lat="44.81042" lon="-0.36941">
        <ele>47</ele>
        <time>2013-12-22T14:47:40Z</time>
      </trkpt>
      <trkpt lat="44.81039" lon="-0.36942">
        <ele>47</ele>
        <time>2013-12-22T14:47:41Z</time>
      </trkpt>
      <trkpt lat="44.81036" lon="-0.36943">
        <ele>47</ele>
        <time>2013-12-22T14:47:42Z</time>
      </trkpt>
      <trkpt lat="44.81033" lon="-0.36943">
        <ele>48</ele>
        <time>2013-12-22T14:47:43Z</time>
      </trkpt>
      <trkpt lat="44.8103" lon="-0.36945">
        <ele>48</ele>
        <time>2013-12-22T14:47:44Z</time>
      </trkpt>
      <trkpt lat="44.81027" lon="-0.36946">
        <ele>48</ele>
        <time>2013-12-22T14:47:45Z</time>
      </trkpt>
      <trkpt lat="44.81024" lon="-0.36947">
        <ele>48</ele>
        <time>2013-12-22T14:47:46Z</time>
      </trkpt>
      <trkpt lat="44.80996" lon="-0.36958">
        <ele>48</ele>
        <time>2013-12-22T14:47:54Z</time>
      </trkpt>
      <trkpt lat="44.8097" lon="-0.36965">
        <ele>48</ele>
        <time>2013-12-22T14:48:01Z</time>
      </trkpt>
      <trkpt lat="44.80943" lon="-0.3697">
        <ele>47</ele>
        <time>2013-12-22T14:48:08Z</time>
      </trkpt>
      <trkpt lat="44.80908" lon="-0.36976">
        <ele>46</ele>
        <time>2013-12-22T14:48:17Z</time>
      </trkpt>
      <trkpt lat="44.80873" lon="-0.36982">
        <ele>47</ele>
        <time>2013-12-22T14:48:26Z</time>
      </trkpt>
      <trkpt lat="44.80832" lon="-0.3699">
        <ele>48</ele>
        <time>2013-12-22T14:48:36Z</time>
      </trkpt>
      <trkpt lat="44.80793" lon="-0.37001">
        <ele>48</ele>
        <time>2013-12-22T14:48:46Z</time>
      </trkpt>
      <trkpt lat="44.80764" lon="-0.37012">
        <ele>49</ele>
        <time>2013-12-22T14:48:54Z</time>
      </trkpt>
      <trkpt lat="44.80726" lon="-0.37031">
        <ele>51</ele>
        <time>2013-12-22T14:49:05Z</time>
      </trkpt>
      <trkpt lat="44.80697" lon="-0.37046">
        <ele>53</ele>
        <time>2013-12-22T14:49:14Z</time>
      </trkpt>
      <trkpt lat="44.80677" lon="-0.37063">
        <ele>55</ele>
        <time>2013-12-22T14:49:22Z</time>
      </trkpt>
      <trkpt lat="44.80653" lon="-0.37096">
        <ele>59</ele>
        <time>2013-12-22T14:49:33Z</time>
      </trkpt>
      <trkpt lat="44.80633" lon="-0.3713">
        <ele>61</ele>
        <time>2013-12-22T14:49:44Z</time>
      </trkpt>
      <trkpt lat="44.80619" lon="-0.37153">
        <ele>63</ele>
        <time>2013-12-22T14:49:52Z</time>
      </trkpt>
      <trkpt lat="44.80605" lon="-0.37178">
        <ele>64</ele>
        <time>2013-12-22T14:50:01Z</time>
      </trkpt>
      <trkpt lat="44.80592" lon="-0.37199">
        <ele>65</ele>
        <time>2013-12-22T14:50:10Z</time>
      </trkpt>
      <trkpt lat="44.80578" lon="-0.37223">
        <ele>65</ele>
        <time>2013-12-22T14:50:20Z</time>
      </trkpt>
      <trkpt lat="44.80575" lon="-0.37226">
        <ele>66</ele>
        <time>2013-12-22T14:50:27Z</time>
      </trkpt>
      <trkpt lat="44.80572" lon="-0.37226">
        <ele>66</ele>
        <time>2013-12-22T14:50:31Z</time>
      </trkpt>
      <trkpt lat="44.80571" lon="-0.37224">
        <ele>66</ele>
        <time>2013-12-22T14:50:34Z</time>
      </trkpt>
      <trkpt lat="44.8057" lon="-0.37223">
        <ele>66</ele>
        <time>2013-12-22T14:50:39Z</time>
      </trkpt>
      <trkpt lat="44.80568" lon="-0.37224">
        <ele>66</ele>
        <time>2013-12-22T14:50:46Z</time>
      </trkpt>
      <trkpt lat="44.80566" lon="-0.37223">
        <ele>66</ele>
        <time>2013-12-22T14:50:55Z</time>
      </trkpt>
      <trkpt lat="44.80565" lon="-0.37222">
        <ele>66</ele>
        <time>2013-12-22T14:51:02Z</time>
      </trkpt>
      <trkpt lat="44.80562" lon="-0.37221">
        <ele>66</ele>
        <time>2013-12-22T14:51:09Z</time>
      </trkpt>
      <trkpt lat="44.80559" lon="-0.37219">
        <ele>66</ele>
        <time>2013-12-22T14:51:15Z</time>
      </trkpt>
      <trkpt lat="44.80555" lon="-0.37216">
        <ele>66</ele>
        <time>2013-12-22T14:51:23Z</time>
      </trkpt>
      <trkpt lat="44.80551" lon="-0.37215">
        <ele>66</ele>
        <time>2013-12-22T14:51:30Z</time>
      </trkpt>
      <trkpt lat="44.80551" lon="-0.37215">
        <ele>66</ele>
        <time>2013-12-22T14:51:39Z</time>
      </trkpt>
      <trkpt lat="44.8055" lon="-0.37214">
        <ele>66</ele>
        <time>2013-12-22T14:51:52Z</time>
      </trkpt>
      <trkpt lat="44.80546" lon="-0.37213">
        <ele>66</ele>
        <time>2013-12-22T14:51:59Z</time>
      </trkpt>
      <trkpt lat="44.80541" lon="-0.37211">
        <ele>66</ele>
        <time>2013-12-22T14:52:03Z</time>
      </trkpt>
      <trkpt lat="44.8054" lon="-0.37211">
        <ele>66</ele>
        <time>2013-12-22T14:52:04Z</time>
      </trkpt>
      <trkpt lat="44.80532" lon="-0.37207">
        <ele>66</ele>
        <time>2013-12-22T14:52:10Z</time>
      </trkpt>
      <trkpt lat="44.80517" lon="-0.37205">
        <ele>65</ele>
        <time>2013-12-22T14:52:18Z</time>
      </trkpt>
      <trkpt lat="44.80508" lon="-0.37203">
        <ele>65</ele>
        <time>2013-12-22T14:52:24Z</time>
      </trkpt>
      <trkpt lat="44.80503" lon="-0.37201">
        <ele>65</ele>
        <time>2013-12-22T14:52:31Z</time>
      </trkpt>
      <trkpt lat="44.80498" lon="-0.37199">
        <ele>64</ele>
        <time>2013-12-22T14:52:38Z</time>
      </trkpt>
      <trkpt lat="44.8049" lon="-0.37194">
        <ele>64</ele>
        <time>2013-12-22T14:52:45Z</time>
      </trkpt>
      <trkpt lat="44.80488" lon="-0.37193">
        <ele>64</ele>
        <time>2013-12-22T14:52:46Z</time>
      </trkpt>
      <trkpt lat="44.80469" lon="-0.37188">
        <ele>63</ele>
        <time>2013-12-22T14:52:54Z</time>
      </trkpt>
      <trkpt lat="44.80467" lon="-0.37182">
        <ele>62</ele>
        <time>2013-12-22T14:53:00Z</time>
      </trkpt>
      <trkpt lat="44.80466" lon="-0.37178">
        <ele>62</ele>
        <time>2013-12-22T14:53:08Z</time>
      </trkpt>
      <trkpt lat="44.80466" lon="-0.37174">
        <ele>62</ele>
        <time>2013-12-22T14:53:15Z</time>
      </trkpt>
      <trkpt lat="44.80466" lon="-0.37168">
        <ele>62</ele>
        <time>2013-12-22T14:53:26Z</time>
      </trkpt>
      <trkpt lat="44.80466" lon="-0.37163">
        <ele>62</ele>
        <time>2013-12-22T14:53:32Z</time>
      </trkpt>
      <trkpt lat="44.80464" lon="-0.37145">
        <ele>62</ele>
        <time>2013-12-22T14:53:40Z</time>
      </trkpt>
      <trkpt lat="44.80464" lon="-0.37143">
        <ele>62</ele>
        <time>2013-12-22T14:53:47Z</time>
      </trkpt>
      <trkpt lat="44.80464" lon="-0.37136">
        <ele>62</ele>
        <time>2013-12-22T14:53:53Z</time>
      </trkpt>
      <trkpt lat="44.80463" lon="-0.37125">
        <ele>61</ele>
        <time>2013-12-22T14:53:57Z</time>
      </trkpt>
      <trkpt lat="44.8046" lon="-0.37108">
        <ele>60</ele>
        <time>2013-12-22T14:54:03Z</time>
      </trkpt>
      <trkpt lat="44.80459" lon="-0.37105">
        <ele>59</ele>
        <time>2013-12-22T14:54:04Z</time>
      </trkpt>
      <trkpt lat="44.80454" lon="-0.37088">
        <ele>58</ele>
        <time>2013-12-22T14:54:08Z</time>
      </trkpt>
      <trkpt lat="44.80443" lon="-0.37073">
        <ele>56</ele>
        <time>2013-12-22T14:54:13Z</time>
      </trkpt>
      <trkpt lat="44.80438" lon="-0.37068">
        <ele>56</ele>
        <time>2013-12-22T14:54:16Z</time>
      </trkpt>
      <trkpt lat="44.80426" lon="-0.37055">
        <ele>55</ele>
        <time>2013-12-22T14:54:22Z</time>
      </trkpt>
      <trkpt lat="44.80417" lon="-0.37049">
        <ele>54</ele>
        <time>2013-12-22T14:54:30Z</time>
      </trkpt>
      <trkpt lat="44.80416" lon="-0.37048">
        <ele>54</ele>
        <time>2013-12-22T14:54:40Z</time>
      </trkpt>
      <trkpt lat="44.80416" lon="-0.37046">
        <ele>54</ele>
        <time>2013-12-22T14:54:57Z</time>
      </trkpt>
      <trkpt lat="44.80415" lon="-0.37046">
        <ele>54</ele>
        <time>2013-12-22T14:55:04Z</time>
      </trkpt>
      <trkpt lat="44.8041" lon="-0.37044">
        <ele>54</ele>
        <time>2013-12-22T14:55:10Z</time>
      </trkpt>
      <trkpt lat="44.80405" lon="-0.3704">
        <ele>54</ele>
        <time>2013-12-22T14:55:16Z</time>
      </trkpt>
      <trkpt lat="44.80404" lon="-0.3704">
        <ele>54</ele>
        <time>2013-12-22T14:55:17Z</time>
      </trkpt>
      <trkpt lat="44.804" lon="-0.37041">
        <ele>55</ele>
        <time>2013-12-22T14:55:20Z</time>
      </trkpt>
      <trkpt lat="44.80391" lon="-0.37044">
        <ele>55</ele>
        <time>2013-12-22T14:55:25Z</time>
      </trkpt>
      <trkpt lat="44.80384" lon="-0.37045">
        <ele>55</ele>
        <time>2013-12-22T14:55:33Z</time>
      </trkpt>
      <trkpt lat="44.80379" lon="-0.37048">
        <ele>55</ele>
        <time>2013-12-22T14:55:41Z</time>
      </trkpt>
      <trkpt lat="44.80374" lon="-0.37051">
        <ele>55</ele>
        <time>2013-12-22T14:55:47Z</time>
      </trkpt>
      <trkpt lat="44.80373" lon="-0.37051">
        <ele>56</ele>
        <time>2013-12-22T14:55:54Z</time>
      </trkpt>
      <trkpt lat="44.80366" lon="-0.37051">
        <ele>56</ele>
        <time>2013-12-22T14:56:01Z</time>
      </trkpt>
      <trkpt lat="44.8036" lon="-0.37052">
        <ele>57</ele>
        <time>2013-12-22T14:56:07Z</time>
      </trkpt>
      <trkpt lat="44.80355" lon="-0.3705">
        <ele>57</ele>
        <time>2013-12-22T14:56:13Z</time>
      </trkpt>
      <trkpt lat="44.8035" lon="-0.37049">
        <ele>58</ele>
        <time>2013-12-22T14:56:19Z</time>
      </trkpt>
      <trkpt lat="44.80342" lon="-0.37047">
        <ele>58</ele>
        <time>2013-12-22T14:56:28Z</time>
      </trkpt>
      <trkpt lat="44.80339" lon="-0.37046">
        <ele>59</ele>
        <time>2013-12-22T14:56:35Z</time>
      </trkpt>
      <trkpt lat="44.80338" lon="-0.37046">
        <ele>59</ele>
        <time>2013-12-22T14:56:41Z</time>
      </trkpt>
      <trkpt lat="44.80335" lon="-0.37045">
        <ele>59</ele>
        <time>2013-12-22T14:56:48Z</time>
      </trkpt>
      <trkpt lat="44.80328" lon="-0.37044">
        <ele>60</ele>
        <time>2013-12-22T14:56:54Z</time>
      </trkpt>
      <trkpt lat="44.80319" lon="-0.37041">
        <ele>60</ele>
        <time>2013-12-22T14:57:01Z</time>
      </trkpt>
      <trkpt lat="44.80314" lon="-0.37038">
        <ele>61</ele>
        <time>2013-12-22T14:57:07Z</time>
      </trkpt>
      <trkpt lat="44.80313" lon="-0.37036">
        <ele>61</ele>
        <time>2013-12-22T14:57:09Z</time>
      </trkpt>
      <trkpt lat="44.8031" lon="-0.37033">
        <ele>61</ele>
        <time>2013-12-22T14:57:12Z</time>
      </trkpt>
      <trkpt lat="44.80308" lon="-0.3703">
        <ele>62</ele>
        <time>2013-12-22T14:57:14Z</time>
      </trkpt>
      <trkpt lat="44.80295" lon="-0.37023">
        <ele>63</ele>
        <time>2013-12-22T14:57:22Z</time>
      </trkpt>
      <trkpt lat="44.80289" lon="-0.37019">
        <ele>63</ele>
        <time>2013-12-22T14:57:28Z</time>
      </trkpt>
      <trkpt lat="44.80282" lon="-0.37018">
        <ele>64</ele>
        <time>2013-12-22T14:57:32Z</time>
      </trkpt>
      <trkpt lat="44.80277" lon="-0.37018">
        <ele>64</ele>
        <time>2013-12-22T14:57:34Z</time>
      </trkpt>
      <trkpt lat="44.8027" lon="-0.37024">
        <ele>65</ele>
        <time>2013-12-22T14:57:39Z</time>
      </trkpt>
      <trkpt lat="44.8026" lon="-0.37037">
        <ele>65</ele>
        <time>2013-12-22T14:57:47Z</time>
      </trkpt>
      <trkpt lat="44.80255" lon="-0.37039">
        <ele>66</ele>
        <time>2013-12-22T14:57:52Z</time>
      </trkpt>
      <trkpt lat="44.80249" lon="-0.37037">
        <ele>66</ele>
        <time>2013-12-22T14:57:57Z</time>
      </trkpt>
      <trkpt lat="44.80239" lon="-0.37037">
        <ele>67</ele>
        <time>2013-12-22T14:58:05Z</time>
      </trkpt>
      <trkpt lat="44.80234" lon="-0.37036">
        <ele>67</ele>
        <time>2013-12-22T14:58:10Z</time>
      </trkpt>
      <trkpt lat="44.80229" lon="-0.37036">
        <ele>68</ele>
        <time>2013-12-22T14:58:14Z</time>
      </trkpt>
      <trkpt lat="44.80221" lon="-0.37036">
        <ele>68</ele>
        <time>2013-12-22T14:58:19Z</time>
      </trkpt>
      <trkpt lat="44.80206" lon="-0.37027">
        <ele>69</ele>
        <time>2013-12-22T14:58:27Z</time>
      </trkpt>
      <trkpt lat="44.80196" lon="-0.37011">
        <ele>70</ele>
        <time>2013-12-22T14:58:35Z</time>
      </trkpt>
      <trkpt lat="44.80181" lon="-0.37007">
        <ele>71</ele>
        <time>2013-12-22T14:58:43Z</time>
      </trkpt>
      <trkpt lat="44.80179" lon="-0.37007">
        <ele>71</ele>
        <time>2013-12-22T14:58:44Z</time>
      </trkpt>
      <trkpt lat="44.80165" lon="-0.37004">
        <ele>71</ele>
        <time>2013-12-22T14:58:52Z</time>
      </trkpt>
      <trkpt lat="44.80152" lon="-0.37002">
        <ele>72</ele>
        <time>2013-12-22T14:58:58Z</time>
      </trkpt>
      <trkpt lat="44.80141" lon="-0.36999">
        <ele>72</ele>
        <time>2013-12-22T14:59:05Z</time>
      </trkpt>
      <trkpt lat="44.80139" lon="-0.36995">
        <ele>72</ele>
        <time>2013-12-22T14:59:08Z</time>
      </trkpt>
      <trkpt lat="44.80131" lon="-0.36996">
        <ele>72</ele>
        <time>2013-12-22T14:59:12Z</time>
      </trkpt>
      <trkpt lat="44.80127" lon="-0.36997">
        <ele>72</ele>
        <time>2013-12-22T14:59:14Z</time>
      </trkpt>
      <trkpt lat="44.8011" lon="-0.37">
        <ele>73</ele>
        <time>2013-12-22T14:59:22Z</time>
      </trkpt>
      <trkpt lat="44.80094" lon="-0.36999">
        <ele>74</ele>
        <time>2013-12-22T14:59:30Z</time>
      </trkpt>
      <trkpt lat="44.80089" lon="-0.37">
        <ele>74</ele>
        <time>2013-12-22T14:59:33Z</time>
      </trkpt>
      <trkpt lat="44.8008" lon="-0.37002">
        <ele>75</ele>
        <time>2013-12-22T14:59:39Z</time>
      </trkpt>
      <trkpt lat="44.80076" lon="-0.37001">
        <ele>75</ele>
        <time>2013-12-22T14:59:41Z</time>
      </trkpt>
      <trkpt lat="44.8007" lon="-0.37001">
        <ele>75</ele>
        <time>2013-12-22T14:59:44Z</time>
      </trkpt>
      <trkpt lat="44.8006" lon="-0.36999">
        <ele>76</ele>
        <time>2013-12-22T14:59:49Z</time>
      </trkpt>
      <trkpt lat="44.80046" lon="-0.36996">
        <ele>78</ele>
        <time>2013-12-22T14:59:57Z</time>
      </trkpt>
      <trkpt lat="44.80034" lon="-0.36992">
        <ele>80</ele>
        <time>2013-12-22T15:00:05Z</time>
      </trkpt>
      <trkpt lat="44.80026" lon="-0.36991">
        <ele>81</ele>
        <time>2013-12-22T15:00:10Z</time>
      </trkpt>
      <trkpt lat="44.80012" lon="-0.36988">
        <ele>82</ele>
        <time>2013-12-22T15:00:17Z</time>
      </trkpt>
      <trkpt lat="44.80005" lon="-0.36989">
        <ele>83</ele>
        <time>2013-12-22T15:00:23Z</time>
      </trkpt>
      <trkpt lat="44.79999" lon="-0.36988">
        <ele>84</ele>
        <time>2013-12-22T15:00:27Z</time>
      </trkpt>
      <trkpt lat="44.79983" lon="-0.36986">
        <ele>85</ele>
        <time>2013-12-22T15:00:35Z</time>
      </trkpt>
      <trkpt lat="44.79972" lon="-0.36984">
        <ele>86</ele>
        <time>2013-12-22T15:00:41Z</time>
      </trkpt>
      <trkpt lat="44.79959" lon="-0.3698">
        <ele>87</ele>
        <time>2013-12-22T15:00:49Z</time>
      </trkpt>
      <trkpt lat="44.79952" lon="-0.3698">
        <ele>88</ele>
        <time>2013-12-22T15:00:54Z</time>
      </trkpt>
      <trkpt lat="44.79943" lon="-0.36987">
        <ele>88</ele>
        <time>2013-12-22T15:01:02Z</time>
      </trkpt>
      <trkpt lat="44.79941" lon="-0.36989">
        <ele>89</ele>
        <time>2013-12-22T15:01:04Z</time>
      </trkpt>
      <trkpt lat="44.79935" lon="-0.36995">
        <ele>89</ele>
        <time>2013-12-22T15:01:11Z</time>
      </trkpt>
      <trkpt lat="44.79924" lon="-0.37005">
        <ele>89</ele>
        <time>2013-12-22T15:01:17Z</time>
      </trkpt>
      <trkpt lat="44.79909" lon="-0.37021">
        <ele>89</ele>
        <time>2013-12-22T15:01:24Z</time>
      </trkpt>
      <trkpt lat="44.79893" lon="-0.37039">
        <ele>90</ele>
        <time>2013-12-22T15:01:31Z</time>
      </trkpt>
      <trkpt lat="44.79878" lon="-0.37052">
        <ele>90</ele>
        <time>2013-12-22T15:01:37Z</time>
      </trkpt>
      <trkpt lat="44.79861" lon="-0.37066">
        <ele>90</ele>
        <time>2013-12-22T15:01:45Z</time>
      </trkpt>
      <trkpt lat="44.79858" lon="-0.37062">
        <ele>91</ele>
        <time>2013-12-22T15:01:50Z</time>
      </trkpt>
      <trkpt lat="44.79857" lon="-0.37061">
        <ele>91</ele>
        <time>2013-12-22T15:01:57Z</time>
      </trkpt>
      <trkpt lat="44.79857" lon="-0.37061">
        <ele>91</ele>
        <time>2013-12-22T15:02:08Z</time>
      </trkpt>
      <trkpt lat="44.79855" lon="-0.37045">
        <ele>92</ele>
        <time>2013-12-22T15:02:16Z</time>
      </trkpt>
      <trkpt lat="44.79851" lon="-0.37026">
        <ele>93</ele>
        <time>2013-12-22T15:02:24Z</time>
      </trkpt>
      <trkpt lat="44.79848" lon="-0.37008">
        <ele>94</ele>
        <time>2013-12-22T15:02:32Z</time>
      </trkpt>
      <trkpt lat="44.79846" lon="-0.36993">
        <ele>95</ele>
        <time>2013-12-22T15:02:39Z</time>
      </trkpt>
      <trkpt lat="44.79844" lon="-0.36983">
        <ele>95</ele>
        <time>2013-12-22T15:02:45Z</time>
      </trkpt>
      <trkpt lat="44.79835" lon="-0.36977">
        <ele>96</ele>
        <time>2013-12-22T15:02:53Z</time>
      </trkpt>
      <trkpt lat="44.79826" lon="-0.36976">
        <ele>96</ele>
        <time>2013-12-22T15:03:00Z</time>
      </trkpt>
      <trkpt lat="44.79822" lon="-0.36976">
        <ele>96</ele>
        <time>2013-12-22T15:03:03Z</time>
      </trkpt>
      <trkpt lat="44.79806" lon="-0.36987">
        <ele>97</ele>
        <time>2013-12-22T15:03:13Z</time>
      </trkpt>
      <trkpt lat="44.79792" lon="-0.37">
        <ele>97</ele>
        <time>2013-12-22T15:03:21Z</time>
      </trkpt>
      <trkpt lat="44.7979" lon="-0.37003">
        <ele>97</ele>
        <time>2013-12-22T15:03:23Z</time>
      </trkpt>
      <trkpt lat="44.79791" lon="-0.37018">
        <ele>97</ele>
        <time>2013-12-22T15:03:31Z</time>
      </trkpt>
      <trkpt lat="44.79791" lon="-0.3702">
        <ele>97</ele>
        <time>2013-12-22T15:03:32Z</time>
      </trkpt>
      <trkpt lat="44.79791" lon="-0.37029">
        <ele>97</ele>
        <time>2013-12-22T15:03:39Z</time>
      </trkpt>
      <trkpt lat="44.79787" lon="-0.37034">
        <ele>97</ele>
        <time>2013-12-22T15:03:43Z</time>
      </trkpt>
      <trkpt lat="44.79781" lon="-0.37037">
        <ele>97</ele>
        <time>2013-12-22T15:03:48Z</time>
      </trkpt>
      <trkpt lat="44.7977" lon="-0.37038">
        <ele>98</ele>
        <time>2013-12-22T15:03:58Z</time>
      </trkpt>
      <trkpt lat="44.79767" lon="-0.37038">
        <ele>98</ele>
        <time>2013-12-22T15:04:00Z</time>
      </trkpt>
      <trkpt lat="44.79756" lon="-0.37042">
        <ele>99</ele>
        <time>2013-12-22T15:04:09Z</time>
      </trkpt>
      <trkpt lat="44.79747" lon="-0.3705">
        <ele>99</ele>
        <time>2013-12-22T15:04:17Z</time>
      </trkpt>
      <trkpt lat="44.79738" lon="-0.37058">
        <ele>99</ele>
        <time>2013-12-22T15:04:26Z</time>
      </trkpt>
      <trkpt lat="44.79733" lon="-0.37065">
        <ele>99</ele>
        <time>2013-12-22T15:04:33Z</time>
      </trkpt>
      <trkpt lat="44.79729" lon="-0.37068">
        <ele>99</ele>
        <time>2013-12-22T15:04:36Z</time>
      </trkpt>
      <trkpt lat="44.79726" lon="-0.37061">
        <ele>99</ele>
        <time>2013-12-22T15:04:42Z</time>
      </trkpt>
      <trkpt lat="44.79722" lon="-0.3705">
        <ele>99</ele>
        <time>2013-12-22T15:04:48Z</time>
      </trkpt>
      <trkpt lat="44.79717" lon="-0.37027">
        <ele>99</ele>
        <time>2013-12-22T15:04:58Z</time>
      </trkpt>
      <trkpt lat="44.79711" lon="-0.37004">
        <ele>99</ele>
        <time>2013-12-22T15:05:06Z</time>
      </trkpt>
      <trkpt lat="44.79709" lon="-0.37001">
        <ele>99</ele>
        <time>2013-12-22T15:05:07Z</time>
      </trkpt>
      <trkpt lat="44.79701" lon="-0.3699">
        <ele>98</ele>
        <time>2013-12-22T15:05:13Z</time>
      </trkpt>
      <trkpt lat="44.79689" lon="-0.36975">
        <ele>97</ele>
        <time>2013-12-22T15:05:20Z</time>
      </trkpt>
      <trkpt lat="44.79679" lon="-0.36971">
        <ele>96</ele>
        <time>2013-12-22T15:05:25Z</time>
      </trkpt>
      <trkpt lat="44.79667" lon="-0.36974">
        <ele>95</ele>
        <time>2013-12-22T15:05:32Z</time>
      </trkpt>
      <trkpt lat="44.79663" lon="-0.36973">
        <ele>95</ele>
        <time>2013-12-22T15:05:34Z</time>
      </trkpt>
      <trkpt lat="44.79649" lon="-0.36973">
        <ele>94</ele>
        <time>2013-12-22T15:05:41Z</time>
      </trkpt>
      <trkpt lat="44.79633" lon="-0.36971">
        <ele>93</ele>
        <time>2013-12-22T15:05:47Z</time>
      </trkpt>
      <trkpt lat="44.79628" lon="-0.36967">
        <ele>92</ele>
        <time>2013-12-22T15:05:51Z</time>
      </trkpt>
      <trkpt lat="44.79624" lon="-0.36966">
        <ele>92</ele>
        <time>2013-12-22T15:05:54Z</time>
      </trkpt>
      <trkpt lat="44.79613" lon="-0.36968">
        <ele>91</ele>
        <time>2013-12-22T15:05:59Z</time>
      </trkpt>
      <trkpt lat="44.79607" lon="-0.36965">
        <ele>91</ele>
        <time>2013-12-22T15:06:03Z</time>
      </trkpt>
      <trkpt lat="44.79601" lon="-0.36961">
        <ele>90</ele>
        <time>2013-12-22T15:06:08Z</time>
      </trkpt>
      <trkpt lat="44.79595" lon="-0.36953">
        <ele>89</ele>
        <time>2013-12-22T15:06:15Z</time>
      </trkpt>
      <trkpt lat="44.79593" lon="-0.36952">
        <ele>88</ele>
        <time>2013-12-22T15:06:16Z</time>
      </trkpt>
      <trkpt lat="44.7958" lon="-0.36944">
        <ele>87</ele>
        <time>2013-12-22T15:06:24Z</time>
      </trkpt>
      <trkpt lat="44.79577" lon="-0.3694">
        <ele>86</ele>
        <time>2013-12-22T15:06:27Z</time>
      </trkpt>
      <trkpt lat="44.79571" lon="-0.36931">
        <ele>85</ele>
        <time>2013-12-22T15:06:33Z</time>
      </trkpt>
      <trkpt lat="44.7957" lon="-0.3693">
        <ele>85</ele>
        <time>2013-12-22T15:06:34Z</time>
      </trkpt>
      <trkpt lat="44.79566" lon="-0.36926">
        <ele>84</ele>
        <time>2013-12-22T15:06:37Z</time>
      </trkpt>
      <trkpt lat="44.79558" lon="-0.36912">
        <ele>83</ele>
        <time>2013-12-22T15:06:43Z</time>
      </trkpt>
      <trkpt lat="44.79557" lon="-0.3691">
        <ele>82</ele>
        <time>2013-12-22T15:06:44Z</time>
      </trkpt>
      <trkpt lat="44.79552" lon="-0.36896">
        <ele>81</ele>
        <time>2013-12-22T15:06:50Z</time>
      </trkpt>
      <trkpt lat="44.79545" lon="-0.36887">
        <ele>80</ele>
        <time>2013-12-22T15:06:57Z</time>
      </trkpt>
      <trkpt lat="44.79541" lon="-0.36883">
        <ele>79</ele>
        <time>2013-12-22T15:07:04Z</time>
      </trkpt>
      <trkpt lat="44.79534" lon="-0.36879">
        <ele>79</ele>
        <time>2013-12-22T15:07:09Z</time>
      </trkpt>
      <trkpt lat="44.79525" lon="-0.36873">
        <ele>78</ele>
        <time>2013-12-22T15:07:15Z</time>
      </trkpt>
      <trkpt lat="44.79513" lon="-0.36867">
        <ele>77</ele>
        <time>2013-12-22T15:07:22Z</time>
      </trkpt>
      <trkpt lat="44.79508" lon="-0.36867">
        <ele>77</ele>
        <time>2013-12-22T15:07:25Z</time>
      </trkpt>
      <trkpt lat="44.79495" lon="-0.36873">
        <ele>78</ele>
        <time>2013-12-22T15:07:33Z</time>
      </trkpt>
      <trkpt lat="44.79483" lon="-0.36875">
        <ele>78</ele>
        <time>2013-12-22T15:07:38Z</time>
      </trkpt>
      <trkpt lat="44.79468" lon="-0.36879">
        <ele>78</ele>
        <time>2013-12-22T15:07:45Z</time>
      </trkpt>
      <trkpt lat="44.79461" lon="-0.36884">
        <ele>78</ele>
        <time>2013-12-22T15:07:49Z</time>
      </trkpt>
      <trkpt lat="44.79447" lon="-0.36881">
        <ele>78</ele>
        <time>2013-12-22T15:07:56Z</time>
      </trkpt>
      <trkpt lat="44.79444" lon="-0.36882">
        <ele>78</ele>
        <time>2013-12-22T15:08:00Z</time>
      </trkpt>
      <trkpt lat="44.79442" lon="-0.3688">
        <ele>77</ele>
        <time>2013-12-22T15:08:02Z</time>
      </trkpt>
      <trkpt lat="44.79438" lon="-0.36862">
        <ele>76</ele>
        <time>2013-12-22T15:08:07Z</time>
      </trkpt>
      <trkpt lat="44.79438" lon="-0.36859">
        <ele>76</ele>
        <time>2013-12-22T15:08:08Z</time>
      </trkpt>
      <trkpt lat="44.79437" lon="-0.36845">
        <ele>74</ele>
        <time>2013-12-22T15:08:15Z</time>
      </trkpt>
      <trkpt lat="44.79435" lon="-0.36832">
        <ele>74</ele>
        <time>2013-12-22T15:08:21Z</time>
      </trkpt>
      <trkpt lat="44.79435" lon="-0.36821">
        <ele>73</ele>
        <time>2013-12-22T15:08:26Z</time>
      </trkpt>
      <trkpt lat="44.79433" lon="-0.36807">
        <ele>72</ele>
        <time>2013-12-22T15:08:32Z</time>
      </trkpt>
      <trkpt lat="44.79431" lon="-0.36797">
        <ele>71</ele>
        <time>2013-12-22T15:08:38Z</time>
      </trkpt>
      <trkpt lat="44.79427" lon="-0.36788">
        <ele>71</ele>
        <time>2013-12-22T15:08:44Z</time>
      </trkpt>
      <trkpt lat="44.79421" lon="-0.36784">
        <ele>71</ele>
        <time>2013-12-22T15:08:51Z</time>
      </trkpt>
      <trkpt lat="44.79415" lon="-0.36781">
        <ele>71</ele>
        <time>2013-12-22T15:08:58Z</time>
      </trkpt>
      <trkpt lat="44.79413" lon="-0.36781">
        <ele>71</ele>
        <time>2013-12-22T15:09:02Z</time>
      </trkpt>
      <trkpt lat="44.79407" lon="-0.36778">
        <ele>71</ele>
        <time>2013-12-22T15:09:05Z</time>
      </trkpt>
      <trkpt lat="44.79391" lon="-0.36781">
        <ele>71</ele>
        <time>2013-12-22T15:09:12Z</time>
      </trkpt>
      <trkpt lat="44.79375" lon="-0.36782">
        <ele>71</ele>
        <time>2013-12-22T15:09:18Z</time>
      </trkpt>
      <trkpt lat="44.79369" lon="-0.36783">
        <ele>71</ele>
        <time>2013-12-22T15:09:20Z</time>
      </trkpt>
      <trkpt lat="44.79359" lon="-0.3678">
        <ele>71</ele>
        <time>2013-12-22T15:09:25Z</time>
      </trkpt>
      <trkpt lat="44.79344" lon="-0.3678">
        <ele>71</ele>
        <time>2013-12-22T15:09:33Z</time>
      </trkpt>
      <trkpt lat="44.7934" lon="-0.3678">
        <ele>71</ele>
        <time>2013-12-22T15:09:35Z</time>
      </trkpt>
      <trkpt lat="44.79328" lon="-0.36775">
        <ele>71</ele>
        <time>2013-12-22T15:09:42Z</time>
      </trkpt>
      <trkpt lat="44.79323" lon="-0.36761">
        <ele>70</ele>
        <time>2013-12-22T15:09:49Z</time>
      </trkpt>
      <trkpt lat="44.79318" lon="-0.36746">
        <ele>70</ele>
        <time>2013-12-22T15:09:56Z</time>
      </trkpt>
      <trkpt lat="44.79317" lon="-0.36745">
        <ele>70</ele>
        <time>2013-12-22T15:10:03Z</time>
      </trkpt>
      <trkpt lat="44.79317" lon="-0.36745">
        <ele>70</ele>
        <time>2013-12-22T15:10:16Z</time>
      </trkpt>
      <trkpt lat="44.79315" lon="-0.36742">
        <ele>70</ele>
        <time>2013-12-22T15:10:28Z</time>
      </trkpt>
      <trkpt lat="44.79314" lon="-0.36742">
        <ele>70</ele>
        <time>2013-12-22T15:10:42Z</time>
      </trkpt>
      <trkpt lat="44.79314" lon="-0.36742">
        <ele>70</ele>
        <time>2013-12-22T15:10:55Z</time>
      </trkpt>
      <trkpt lat="44.79315" lon="-0.36742">
        <ele>70</ele>
        <time>2013-12-22T15:11:08Z</time>
      </trkpt>
      <trkpt lat="44.79315" lon="-0.36742">
        <ele>70</ele>
        <time>2013-12-22T15:11:14Z</time>
      </trkpt>
      <trkpt lat="44.79315" lon="-0.3674">
        <ele>70</ele>
        <time>2013-12-22T15:11:23Z</time>
      </trkpt>
      <trkpt lat="44.79315" lon="-0.36739">
        <ele>70</ele>
        <time>2013-12-22T15:11:36Z</time>
      </trkpt>
      <trkpt lat="44.79315" lon="-0.3674">
        <ele>70</ele>
        <time>2013-12-22T15:11:55Z</time>
      </trkpt>
      <trkpt lat="44.79314" lon="-0.36741">
        <ele>70</ele>
        <time>2013-12-22T15:12:12Z</time>
      </trkpt>
      <trkpt lat="44.79314" lon="-0.36741">
        <ele>70</ele>
        <time>2013-12-22T15:12:20Z</time>
      </trkpt>
      <trkpt lat="44.79314" lon="-0.3674">
        <ele>70</ele>
        <time>2013-12-22T15:12:29Z</time>
      </trkpt>
      <trkpt lat="44.79314" lon="-0.3674">
        <ele>70</ele>
        <time>2013-12-22T15:12:31Z</time>
      </trkpt>
      <trkpt lat="44.79315" lon="-0.36739">
        <ele>70</ele>
        <time>2013-12-22T15:12:33Z</time>
      </trkpt>
      <trkpt lat="44.79315" lon="-0.36734">
        <ele>70</ele>
        <time>2013-12-22T15:12:40Z</time>
      </trkpt>
      <trkpt lat="44.79317" lon="-0.3673">
        <ele>70</ele>
        <time>2013-12-22T15:12:46Z</time>
      </trkpt>
      <trkpt lat="44.79318" lon="-0.36726">
        <ele>70</ele>
        <time>2013-12-22T15:12:52Z</time>
      </trkpt>
      <trkpt lat="44.79318" lon="-0.36726">
        <ele>70</ele>
        <time>2013-12-22T15:12:53Z</time>
      </trkpt>
      <trkpt lat="44.79307" lon="-0.36734">
        <ele>70</ele>
        <time>2013-12-22T15:13:01Z</time>
      </trkpt>
      <trkpt lat="44.7929" lon="-0.36732">
        <ele>70</ele>
        <time>2013-12-22T15:13:09Z</time>
      </trkpt>
      <trkpt lat="44.7928" lon="-0.36725">
        <ele>70</ele>
        <time>2013-12-22T15:13:14Z</time>
      </trkpt>
      <trkpt lat="44.79272" lon="-0.36716">
        <ele>71</ele>
        <time>2013-12-22T15:13:20Z</time>
      </trkpt>
      <trkpt lat="44.79267" lon="-0.36706">
        <ele>71</ele>
        <time>2013-12-22T15:13:25Z</time>
      </trkpt>
      <trkpt lat="44.79258" lon="-0.3669">
        <ele>71</ele>
        <time>2013-12-22T15:13:33Z</time>
      </trkpt>
      <trkpt lat="44.79254" lon="-0.36682">
        <ele>72</ele>
        <time>2013-12-22T15:13:36Z</time>
      </trkpt>
      <trkpt lat="44.79239" lon="-0.36661">
        <ele>74</ele>
        <time>2013-12-22T15:13:45Z</time>
      </trkpt>
      <trkpt lat="44.79231" lon="-0.36645">
        <ele>75</ele>
        <time>2013-12-22T15:13:51Z</time>
      </trkpt>
      <trkpt lat="44.79227" lon="-0.36638">
        <ele>75</ele>
        <time>2013-12-22T15:13:56Z</time>
      </trkpt>
      <trkpt lat="44.79226" lon="-0.36636">
        <ele>76</ele>
        <time>2013-12-22T15:13:59Z</time>
      </trkpt>
      <trkpt lat="44.79221" lon="-0.36623">
        <ele>76</ele>
        <time>2013-12-22T15:14:07Z</time>
      </trkpt>
      <trkpt lat="44.79219" lon="-0.36619">
        <ele>77</ele>
        <time>2013-12-22T15:14:11Z</time>
      </trkpt>
      <trkpt lat="44.79218" lon="-0.36613">
        <ele>77</ele>
        <time>2013-12-22T15:14:14Z</time>
      </trkpt>
      <trkpt lat="44.79207" lon="-0.36602">
        <ele>79</ele>
        <time>2013-12-22T15:14:21Z</time>
      </trkpt>
      <trkpt lat="44.79205" lon="-0.36601">
        <ele>79</ele>
        <time>2013-12-22T15:14:22Z</time>
      </trkpt>
      <trkpt lat="44.79188" lon="-0.36584">
        <ele>82</ele>
        <time>2013-12-22T15:14:31Z</time>
      </trkpt>
      <trkpt lat="44.79179" lon="-0.36574">
        <ele>84</ele>
        <time>2013-12-22T15:14:38Z</time>
      </trkpt>
      <trkpt lat="44.79174" lon="-0.36569">
        <ele>84</ele>
        <time>2013-12-22T15:14:42Z</time>
      </trkpt>
      <trkpt lat="44.79173" lon="-0.36564">
        <ele>84</ele>
        <time>2013-12-22T15:14:45Z</time>
      </trkpt>
      <trkpt lat="44.79169" lon="-0.36557">
        <ele>85</ele>
        <time>2013-12-22T15:14:50Z</time>
      </trkpt>
      <trkpt lat="44.79162" lon="-0.36544">
        <ele>85</ele>
        <time>2013-12-22T15:14:57Z</time>
      </trkpt>
      <trkpt lat="44.79157" lon="-0.36536">
        <ele>86</ele>
        <time>2013-12-22T15:15:02Z</time>
      </trkpt>
      <trkpt lat="44.7915" lon="-0.36527">
        <ele>87</ele>
        <time>2013-12-22T15:15:08Z</time>
      </trkpt>
      <trkpt lat="44.79143" lon="-0.36517">
        <ele>87</ele>
        <time>2013-12-22T15:15:16Z</time>
      </trkpt>
      <trkpt lat="44.79133" lon="-0.36505">
        <ele>89</ele>
        <time>2013-12-22T15:15:23Z</time>
      </trkpt>
      <trkpt lat="44.79127" lon="-0.36493">
        <ele>89</ele>
        <time>2013-12-22T15:15:28Z</time>
      </trkpt>
      <trkpt lat="44.79118" lon="-0.36468">
        <ele>88</ele>
        <time>2013-12-22T15:15:36Z</time>
      </trkpt>
      <trkpt lat="44.79108" lon="-0.3644">
        <ele>88</ele>
        <time>2013-12-22T15:15:44Z</time>
      </trkpt>
      <trkpt lat="44.79098" lon="-0.36419">
        <ele>88</ele>
        <time>2013-12-22T15:15:50Z</time>
      </trkpt>
      <trkpt lat="44.79088" lon="-0.3639">
        <ele>87</ele>
        <time>2013-12-22T15:15:56Z</time>
      </trkpt>
      <trkpt lat="44.79077" lon="-0.36355">
        <ele>88</ele>
        <time>2013-12-22T15:16:03Z</time>
      </trkpt>
      <trkpt lat="44.79073" lon="-0.36312">
        <ele>89</ele>
        <time>2013-12-22T15:16:11Z</time>
      </trkpt>
      <trkpt lat="44.79071" lon="-0.36269">
        <ele>90</ele>
        <time>2013-12-22T15:16:20Z</time>
      </trkpt>
      <trkpt lat="44.79066" lon="-0.36233">
        <ele>91</ele>
        <time>2013-12-22T15:16:28Z</time>
      </trkpt>
      <trkpt lat="44.79061" lon="-0.36207">
        <ele>91</ele>
        <time>2013-12-22T15:16:35Z</time>
      </trkpt>
      <trkpt lat="44.79056" lon="-0.36189">
        <ele>92</ele>
        <time>2013-12-22T15:16:40Z</time>
      </trkpt>
      <trkpt lat="44.79042" lon="-0.36154">
        <ele>92</ele>
        <time>2013-12-22T15:16:48Z</time>
      </trkpt>
      <trkpt lat="44.7903" lon="-0.36126">
        <ele>92</ele>
        <time>2013-12-22T15:16:54Z</time>
      </trkpt>
      <trkpt lat="44.79015" lon="-0.3609">
        <ele>95</ele>
        <time>2013-12-22T15:17:02Z</time>
      </trkpt>
      <trkpt lat="44.7901" lon="-0.36053">
        <ele>95</ele>
        <time>2013-12-22T15:17:09Z</time>
      </trkpt>
      <trkpt lat="44.79012" lon="-0.36013">
        <ele>95</ele>
        <time>2013-12-22T15:17:17Z</time>
      </trkpt>
      <trkpt lat="44.79014" lon="-0.35981">
        <ele>96</ele>
        <time>2013-12-22T15:17:26Z</time>
      </trkpt>
      <trkpt lat="44.79016" lon="-0.35962">
        <ele>96</ele>
        <time>2013-12-22T15:17:33Z</time>
      </trkpt>
      <trkpt lat="44.79015" lon="-0.3596">
        <ele>96</ele>
        <time>2013-12-22T15:17:34Z</time>
      </trkpt>
      <trkpt lat="44.79011" lon="-0.35952">
        <ele>97</ele>
        <time>2013-12-22T15:17:39Z</time>
      </trkpt>
      <trkpt lat="44.78996" lon="-0.35948">
        <ele>97</ele>
        <time>2013-12-22T15:17:47Z</time>
      </trkpt>
      <trkpt lat="44.78978" lon="-0.35944">
        <ele>97</ele>
        <time>2013-12-22T15:17:55Z</time>
      </trkpt>
      <trkpt lat="44.78961" lon="-0.35943">
        <ele>97</ele>
        <time>2013-12-22T15:18:03Z</time>
      </trkpt>
      <trkpt lat="44.78943" lon="-0.35942">
        <ele>97</ele>
        <time>2013-12-22T15:18:11Z</time>
      </trkpt>
      <trkpt lat="44.78923" lon="-0.3594">
        <ele>97</ele>
        <time>2013-12-22T15:18:19Z</time>
      </trkpt>
      <trkpt lat="44.789" lon="-0.35936">
        <ele>97</ele>
        <time>2013-12-22T15:18:28Z</time>
      </trkpt>
      <trkpt lat="44.78874" lon="-0.35933">
        <ele>97</ele>
        <time>2013-12-22T15:18:36Z</time>
      </trkpt>
      <trkpt lat="44.78844" lon="-0.35926">
        <ele>97</ele>
        <time>2013-12-22T15:18:44Z</time>
      </trkpt>
      <trkpt lat="44.78799" lon="-0.3592">
        <ele>97</ele>
        <time>2013-12-22T15:18:55Z</time>
      </trkpt>
      <trkpt lat="44.78773" lon="-0.35917">
        <ele>97</ele>
        <time>2013-12-22T15:19:02Z</time>
      </trkpt>
      <trkpt lat="44.7877" lon="-0.35913">
        <ele>97</ele>
        <time>2013-12-22T15:19:03Z</time>
      </trkpt>
      <trkpt lat="44.7877" lon="-0.35907">
        <ele>97</ele>
        <time>2013-12-22T15:19:04Z</time>
      </trkpt>
      <trkpt lat="44.78772" lon="-0.35901">
        <ele>97</ele>
        <time>2013-12-22T15:19:05Z</time>
      </trkpt>
      <trkpt lat="44.78775" lon="-0.35895">
        <ele>97</ele>
        <time>2013-12-22T15:19:06Z</time>
      </trkpt>
      <trkpt lat="44.78778" lon="-0.35891">
        <ele>97</ele>
        <time>2013-12-22T15:19:07Z</time>
      </trkpt>
      <trkpt lat="44.78781" lon="-0.35887">
        <ele>97</ele>
        <time>2013-12-22T15:19:08Z</time>
      </trkpt>
      <trkpt lat="44.78784" lon="-0.35883">
        <ele>97</ele>
        <time>2013-12-22T15:19:09Z</time>
      </trkpt>
      <trkpt lat="44.78787" lon="-0.35878">
        <ele>97</ele>
        <time>2013-12-22T15:19:10Z</time>
      </trkpt>
      <trkpt lat="44.78815" lon="-0.35839">
        <ele>97</ele>
        <time>2013-12-22T15:19:19Z</time>
      </trkpt>
      <trkpt lat="44.78842" lon="-0.35807">
        <ele>97</ele>
        <time>2013-12-22T15:19:27Z</time>
      </trkpt>
      <trkpt lat="44.78853" lon="-0.35796">
        <ele>98</ele>
        <time>2013-12-22T15:19:30Z</time>
      </trkpt>
      <trkpt lat="44.78856" lon="-0.35792">
        <ele>98</ele>
        <time>2013-12-22T15:19:31Z</time>
      </trkpt>
      <trkpt lat="44.78859" lon="-0.35787">
        <ele>98</ele>
        <time>2013-12-22T15:19:32Z</time>
      </trkpt>
      <trkpt lat="44.7889" lon="-0.35749">
        <ele>98</ele>
        <time>2013-12-22T15:19:41Z</time>
      </trkpt>
      <trkpt lat="44.78927" lon="-0.35704">
        <ele>98</ele>
        <time>2013-12-22T15:19:51Z</time>
      </trkpt>
      <trkpt lat="44.78969" lon="-0.35652">
        <ele>98</ele>
        <time>2013-12-22T15:20:01Z</time>
      </trkpt>
      <trkpt lat="44.78998" lon="-0.35617">
        <ele>98</ele>
        <time>2013-12-22T15:20:08Z</time>
      </trkpt>
      <trkpt lat="44.79002" lon="-0.35613">
        <ele>98</ele>
        <time>2013-12-22T15:20:09Z</time>
      </trkpt>
      <trkpt lat="44.79025" lon="-0.35583">
        <ele>98</ele>
        <time>2013-12-22T15:20:16Z</time>
      </trkpt>
      <trkpt lat="44.79043" lon="-0.35566">
        <ele>98</ele>
        <time>2013-12-22T15:20:23Z</time>
      </trkpt>
      <trkpt lat="44.79046" lon="-0.3556">
        <ele>98</ele>
        <time>2013-12-22T15:20:27Z</time>
      </trkpt>
      <trkpt lat="44.79046" lon="-0.35558">
        <ele>98</ele>
        <time>2013-12-22T15:20:28Z</time>
      </trkpt>
      <trkpt lat="44.79035" lon="-0.35541">
        <ele>98</ele>
        <time>2013-12-22T15:20:36Z</time>
      </trkpt>
      <trkpt lat="44.79023" lon="-0.35523">
        <ele>97</ele>
        <time>2013-12-22T15:20:43Z</time>
      </trkpt>
      <trkpt lat="44.7901" lon="-0.35507">
        <ele>97</ele>
        <time>2013-12-22T15:20:50Z</time>
      </trkpt>
      <trkpt lat="44.79" lon="-0.35494">
        <ele>96</ele>
        <time>2013-12-22T15:20:56Z</time>
      </trkpt>
      <trkpt lat="44.78991" lon="-0.3548">
        <ele>96</ele>
        <time>2013-12-22T15:21:02Z</time>
      </trkpt>
      <trkpt lat="44.7899" lon="-0.35478">
        <ele>96</ele>
        <time>2013-12-22T15:21:03Z</time>
      </trkpt>
      <trkpt lat="44.78989" lon="-0.35475">
        <ele>96</ele>
        <time>2013-12-22T15:21:04Z</time>
      </trkpt>
      <trkpt lat="44.78983" lon="-0.35461">
        <ele>96</ele>
        <time>2013-12-22T15:21:10Z</time>
      </trkpt>
      <trkpt lat="44.78982" lon="-0.35459">
        <ele>96</ele>
        <time>2013-12-22T15:21:11Z</time>
      </trkpt>
      <trkpt lat="44.78975" lon="-0.35449">
        <ele>96</ele>
        <time>2013-12-22T15:21:17Z</time>
      </trkpt>
      <trkpt lat="44.7896" lon="-0.35429">
        <ele>96</ele>
        <time>2013-12-22T15:21:25Z</time>
      </trkpt>
      <trkpt lat="44.78947" lon="-0.35411">
        <ele>96</ele>
        <time>2013-12-22T15:21:33Z</time>
      </trkpt>
      <trkpt lat="44.78932" lon="-0.35394">
        <ele>96</ele>
        <time>2013-12-22T15:21:41Z</time>
      </trkpt>
      <trkpt lat="44.78925" lon="-0.35405">
        <ele>95</ele>
        <time>2013-12-22T15:21:46Z</time>
      </trkpt>
      <trkpt lat="44.78913" lon="-0.35428">
        <ele>94</ele>
        <time>2013-12-22T15:21:53Z</time>
      </trkpt>
      <trkpt lat="44.7891" lon="-0.35428">
        <ele>94</ele>
        <time>2013-12-22T15:21:54Z</time>
      </trkpt>
      <trkpt lat="44.78897" lon="-0.3542">
        <ele>94</ele>
        <time>2013-12-22T15:22:00Z</time>
      </trkpt>
      <trkpt lat="44.78878" lon="-0.35409">
        <ele>93</ele>
        <time>2013-12-22T15:22:08Z</time>
      </trkpt>
      <trkpt lat="44.78863" lon="-0.35395">
        <ele>92</ele>
        <time>2013-12-22T15:22:15Z</time>
      </trkpt>
      <trkpt lat="44.78851" lon="-0.35374">
        <ele>91</ele>
        <time>2013-12-22T15:22:21Z</time>
      </trkpt>
      <trkpt lat="44.78838" lon="-0.35338">
        <ele>90</ele>
        <time>2013-12-22T15:22:28Z</time>
      </trkpt>
      <trkpt lat="44.78833" lon="-0.35327">
        <ele>90</ele>
        <time>2013-12-22T15:22:30Z</time>
      </trkpt>
      <trkpt lat="44.78819" lon="-0.35301">
        <ele>88</ele>
        <time>2013-12-22T15:22:36Z</time>
      </trkpt>
      <trkpt lat="44.7881" lon="-0.35291">
        <ele>87</ele>
        <time>2013-12-22T15:22:39Z</time>
      </trkpt>
      <trkpt lat="44.78805" lon="-0.35288">
        <ele>87</ele>
        <time>2013-12-22T15:22:40Z</time>
      </trkpt>
      <trkpt lat="44.78802" lon="-0.35285">
        <ele>87</ele>
        <time>2013-12-22T15:22:41Z</time>
      </trkpt>
      <trkpt lat="44.78798" lon="-0.35281">
        <ele>86</ele>
        <time>2013-12-22T15:22:42Z</time>
      </trkpt>
      <trkpt lat="44.78794" lon="-0.35277">
        <ele>86</ele>
        <time>2013-12-22T15:22:43Z</time>
      </trkpt>
      <trkpt lat="44.78791" lon="-0.35273">
        <ele>85</ele>
        <time>2013-12-22T15:22:44Z</time>
      </trkpt>
      <trkpt lat="44.78764" lon="-0.35243">
        <ele>82</ele>
        <time>2013-12-22T15:22:52Z</time>
      </trkpt>
      <trkpt lat="44.78741" lon="-0.35222">
        <ele>80</ele>
        <time>2013-12-22T15:22:59Z</time>
      </trkpt>
      <trkpt lat="44.78719" lon="-0.35199">
        <ele>75</ele>
        <time>2013-12-22T15:23:07Z</time>
      </trkpt>
      <trkpt lat="44.78703" lon="-0.35172">
        <ele>72</ele>
        <time>2013-12-22T15:23:15Z</time>
      </trkpt>
      <trkpt lat="44.78693" lon="-0.35152">
        <ele>71</ele>
        <time>2013-12-22T15:23:20Z</time>
      </trkpt>
      <trkpt lat="44.78687" lon="-0.35147">
        <ele>70</ele>
        <time>2013-12-22T15:23:23Z</time>
      </trkpt>
      <trkpt lat="44.78685" lon="-0.35147">
        <ele>70</ele>
        <time>2013-12-22T15:23:24Z</time>
      </trkpt>
      <trkpt lat="44.78683" lon="-0.35147">
        <ele>70</ele>
        <time>2013-12-22T15:23:25Z</time>
      </trkpt>
      <trkpt lat="44.78678" lon="-0.35148">
        <ele>70</ele>
        <time>2013-12-22T15:23:29Z</time>
      </trkpt>
      <trkpt lat="44.78676" lon="-0.35146">
        <ele>70</ele>
        <time>2013-12-22T15:23:30Z</time>
      </trkpt>
      <trkpt lat="44.78668" lon="-0.35139">
        <ele>69</ele>
        <time>2013-12-22T15:23:36Z</time>
      </trkpt>
      <trkpt lat="44.78663" lon="-0.35137">
        <ele>70</ele>
        <time>2013-12-22T15:23:40Z</time>
      </trkpt>
      <trkpt lat="44.78662" lon="-0.35137">
        <ele>70</ele>
        <time>2013-12-22T15:23:41Z</time>
      </trkpt>
      <trkpt lat="44.78653" lon="-0.35134">
        <ele>70</ele>
        <time>2013-12-22T15:23:46Z</time>
      </trkpt>
      <trkpt lat="44.78651" lon="-0.35133">
        <ele>70</ele>
        <time>2013-12-22T15:23:47Z</time>
      </trkpt>
      <trkpt lat="44.78649" lon="-0.35132">
        <ele>71</ele>
        <time>2013-12-22T15:23:48Z</time>
      </trkpt>
      <trkpt lat="44.78638" lon="-0.35126">
        <ele>72</ele>
        <time>2013-12-22T15:23:54Z</time>
      </trkpt>
      <trkpt lat="44.78631" lon="-0.35118">
        <ele>73</ele>
        <time>2013-12-22T15:23:59Z</time>
      </trkpt>
      <trkpt lat="44.7863" lon="-0.35117">
        <ele>73</ele>
        <time>2013-12-22T15:24:00Z</time>
      </trkpt>
      <trkpt lat="44.78622" lon="-0.35109">
        <ele>75</ele>
        <time>2013-12-22T15:24:06Z</time>
      </trkpt>
      <trkpt lat="44.78618" lon="-0.35105">
        <ele>75</ele>
        <time>2013-12-22T15:24:09Z</time>
      </trkpt>
      <trkpt lat="44.78615" lon="-0.351">
        <ele>76</ele>
        <time>2013-12-22T15:24:12Z</time>
      </trkpt>
      <trkpt lat="44.78607" lon="-0.35092">
        <ele>78</ele>
        <time>2013-12-22T15:24:19Z</time>
      </trkpt>
      <trkpt lat="44.78603" lon="-0.35085">
        <ele>78</ele>
        <time>2013-12-22T15:24:25Z</time>
      </trkpt>
      <trkpt lat="44.78597" lon="-0.35081">
        <ele>79</ele>
        <time>2013-12-22T15:24:31Z</time>
      </trkpt>
      <trkpt lat="44.78592" lon="-0.35073">
        <ele>80</ele>
        <time>2013-12-22T15:24:38Z</time>
      </trkpt>
      <trkpt lat="44.78586" lon="-0.35068">
        <ele>81</ele>
        <time>2013-12-22T15:24:44Z</time>
      </trkpt>
      <trkpt lat="44.78586" lon="-0.35067">
        <ele>81</ele>
        <time>2013-12-22T15:24:45Z</time>
      </trkpt>
      <trkpt lat="44.7858" lon="-0.3506">
        <ele>82</ele>
        <time>2013-12-22T15:24:52Z</time>
      </trkpt>
      <trkpt lat="44.78575" lon="-0.35055">
        <ele>83</ele>
        <time>2013-12-22T15:24:57Z</time>
      </trkpt>
      <trkpt lat="44.78566" lon="-0.35047">
        <ele>83</ele>
        <time>2013-12-22T15:25:05Z</time>
      </trkpt>
      <trkpt lat="44.78562" lon="-0.35043">
        <ele>84</ele>
        <time>2013-12-22T15:25:11Z</time>
      </trkpt>
      <trkpt lat="44.78559" lon="-0.35041">
        <ele>84</ele>
        <time>2013-12-22T15:25:16Z</time>
      </trkpt>
      <trkpt lat="44.78555" lon="-0.35037">
        <ele>85</ele>
        <time>2013-12-22T15:25:23Z</time>
      </trkpt>
      <trkpt lat="44.78549" lon="-0.35031">
        <ele>86</ele>
        <time>2013-12-22T15:25:30Z</time>
      </trkpt>
      <trkpt lat="44.78545" lon="-0.35026">
        <ele>86</ele>
        <time>2013-12-22T15:25:37Z</time>
      </trkpt>
      <trkpt lat="44.78541" lon="-0.35021">
        <ele>87</ele>
        <time>2013-12-22T15:25:43Z</time>
      </trkpt>
      <trkpt lat="44.78536" lon="-0.35016">
        <ele>88</ele>
        <time>2013-12-22T15:25:48Z</time>
      </trkpt>
      <trkpt lat="44.7853" lon="-0.35007">
        <ele>88</ele>
        <time>2013-12-22T15:25:55Z</time>
      </trkpt>
      <trkpt lat="44.78526" lon="-0.35">
        <ele>88</ele>
        <time>2013-12-22T15:26:01Z</time>
      </trkpt>
      <trkpt lat="44.78518" lon="-0.34991">
        <ele>89</ele>
        <time>2013-12-22T15:26:09Z</time>
      </trkpt>
      <trkpt lat="44.78517" lon="-0.3499">
        <ele>89</ele>
        <time>2013-12-22T15:26:10Z</time>
      </trkpt>
      <trkpt lat="44.78507" lon="-0.3498">
        <ele>90</ele>
        <time>2013-12-22T15:26:17Z</time>
      </trkpt>
      <trkpt lat="44.78494" lon="-0.34968">
        <ele>91</ele>
        <time>2013-12-22T15:26:26Z</time>
      </trkpt>
      <trkpt lat="44.78484" lon="-0.3496">
        <ele>92</ele>
        <time>2013-12-22T15:26:34Z</time>
      </trkpt>
      <trkpt lat="44.78478" lon="-0.34954">
        <ele>92</ele>
        <time>2013-12-22T15:26:39Z</time>
      </trkpt>
      <trkpt lat="44.78478" lon="-0.34953">
        <ele>92</ele>
        <time>2013-12-22T15:26:40Z</time>
      </trkpt>
      <trkpt lat="44.78469" lon="-0.34947">
        <ele>92</ele>
        <time>2013-12-22T15:26:47Z</time>
      </trkpt>
      <trkpt lat="44.78463" lon="-0.34942">
        <ele>93</ele>
        <time>2013-12-22T15:26:52Z</time>
      </trkpt>
      <trkpt lat="44.78461" lon="-0.34942">
        <ele>93</ele>
        <time>2013-12-22T15:26:53Z</time>
      </trkpt>
      <trkpt lat="44.78459" lon="-0.34941">
        <ele>93</ele>
        <time>2013-12-22T15:26:54Z</time>
      </trkpt>
      <trkpt lat="44.78457" lon="-0.3494">
        <ele>93</ele>
        <time>2013-12-22T15:26:55Z</time>
      </trkpt>
      <trkpt lat="44.78455" lon="-0.34939">
        <ele>93</ele>
        <time>2013-12-22T15:26:56Z</time>
      </trkpt>
      <trkpt lat="44.78436" lon="-0.34931">
        <ele>93</ele>
        <time>2013-12-22T15:27:05Z</time>
      </trkpt>
      <trkpt lat="44.78417" lon="-0.34925">
        <ele>95</ele>
        <time>2013-12-22T15:27:14Z</time>
      </trkpt>
      <trkpt lat="44.78399" lon="-0.34918">
        <ele>95</ele>
        <time>2013-12-22T15:27:23Z</time>
      </trkpt>
      <trkpt lat="44.78376" lon="-0.34912">
        <ele>96</ele>
        <time>2013-12-22T15:27:33Z</time>
      </trkpt>
      <trkpt lat="44.78357" lon="-0.34907">
        <ele>96</ele>
        <time>2013-12-22T15:27:42Z</time>
      </trkpt>
      <trkpt lat="44.78337" lon="-0.34899">
        <ele>96</ele>
        <time>2013-12-22T15:27:51Z</time>
      </trkpt>
      <trkpt lat="44.78333" lon="-0.34897">
        <ele>96</ele>
        <time>2013-12-22T15:27:54Z</time>
      </trkpt>
      <trkpt lat="44.78332" lon="-0.34897">
        <ele>96</ele>
        <time>2013-12-22T15:27:55Z</time>
      </trkpt>
      <trkpt lat="44.78331" lon="-0.34898">
        <ele>96</ele>
        <time>2013-12-22T15:27:56Z</time>
      </trkpt>
      <trkpt lat="44.78329" lon="-0.34898">
        <ele>96</ele>
        <time>2013-12-22T15:27:57Z</time>
      </trkpt>
      <trkpt lat="44.78328" lon="-0.34898">
        <ele>96</ele>
        <time>2013-12-22T15:27:58Z</time>
      </trkpt>
      <trkpt lat="44.78323" lon="-0.34893">
        <ele>96</ele>
        <time>2013-12-22T15:28:05Z</time>
      </trkpt>
      <trkpt lat="44.78319" lon="-0.34893">
        <ele>96</ele>
        <time>2013-12-22T15:28:09Z</time>
      </trkpt>
      <trkpt lat="44.78317" lon="-0.34892">
        <ele>96</ele>
        <time>2013-12-22T15:28:10Z</time>
      </trkpt>
      <trkpt lat="44.78316" lon="-0.34891">
        <ele>96</ele>
        <time>2013-12-22T15:28:11Z</time>
      </trkpt>
      <trkpt lat="44.78315" lon="-0.3489">
        <ele>96</ele>
        <time>2013-12-22T15:28:12Z</time>
      </trkpt>
      <trkpt lat="44.78314" lon="-0.34889">
        <ele>96</ele>
        <time>2013-12-22T15:28:13Z</time>
      </trkpt>
      <trkpt lat="44.78303" lon="-0.34882">
        <ele>96</ele>
        <time>2013-12-22T15:28:21Z</time>
      </trkpt>
      <trkpt lat="44.7829" lon="-0.34874">
        <ele>96</ele>
        <time>2013-12-22T15:28:27Z</time>
      </trkpt>
      <trkpt lat="44.78286" lon="-0.34872">
        <ele>96</ele>
        <time>2013-12-22T15:28:29Z</time>
      </trkpt>
      <trkpt lat="44.78284" lon="-0.34871">
        <ele>96</ele>
        <time>2013-12-22T15:28:30Z</time>
      </trkpt>
      <trkpt lat="44.78283" lon="-0.3487">
        <ele>96</ele>
        <time>2013-12-22T15:28:31Z</time>
      </trkpt>
      <trkpt lat="44.78281" lon="-0.34869">
        <ele>96</ele>
        <time>2013-12-22T15:28:32Z</time>
      </trkpt>
      <trkpt lat="44.78279" lon="-0.34868">
        <ele>96</ele>
        <time>2013-12-22T15:28:33Z</time>
      </trkpt>
      <trkpt lat="44.78277" lon="-0.34867">
        <ele>96</ele>
        <time>2013-12-22T15:28:34Z</time>
      </trkpt>
      <trkpt lat="44.78276" lon="-0.34866">
        <ele>96</ele>
        <time>2013-12-22T15:28:35Z</time>
      </trkpt>
      <trkpt lat="44.78274" lon="-0.34865">
        <ele>96</ele>
        <time>2013-12-22T15:28:36Z</time>
      </trkpt>
      <trkpt lat="44.78272" lon="-0.34864">
        <ele>96</ele>
        <time>2013-12-22T15:28:37Z</time>
      </trkpt>
      <trkpt lat="44.78271" lon="-0.34864">
        <ele>96</ele>
        <time>2013-12-22T15:28:38Z</time>
      </trkpt>
      <trkpt lat="44.78269" lon="-0.34863">
        <ele>96</ele>
        <time>2013-12-22T15:28:39Z</time>
      </trkpt>
      <trkpt lat="44.78267" lon="-0.34862">
        <ele>96</ele>
        <time>2013-12-22T15:28:40Z</time>
      </trkpt>
      <trkpt lat="44.78266" lon="-0.34861">
        <ele>96</ele>
        <time>2013-12-22T15:28:41Z</time>
      </trkpt>
      <trkpt lat="44.78264" lon="-0.3486">
        <ele>96</ele>
        <time>2013-12-22T15:28:42Z</time>
      </trkpt>
      <trkpt lat="44.78251" lon="-0.3485">
        <ele>96</ele>
        <time>2013-12-22T15:28:51Z</time>
      </trkpt>
      <trkpt lat="44.78243" lon="-0.34844">
        <ele>97</ele>
        <time>2013-12-22T15:28:59Z</time>
      </trkpt>
      <trkpt lat="44.78241" lon="-0.34842">
        <ele>97</ele>
        <time>2013-12-22T15:29:06Z</time>
      </trkpt>
      <trkpt lat="44.78242" lon="-0.34843">
        <ele>97</ele>
        <time>2013-12-22T15:29:21Z</time>
      </trkpt>
      <trkpt lat="44.78238" lon="-0.34844">
        <ele>97</ele>
        <time>2013-12-22T15:29:28Z</time>
      </trkpt>
      <trkpt lat="44.78236" lon="-0.34845">
        <ele>97</ele>
        <time>2013-12-22T15:29:29Z</time>
      </trkpt>
      <trkpt lat="44.78234" lon="-0.34846">
        <ele>97</ele>
        <time>2013-12-22T15:29:30Z</time>
      </trkpt>
      <trkpt lat="44.78233" lon="-0.34848">
        <ele>97</ele>
        <time>2013-12-22T15:29:31Z</time>
      </trkpt>
      <trkpt lat="44.78231" lon="-0.3485">
        <ele>97</ele>
        <time>2013-12-22T15:29:32Z</time>
      </trkpt>
      <trkpt lat="44.78229" lon="-0.34851">
        <ele>97</ele>
        <time>2013-12-22T15:29:33Z</time>
      </trkpt>
      <trkpt lat="44.78227" lon="-0.34853">
        <ele>97</ele>
        <time>2013-12-22T15:29:34Z</time>
      </trkpt>
      <trkpt lat="44.78225" lon="-0.34855">
        <ele>97</ele>
        <time>2013-12-22T15:29:35Z</time>
      </trkpt>
      <trkpt lat="44.78224" lon="-0.34856">
        <ele>97</ele>
        <time>2013-12-22T15:29:36Z</time>
      </trkpt>
      <trkpt lat="44.78222" lon="-0.34857">
        <ele>97</ele>
        <time>2013-12-22T15:29:37Z</time>
      </trkpt>
      <trkpt lat="44.7822" lon="-0.34859">
        <ele>97</ele>
        <time>2013-12-22T15:29:38Z</time>
      </trkpt>
      <trkpt lat="44.78218" lon="-0.3486">
        <ele>97</ele>
        <time>2013-12-22T15:29:39Z</time>
      </trkpt>
      <trkpt lat="44.78202" lon="-0.34871">
        <ele>98</ele>
        <time>2013-12-22T15:29:47Z</time>
      </trkpt>
      <trkpt lat="44.78182" lon="-0.34885">
        <ele>99</ele>
        <time>2013-12-22T15:29:56Z</time>
      </trkpt>
      <trkpt lat="44.78161" lon="-0.34899">
        <ele>100</ele>
        <time>2013-12-22T15:30:04Z</time>
      </trkpt>
      <trkpt lat="44.78138" lon="-0.34913">
        <ele>100</ele>
        <time>2013-12-22T15:30:12Z</time>
      </trkpt>
      <trkpt lat="44.78115" lon="-0.34928">
        <ele>101</ele>
        <time>2013-12-22T15:30:20Z</time>
      </trkpt>
      <trkpt lat="44.78084" lon="-0.34946">
        <ele>101</ele>
        <time>2013-12-22T15:30:30Z</time>
      </trkpt>
      <trkpt lat="44.78064" lon="-0.34955">
        <ele>101</ele>
        <time>2013-12-22T15:30:36Z</time>
      </trkpt>
      <trkpt lat="44.78038" lon="-0.34964">
        <ele>102</ele>
        <time>2013-12-22T15:30:44Z</time>
      </trkpt>
      <trkpt lat="44.78008" lon="-0.34973">
        <ele>103</ele>
        <time>2013-12-22T15:30:53Z</time>
      </trkpt>
      <trkpt lat="44.77974" lon="-0.34982">
        <ele>103</ele>
        <time>2013-12-22T15:31:03Z</time>
      </trkpt>
      <trkpt lat="44.77947" lon="-0.34994">
        <ele>103</ele>
        <time>2013-12-22T15:31:11Z</time>
      </trkpt>
      <trkpt lat="44.77931" lon="-0.3502">
        <ele>103</ele>
        <time>2013-12-22T15:31:18Z</time>
      </trkpt>
      <trkpt lat="44.77917" lon="-0.35048">
        <ele>103</ele>
        <time>2013-12-22T15:31:25Z</time>
      </trkpt>
      <trkpt lat="44.77896" lon="-0.35055">
        <ele>103</ele>
        <time>2013-12-22T15:31:31Z</time>
      </trkpt>
      <trkpt lat="44.77871" lon="-0.35049">
        <ele>102</ele>
        <time>2013-12-22T15:31:39Z</time>
      </trkpt>
      <trkpt lat="44.77838" lon="-0.35039">
        <ele>102</ele>
        <time>2013-12-22T15:31:48Z</time>
      </trkpt>
      <trkpt lat="44.77808" lon="-0.35035">
        <ele>102</ele>
        <time>2013-12-22T15:31:56Z</time>
      </trkpt>
      <trkpt lat="44.77777" lon="-0.35038">
        <ele>101</ele>
        <time>2013-12-22T15:32:04Z</time>
      </trkpt>
      <trkpt lat="44.77765" lon="-0.35046">
        <ele>101</ele>
        <time>2013-12-22T15:32:09Z</time>
      </trkpt>
      <trkpt lat="44.7775" lon="-0.35044">
        <ele>101</ele>
        <time>2013-12-22T15:32:15Z</time>
      </trkpt>
      <trkpt lat="44.77713" lon="-0.35017">
        <ele>100</ele>
        <time>2013-12-22T15:32:26Z</time>
      </trkpt>
      <trkpt lat="44.77678" lon="-0.34992">
        <ele>99</ele>
        <time>2013-12-22T15:32:37Z</time>
      </trkpt>
      <trkpt lat="44.77659" lon="-0.34986">
        <ele>98</ele>
        <time>2013-12-22T15:32:44Z</time>
      </trkpt>
      <trkpt lat="44.77646" lon="-0.34979">
        <ele>97</ele>
        <time>2013-12-22T15:32:50Z</time>
      </trkpt>
      <trkpt lat="44.7764" lon="-0.34973">
        <ele>97</ele>
        <time>2013-12-22T15:32:55Z</time>
      </trkpt>
      <trkpt lat="44.77638" lon="-0.34972">
        <ele>96</ele>
        <time>2013-12-22T15:32:56Z</time>
      </trkpt>
      <trkpt lat="44.77637" lon="-0.34972">
        <ele>96</ele>
        <time>2013-12-22T15:32:57Z</time>
      </trkpt>
      <trkpt lat="44.77636" lon="-0.34972">
        <ele>96</ele>
        <time>2013-12-22T15:32:58Z</time>
      </trkpt>
      <trkpt lat="44.77634" lon="-0.34974">
        <ele>96</ele>
        <time>2013-12-22T15:33:00Z</time>
      </trkpt>
      <trkpt lat="44.7763" lon="-0.34984">
        <ele>96</ele>
        <time>2013-12-22T15:33:07Z</time>
      </trkpt>
      <trkpt lat="44.7763" lon="-0.34983">
        <ele>96</ele>
        <time>2013-12-22T15:33:16Z</time>
      </trkpt>
      <trkpt lat="44.7763" lon="-0.34984">
        <ele>96</ele>
        <time>2013-12-22T15:33:30Z</time>
      </trkpt>
      <trkpt lat="44.7763" lon="-0.34983">
        <ele>96</ele>
        <time>2013-12-22T15:33:39Z</time>
      </trkpt>
      <trkpt lat="44.7763" lon="-0.34983">
        <ele>96</ele>
        <time>2013-12-22T15:33:46Z</time>
      </trkpt>
      <trkpt lat="44.77631" lon="-0.34981">
        <ele>96</ele>
        <time>2013-12-22T15:34:00Z</time>
      </trkpt>
      <trkpt lat="44.77631" lon="-0.34985">
        <ele>96</ele>
        <time>2013-12-22T15:34:06Z</time>
      </trkpt>
      <trkpt lat="44.77631" lon="-0.34986">
        <ele>96</ele>
        <time>2013-12-22T15:34:07Z</time>
      </trkpt>
      <trkpt lat="44.77631" lon="-0.34988">
        <ele>96</ele>
        <time>2013-12-22T15:34:08Z</time>
      </trkpt>
      <trkpt lat="44.77631" lon="-0.3499">
        <ele>96</ele>
        <time>2013-12-22T15:34:09Z</time>
      </trkpt>
      <trkpt lat="44.77631" lon="-0.34992">
        <ele>96</ele>
        <time>2013-12-22T15:34:10Z</time>
      </trkpt>
      <trkpt lat="44.7763" lon="-0.34995">
        <ele>96</ele>
        <time>2013-12-22T15:34:11Z</time>
      </trkpt>
      <trkpt lat="44.7763" lon="-0.34998">
        <ele>96</ele>
        <time>2013-12-22T15:34:12Z</time>
      </trkpt>
      <trkpt lat="44.77629" lon="-0.35001">
        <ele>96</ele>
        <time>2013-12-22T15:34:13Z</time>
      </trkpt>
      <trkpt lat="44.77628" lon="-0.35004">
        <ele>96</ele>
        <time>2013-12-22T15:34:14Z</time>
      </trkpt>
      <trkpt lat="44.77628" lon="-0.35007">
        <ele>96</ele>
        <time>2013-12-22T15:34:15Z</time>
      </trkpt>
      <trkpt lat="44.77623" lon="-0.35035">
        <ele>96</ele>
        <time>2013-12-22T15:34:23Z</time>
      </trkpt>
      <trkpt lat="44.77618" lon="-0.35064">
        <ele>96</ele>
        <time>2013-12-22T15:34:30Z</time>
      </trkpt>
      <trkpt lat="44.77612" lon="-0.35093">
        <ele>95</ele>
        <time>2013-12-22T15:34:38Z</time>
      </trkpt>
      <trkpt lat="44.77608" lon="-0.35109">
        <ele>95</ele>
        <time>2013-12-22T15:34:44Z</time>
      </trkpt>
      <trkpt lat="44.77607" lon="-0.35113">
        <ele>95</ele>
        <time>2013-12-22T15:34:50Z</time>
      </trkpt>
      <trkpt lat="44.77604" lon="-0.35131">
        <ele>95</ele>
        <time>2013-12-22T15:34:56Z</time>
      </trkpt>
      <trkpt lat="44.77602" lon="-0.35147">
        <ele>95</ele>
        <time>2013-12-22T15:35:03Z</time>
      </trkpt>
      <trkpt lat="44.77602" lon="-0.35147">
        <ele>95</ele>
        <time>2013-12-22T15:35:12Z</time>
      </trkpt>
      <trkpt lat="44.77603" lon="-0.35147">
        <ele>95</ele>
        <time>2013-12-22T15:35:26Z</time>
      </trkpt>
      <trkpt lat="44.77603" lon="-0.35149">
        <ele>95</ele>
        <time>2013-12-22T15:35:34Z</time>
      </trkpt>
      <trkpt lat="44.77604" lon="-0.3517">
        <ele>96</ele>
        <time>2013-12-22T15:35:41Z</time>
      </trkpt>
      <trkpt lat="44.77605" lon="-0.35196">
        <ele>95</ele>
        <time>2013-12-22T15:35:49Z</time>
      </trkpt>
      <trkpt lat="44.77605" lon="-0.35224">
        <ele>95</ele>
        <time>2013-12-22T15:35:56Z</time>
      </trkpt>
      <trkpt lat="44.77606" lon="-0.35265">
        <ele>95</ele>
        <time>2013-12-22T15:36:03Z</time>
      </trkpt>
      <trkpt lat="44.77606" lon="-0.35278">
        <ele>94</ele>
        <time>2013-12-22T15:36:05Z</time>
      </trkpt>
      <trkpt lat="44.77606" lon="-0.35284">
        <ele>94</ele>
        <time>2013-12-22T15:36:06Z</time>
      </trkpt>
      <trkpt lat="44.77606" lon="-0.35352">
        <ele>92</ele>
        <time>2013-12-22T15:36:16Z</time>
      </trkpt>
      <trkpt lat="44.77607" lon="-0.35379">
        <ele>92</ele>
        <time>2013-12-22T15:36:20Z</time>
      </trkpt>
      <trkpt lat="44.77606" lon="-0.35385">
        <ele>91</ele>
        <time>2013-12-22T15:36:21Z</time>
      </trkpt>
      <trkpt lat="44.77607" lon="-0.35448">
        <ele>90</ele>
        <time>2013-12-22T15:36:30Z</time>
      </trkpt>
      <trkpt lat="44.77608" lon="-0.35505">
        <ele>90</ele>
        <time>2013-12-22T15:36:38Z</time>
      </trkpt>
      <trkpt lat="44.77609" lon="-0.35543">
        <ele>90</ele>
        <time>2013-12-22T15:36:43Z</time>
      </trkpt>
      <trkpt lat="44.77611" lon="-0.35618">
        <ele>91</ele>
        <time>2013-12-22T15:36:53Z</time>
      </trkpt>
      <trkpt lat="44.77617" lon="-0.35663">
        <ele>93</ele>
        <time>2013-12-22T15:36:59Z</time>
      </trkpt>
      <trkpt lat="44.77618" lon="-0.3567">
        <ele>93</ele>
        <time>2013-12-22T15:37:00Z</time>
      </trkpt>
      <trkpt lat="44.7762" lon="-0.35678">
        <ele>93</ele>
        <time>2013-12-22T15:37:01Z</time>
      </trkpt>
      <trkpt lat="44.77633" lon="-0.35736">
        <ele>93</ele>
        <time>2013-12-22T15:37:09Z</time>
      </trkpt>
      <trkpt lat="44.77651" lon="-0.35814">
        <ele>91</ele>
        <time>2013-12-22T15:37:19Z</time>
      </trkpt>
      <trkpt lat="44.77664" lon="-0.35871">
        <ele>90</ele>
        <time>2013-12-22T15:37:27Z</time>
      </trkpt>
      <trkpt lat="44.77665" lon="-0.35878">
        <ele>90</ele>
        <time>2013-12-22T15:37:28Z</time>
      </trkpt>
      <trkpt lat="44.77683" lon="-0.35954">
        <ele>90</ele>
        <time>2013-12-22T15:37:38Z</time>
      </trkpt>
      <trkpt lat="44.77699" lon="-0.36034">
        <ele>86</ele>
        <time>2013-12-22T15:37:48Z</time>
      </trkpt>
      <trkpt lat="44.77701" lon="-0.36051">
        <ele>85</ele>
        <time>2013-12-22T15:37:50Z</time>
      </trkpt>
      <trkpt lat="44.77703" lon="-0.3606">
        <ele>84</ele>
        <time>2013-12-22T15:37:51Z</time>
      </trkpt>
      <trkpt lat="44.77706" lon="-0.36129">
        <ele>82</ele>
        <time>2013-12-22T15:37:59Z</time>
      </trkpt>
      <trkpt lat="44.777" lon="-0.36207">
        <ele>84</ele>
        <time>2013-12-22T15:38:08Z</time>
      </trkpt>
      <trkpt lat="44.77694" lon="-0.36264">
        <ele>81</ele>
        <time>2013-12-22T15:38:14Z</time>
      </trkpt>
      <trkpt lat="44.77685" lon="-0.36342">
        <ele>78</ele>
        <time>2013-12-22T15:38:22Z</time>
      </trkpt>
      <trkpt lat="44.77681" lon="-0.3637">
        <ele>77</ele>
        <time>2013-12-22T15:38:25Z</time>
      </trkpt>
      <trkpt lat="44.77676" lon="-0.36409">
        <ele>79</ele>
        <time>2013-12-22T15:38:29Z</time>
      </trkpt>
      <trkpt lat="44.77675" lon="-0.36418">
        <ele>79</ele>
        <time>2013-12-22T15:38:30Z</time>
      </trkpt>
      <trkpt lat="44.77674" lon="-0.36428">
        <ele>80</ele>
        <time>2013-12-22T15:38:31Z</time>
      </trkpt>
      <trkpt lat="44.77667" lon="-0.36486">
        <ele>82</ele>
        <time>2013-12-22T15:38:37Z</time>
      </trkpt>
      <trkpt lat="44.77662" lon="-0.36541">
        <ele>82</ele>
        <time>2013-12-22T15:38:43Z</time>
      </trkpt>
      <trkpt lat="44.77654" lon="-0.36615">
        <ele>81</ele>
        <time>2013-12-22T15:38:51Z</time>
      </trkpt>
      <trkpt lat="44.77653" lon="-0.36623">
        <ele>81</ele>
        <time>2013-12-22T15:38:52Z</time>
      </trkpt>
      <trkpt lat="44.77646" lon="-0.36688">
        <ele>79</ele>
        <time>2013-12-22T15:38:59Z</time>
      </trkpt>
      <trkpt lat="44.77635" lon="-0.36775">
        <ele>78</ele>
        <time>2013-12-22T15:39:08Z</time>
      </trkpt>
      <trkpt lat="44.77618" lon="-0.36859">
        <ele>78</ele>
        <time>2013-12-22T15:39:17Z</time>
      </trkpt>
      <trkpt lat="44.77594" lon="-0.36926">
        <ele>76</ele>
        <time>2013-12-22T15:39:25Z</time>
      </trkpt>
      <trkpt lat="44.77568" lon="-0.36995">
        <ele>77</ele>
        <time>2013-12-22T15:39:33Z</time>
      </trkpt>
      <trkpt lat="44.77544" lon="-0.37052">
        <ele>76</ele>
        <time>2013-12-22T15:39:40Z</time>
      </trkpt>
      <trkpt lat="44.77522" lon="-0.37109">
        <ele>76</ele>
        <time>2013-12-22T15:39:47Z</time>
      </trkpt>
      <trkpt lat="44.77501" lon="-0.37165">
        <ele>75</ele>
        <time>2013-12-22T15:39:54Z</time>
      </trkpt>
      <trkpt lat="44.77474" lon="-0.37229">
        <ele>72</ele>
        <time>2013-12-22T15:40:02Z</time>
      </trkpt>
      <trkpt lat="44.77453" lon="-0.37286">
        <ele>70</ele>
        <time>2013-12-22T15:40:09Z</time>
      </trkpt>
      <trkpt lat="44.77433" lon="-0.37336">
        <ele>70</ele>
        <time>2013-12-22T15:40:15Z</time>
      </trkpt>
      <trkpt lat="44.77406" lon="-0.37404">
        <ele>71</ele>
        <time>2013-12-22T15:40:23Z</time>
      </trkpt>
      <trkpt lat="44.77381" lon="-0.37472">
        <ele>71</ele>
        <time>2013-12-22T15:40:31Z</time>
      </trkpt>
      <trkpt lat="44.77354" lon="-0.37538">
        <ele>70</ele>
        <time>2013-12-22T15:40:39Z</time>
      </trkpt>
      <trkpt lat="44.77328" lon="-0.37607">
        <ele>68</ele>
        <time>2013-12-22T15:40:47Z</time>
      </trkpt>
      <trkpt lat="44.77312" lon="-0.37666">
        <ele>67</ele>
        <time>2013-12-22T15:40:54Z</time>
      </trkpt>
      <trkpt lat="44.773" lon="-0.37729">
        <ele>66</ele>
        <time>2013-12-22T15:41:02Z</time>
      </trkpt>
      <trkpt lat="44.77294" lon="-0.37786">
        <ele>67</ele>
        <time>2013-12-22T15:41:09Z</time>
      </trkpt>
      <trkpt lat="44.77294" lon="-0.37855">
        <ele>67</ele>
        <time>2013-12-22T15:41:17Z</time>
      </trkpt>
      <trkpt lat="44.77298" lon="-0.37924">
        <ele>67</ele>
        <time>2013-12-22T15:41:25Z</time>
      </trkpt>
      <trkpt lat="44.77301" lon="-0.37988">
        <ele>66</ele>
        <time>2013-12-22T15:41:32Z</time>
      </trkpt>
      <trkpt lat="44.77303" lon="-0.38054">
        <ele>64</ele>
        <time>2013-12-22T15:41:39Z</time>
      </trkpt>
      <trkpt lat="44.77307" lon="-0.38119">
        <ele>63</ele>
        <time>2013-12-22T15:41:46Z</time>
      </trkpt>
      <trkpt lat="44.77307" lon="-0.38129">
        <ele>63</ele>
        <time>2013-12-22T15:41:47Z</time>
      </trkpt>
      <trkpt lat="44.77308" lon="-0.38138">
        <ele>63</ele>
        <time>2013-12-22T15:41:48Z</time>
      </trkpt>
      <trkpt lat="44.77311" lon="-0.38198">
        <ele>63</ele>
        <time>2013-12-22T15:41:55Z</time>
      </trkpt>
      <trkpt lat="44.77316" lon="-0.38297">
        <ele>63</ele>
        <time>2013-12-22T15:42:05Z</time>
      </trkpt>
      <trkpt lat="44.77319" lon="-0.38378">
        <ele>63</ele>
        <time>2013-12-22T15:42:14Z</time>
      </trkpt>
      <trkpt lat="44.77322" lon="-0.38464">
        <ele>62</ele>
        <time>2013-12-22T15:42:24Z</time>
      </trkpt>
      <trkpt lat="44.77326" lon="-0.38542">
        <ele>62</ele>
        <time>2013-12-22T15:42:33Z</time>
      </trkpt>
      <trkpt lat="44.77328" lon="-0.38616">
        <ele>62</ele>
        <time>2013-12-22T15:42:42Z</time>
      </trkpt>
      <trkpt lat="44.77332" lon="-0.38651">
        <ele>61</ele>
        <time>2013-12-22T15:42:47Z</time>
      </trkpt>
      <trkpt lat="44.77332" lon="-0.38659">
        <ele>61</ele>
        <time>2013-12-22T15:42:48Z</time>
      </trkpt>
      <trkpt lat="44.77335" lon="-0.38687">
        <ele>61</ele>
        <time>2013-12-22T15:42:52Z</time>
      </trkpt>
      <trkpt lat="44.77336" lon="-0.38693">
        <ele>61</ele>
        <time>2013-12-22T15:42:53Z</time>
      </trkpt>
      <trkpt lat="44.77343" lon="-0.38743">
        <ele>59</ele>
        <time>2013-12-22T15:43:01Z</time>
      </trkpt>
      <trkpt lat="44.7735" lon="-0.38779">
        <ele>58</ele>
        <time>2013-12-22T15:43:09Z</time>
      </trkpt>
      <trkpt lat="44.77355" lon="-0.38802">
        <ele>58</ele>
        <time>2013-12-22T15:43:15Z</time>
      </trkpt>
      <trkpt lat="44.77361" lon="-0.38824">
        <ele>57</ele>
        <time>2013-12-22T15:43:23Z</time>
      </trkpt>
      <trkpt lat="44.77363" lon="-0.38831">
        <ele>57</ele>
        <time>2013-12-22T15:43:28Z</time>
      </trkpt>
      <trkpt lat="44.77367" lon="-0.38847">
        <ele>57</ele>
        <time>2013-12-22T15:43:34Z</time>
      </trkpt>
      <trkpt lat="44.77369" lon="-0.38855">
        <ele>57</ele>
        <time>2013-12-22T15:43:37Z</time>
      </trkpt>
      <trkpt lat="44.77369" lon="-0.38858">
        <ele>57</ele>
        <time>2013-12-22T15:43:38Z</time>
      </trkpt>
      <trkpt lat="44.77369" lon="-0.3886">
        <ele>57</ele>
        <time>2013-12-22T15:43:39Z</time>
      </trkpt>
      <trkpt lat="44.77375" lon="-0.38884">
        <ele>58</ele>
        <time>2013-12-22T15:43:46Z</time>
      </trkpt>
      <trkpt lat="44.77381" lon="-0.38913">
        <ele>58</ele>
        <time>2013-12-22T15:43:52Z</time>
      </trkpt>
      <trkpt lat="44.77388" lon="-0.38955">
        <ele>59</ele>
        <time>2013-12-22T15:43:59Z</time>
      </trkpt>
      <trkpt lat="44.77397" lon="-0.39007">
        <ele>59</ele>
        <time>2013-12-22T15:44:07Z</time>
      </trkpt>
      <trkpt lat="44.77404" lon="-0.3904">
        <ele>59</ele>
        <time>2013-12-22T15:44:12Z</time>
      </trkpt>
      <trkpt lat="44.77405" lon="-0.39047">
        <ele>58</ele>
        <time>2013-12-22T15:44:13Z</time>
      </trkpt>
      <trkpt lat="44.77408" lon="-0.3906">
        <ele>58</ele>
        <time>2013-12-22T15:44:15Z</time>
      </trkpt>
      <trkpt lat="44.77418" lon="-0.39107">
        <ele>57</ele>
        <time>2013-12-22T15:44:22Z</time>
      </trkpt>
      <trkpt lat="44.77433" lon="-0.39179">
        <ele>56</ele>
        <time>2013-12-22T15:44:32Z</time>
      </trkpt>
      <trkpt lat="44.77446" lon="-0.39242">
        <ele>55</ele>
        <time>2013-12-22T15:44:41Z</time>
      </trkpt>
      <trkpt lat="44.77451" lon="-0.39269">
        <ele>54</ele>
        <time>2013-12-22T15:44:45Z</time>
      </trkpt>
      <trkpt lat="44.77451" lon="-0.39276">
        <ele>54</ele>
        <time>2013-12-22T15:44:46Z</time>
      </trkpt>
      <trkpt lat="44.77462" lon="-0.39332">
        <ele>54</ele>
        <time>2013-12-22T15:44:54Z</time>
      </trkpt>
      <trkpt lat="44.77474" lon="-0.3939">
        <ele>53</ele>
        <time>2013-12-22T15:45:02Z</time>
      </trkpt>
      <trkpt lat="44.77478" lon="-0.39403">
        <ele>53</ele>
        <time>2013-12-22T15:45:04Z</time>
      </trkpt>
      <trkpt lat="44.77484" lon="-0.39431">
        <ele>53</ele>
        <time>2013-12-22T15:45:08Z</time>
      </trkpt>
      <trkpt lat="44.77485" lon="-0.39437">
        <ele>53</ele>
        <time>2013-12-22T15:45:09Z</time>
      </trkpt>
      <trkpt lat="44.77486" lon="-0.39443">
        <ele>53</ele>
        <time>2013-12-22T15:45:10Z</time>
      </trkpt>
      <trkpt lat="44.77488" lon="-0.3945">
        <ele>53</ele>
        <time>2013-12-22T15:45:11Z</time>
      </trkpt>
      <trkpt lat="44.77489" lon="-0.39457">
        <ele>53</ele>
        <time>2013-12-22T15:45:12Z</time>
      </trkpt>
      <trkpt lat="44.7749" lon="-0.39465">
        <ele>53</ele>
        <time>2013-12-22T15:45:13Z</time>
      </trkpt>
      <trkpt lat="44.77492" lon="-0.39472">
        <ele>53</ele>
        <time>2013-12-22T15:45:14Z</time>
      </trkpt>
      <trkpt lat="44.77493" lon="-0.3948">
        <ele>53</ele>
        <time>2013-12-22T15:45:15Z</time>
      </trkpt>
      <trkpt lat="44.77494" lon="-0.39487">
        <ele>53</ele>
        <time>2013-12-22T15:45:16Z</time>
      </trkpt>
      <trkpt lat="44.77496" lon="-0.39494">
        <ele>53</ele>
        <time>2013-12-22T15:45:17Z</time>
      </trkpt>
      <trkpt lat="44.77499" lon="-0.39509">
        <ele>53</ele>
        <time>2013-12-22T15:45:19Z</time>
      </trkpt>
      <trkpt lat="44.775" lon="-0.39516">
        <ele>53</ele>
        <time>2013-12-22T15:45:20Z</time>
      </trkpt>
      <trkpt lat="44.77513" lon="-0.39571">
        <ele>53</ele>
        <time>2013-12-22T15:45:28Z</time>
      </trkpt>
      <trkpt lat="44.77526" lon="-0.39625">
        <ele>53</ele>
        <time>2013-12-22T15:45:36Z</time>
      </trkpt>
      <trkpt lat="44.77545" lon="-0.39694">
        <ele>53</ele>
        <time>2013-12-22T15:45:46Z</time>
      </trkpt>
      <trkpt lat="44.7755" lon="-0.39707">
        <ele>53</ele>
        <time>2013-12-22T15:45:48Z</time>
      </trkpt>
      <trkpt lat="44.77553" lon="-0.39713">
        <ele>53</ele>
        <time>2013-12-22T15:45:49Z</time>
      </trkpt>
      <trkpt lat="44.77555" lon="-0.39719">
        <ele>53</ele>
        <time>2013-12-22T15:45:50Z</time>
      </trkpt>
      <trkpt lat="44.77559" lon="-0.39732">
        <ele>52</ele>
        <time>2013-12-22T15:45:52Z</time>
      </trkpt>
      <trkpt lat="44.77577" lon="-0.39781">
        <ele>52</ele>
        <time>2013-12-22T15:46:00Z</time>
      </trkpt>
      <trkpt lat="44.77579" lon="-0.39788">
        <ele>52</ele>
        <time>2013-12-22T15:46:01Z</time>
      </trkpt>
      <trkpt lat="44.77581" lon="-0.39794">
        <ele>51</ele>
        <time>2013-12-22T15:46:02Z</time>
      </trkpt>
      <trkpt lat="44.77597" lon="-0.39834">
        <ele>50</ele>
        <time>2013-12-22T15:46:09Z</time>
      </trkpt>
      <trkpt lat="44.77605" lon="-0.39851">
        <ele>50</ele>
        <time>2013-12-22T15:46:12Z</time>
      </trkpt>
      <trkpt lat="44.77624" lon="-0.39893">
        <ele>51</ele>
        <time>2013-12-22T15:46:19Z</time>
      </trkpt>
      <trkpt lat="44.7765" lon="-0.39942">
        <ele>50</ele>
        <time>2013-12-22T15:46:28Z</time>
      </trkpt>
      <trkpt lat="44.77659" lon="-0.39958">
        <ele>50</ele>
        <time>2013-12-22T15:46:31Z</time>
      </trkpt>
      <trkpt lat="44.77662" lon="-0.39963">
        <ele>50</ele>
        <time>2013-12-22T15:46:32Z</time>
      </trkpt>
      <trkpt lat="44.77672" lon="-0.3998">
        <ele>49</ele>
        <time>2013-12-22T15:46:35Z</time>
      </trkpt>
      <trkpt lat="44.77699" lon="-0.40022">
        <ele>49</ele>
        <time>2013-12-22T15:46:43Z</time>
      </trkpt>
      <trkpt lat="44.77731" lon="-0.40068">
        <ele>49</ele>
        <time>2013-12-22T15:46:52Z</time>
      </trkpt>
      <trkpt lat="44.77757" lon="-0.40105">
        <ele>48</ele>
        <time>2013-12-22T15:47:00Z</time>
      </trkpt>
      <trkpt lat="44.77763" lon="-0.40113">
        <ele>48</ele>
        <time>2013-12-22T15:47:02Z</time>
      </trkpt>
      <trkpt lat="44.77766" lon="-0.40117">
        <ele>48</ele>
        <time>2013-12-22T15:47:03Z</time>
      </trkpt>
      <trkpt lat="44.7777" lon="-0.40121">
        <ele>48</ele>
        <time>2013-12-22T15:47:04Z</time>
      </trkpt>
      <trkpt lat="44.77801" lon="-0.40166">
        <ele>47</ele>
        <time>2013-12-22T15:47:14Z</time>
      </trkpt>
      <trkpt lat="44.77808" lon="-0.40173">
        <ele>47</ele>
        <time>2013-12-22T15:47:16Z</time>
      </trkpt>
      <trkpt lat="44.77811" lon="-0.40177">
        <ele>47</ele>
        <time>2013-12-22T15:47:17Z</time>
      </trkpt>
      <trkpt lat="44.77823" lon="-0.40196">
        <ele>47</ele>
        <time>2013-12-22T15:47:21Z</time>
      </trkpt>
      <trkpt lat="44.77827" lon="-0.402">
        <ele>47</ele>
        <time>2013-12-22T15:47:22Z</time>
      </trkpt>
      <trkpt lat="44.77867" lon="-0.4026">
        <ele>46</ele>
        <time>2013-12-22T15:47:34Z</time>
      </trkpt>
      <trkpt lat="44.77899" lon="-0.40305">
        <ele>46</ele>
        <time>2013-12-22T15:47:43Z</time>
      </trkpt>
      <trkpt lat="44.77929" lon="-0.40348">
        <ele>46</ele>
        <time>2013-12-22T15:47:52Z</time>
      </trkpt>
      <trkpt lat="44.77957" lon="-0.40386">
        <ele>46</ele>
        <time>2013-12-22T15:48:00Z</time>
      </trkpt>
      <trkpt lat="44.77982" lon="-0.40421">
        <ele>46</ele>
        <time>2013-12-22T15:48:08Z</time>
      </trkpt>
      <trkpt lat="44.77999" lon="-0.40445">
        <ele>46</ele>
        <time>2013-12-22T15:48:15Z</time>
      </trkpt>
      <trkpt lat="44.78025" lon="-0.40479">
        <ele>45</ele>
        <time>2013-12-22T15:48:23Z</time>
      </trkpt>
      <trkpt lat="44.78042" lon="-0.40496">
        <ele>46</ele>
        <time>2013-12-22T15:48:28Z</time>
      </trkpt>
      <trkpt lat="44.78045" lon="-0.405">
        <ele>46</ele>
        <time>2013-12-22T15:48:29Z</time>
      </trkpt>
      <trkpt lat="44.78049" lon="-0.40504">
        <ele>46</ele>
        <time>2013-12-22T15:48:30Z</time>
      </trkpt>
      <trkpt lat="44.78055" lon="-0.40512">
        <ele>46</ele>
        <time>2013-12-22T15:48:32Z</time>
      </trkpt>
      <trkpt lat="44.78082" lon="-0.40552">
        <ele>45</ele>
        <time>2013-12-22T15:48:41Z</time>
      </trkpt>
      <trkpt lat="44.78095" lon="-0.4057">
        <ele>45</ele>
        <time>2013-12-22T15:48:45Z</time>
      </trkpt>
      <trkpt lat="44.78098" lon="-0.40575">
        <ele>45</ele>
        <time>2013-12-22T15:48:46Z</time>
      </trkpt>
      <trkpt lat="44.7813" lon="-0.40618">
        <ele>45</ele>
        <time>2013-12-22T15:48:56Z</time>
      </trkpt>
      <trkpt lat="44.7815" lon="-0.40643">
        <ele>45</ele>
        <time>2013-12-22T15:49:02Z</time>
      </trkpt>
      <trkpt lat="44.78152" lon="-0.40648">
        <ele>45</ele>
        <time>2013-12-22T15:49:03Z</time>
      </trkpt>
      <trkpt lat="44.78154" lon="-0.40653">
        <ele>45</ele>
        <time>2013-12-22T15:49:04Z</time>
      </trkpt>
      <trkpt lat="44.78155" lon="-0.40658">
        <ele>45</ele>
        <time>2013-12-22T15:49:05Z</time>
      </trkpt>
      <trkpt lat="44.78157" lon="-0.40662">
        <ele>45</ele>
        <time>2013-12-22T15:49:06Z</time>
      </trkpt>
      <trkpt lat="44.7816" lon="-0.40665">
        <ele>44</ele>
        <time>2013-12-22T15:49:07Z</time>
      </trkpt>
      <trkpt lat="44.78162" lon="-0.40668">
        <ele>44</ele>
        <time>2013-12-22T15:49:08Z</time>
      </trkpt>
      <trkpt lat="44.78164" lon="-0.40669">
        <ele>44</ele>
        <time>2013-12-22T15:49:09Z</time>
      </trkpt>
      <trkpt lat="44.7818" lon="-0.40681">
        <ele>44</ele>
        <time>2013-12-22T15:49:15Z</time>
      </trkpt>
      <trkpt lat="44.78194" lon="-0.40692">
        <ele>44</ele>
        <time>2013-12-22T15:49:19Z</time>
      </trkpt>
      <trkpt lat="44.78227" lon="-0.40712">
        <ele>45</ele>
        <time>2013-12-22T15:49:27Z</time>
      </trkpt>
      <trkpt lat="44.78262" lon="-0.40735">
        <ele>44</ele>
        <time>2013-12-22T15:49:35Z</time>
      </trkpt>
      <trkpt lat="44.78295" lon="-0.40755">
        <ele>43</ele>
        <time>2013-12-22T15:49:42Z</time>
      </trkpt>
      <trkpt lat="44.78345" lon="-0.40787">
        <ele>41</ele>
        <time>2013-12-22T15:49:52Z</time>
      </trkpt>
      <trkpt lat="44.78389" lon="-0.40822">
        <ele>41</ele>
        <time>2013-12-22T15:50:01Z</time>
      </trkpt>
      <trkpt lat="44.78422" lon="-0.40857">
        <ele>41</ele>
        <time>2013-12-22T15:50:09Z</time>
      </trkpt>
      <trkpt lat="44.78441" lon="-0.40878">
        <ele>40</ele>
        <time>2013-12-22T15:50:14Z</time>
      </trkpt>
      <trkpt lat="44.78452" lon="-0.40893">
        <ele>40</ele>
        <time>2013-12-22T15:50:17Z</time>
      </trkpt>
      <trkpt lat="44.78455" lon="-0.40898">
        <ele>40</ele>
        <time>2013-12-22T15:50:18Z</time>
      </trkpt>
      <trkpt lat="44.78458" lon="-0.40903">
        <ele>40</ele>
        <time>2013-12-22T15:50:19Z</time>
      </trkpt>
      <trkpt lat="44.78478" lon="-0.40931">
        <ele>40</ele>
        <time>2013-12-22T15:50:25Z</time>
      </trkpt>
      <trkpt lat="44.78482" lon="-0.40936">
        <ele>40</ele>
        <time>2013-12-22T15:50:26Z</time>
      </trkpt>
      <trkpt lat="44.78485" lon="-0.40941">
        <ele>40</ele>
        <time>2013-12-22T15:50:27Z</time>
      </trkpt>
      <trkpt lat="44.78501" lon="-0.4097">
        <ele>40</ele>
        <time>2013-12-22T15:50:32Z</time>
      </trkpt>
      <trkpt lat="44.78504" lon="-0.40976">
        <ele>40</ele>
        <time>2013-12-22T15:50:33Z</time>
      </trkpt>
      <trkpt lat="44.78531" lon="-0.41033">
        <ele>40</ele>
        <time>2013-12-22T15:50:42Z</time>
      </trkpt>
      <trkpt lat="44.78556" lon="-0.4108">
        <ele>40</ele>
        <time>2013-12-22T15:50:50Z</time>
      </trkpt>
      <trkpt lat="44.78559" lon="-0.41087">
        <ele>40</ele>
        <time>2013-12-22T15:50:51Z</time>
      </trkpt>
      <trkpt lat="44.78585" lon="-0.4114">
        <ele>42</ele>
        <time>2013-12-22T15:51:00Z</time>
      </trkpt>
      <trkpt lat="44.7861" lon="-0.41188">
        <ele>41</ele>
        <time>2013-12-22T15:51:09Z</time>
      </trkpt>
      <trkpt lat="44.7862" lon="-0.4121">
        <ele>40</ele>
        <time>2013-12-22T15:51:13Z</time>
      </trkpt>
      <trkpt lat="44.78629" lon="-0.41227">
        <ele>40</ele>
        <time>2013-12-22T15:51:16Z</time>
      </trkpt>
      <trkpt lat="44.78632" lon="-0.41233">
        <ele>40</ele>
        <time>2013-12-22T15:51:17Z</time>
      </trkpt>
      <trkpt lat="44.78652" lon="-0.4127">
        <ele>39</ele>
        <time>2013-12-22T15:51:24Z</time>
      </trkpt>
      <trkpt lat="44.78654" lon="-0.41275">
        <ele>38</ele>
        <time>2013-12-22T15:51:25Z</time>
      </trkpt>
      <trkpt lat="44.78657" lon="-0.4128">
        <ele>38</ele>
        <time>2013-12-22T15:51:26Z</time>
      </trkpt>
      <trkpt lat="44.78677" lon="-0.41322">
        <ele>38</ele>
        <time>2013-12-22T15:51:34Z</time>
      </trkpt>
      <trkpt lat="44.78679" lon="-0.41327">
        <ele>38</ele>
        <time>2013-12-22T15:51:35Z</time>
      </trkpt>
      <trkpt lat="44.78681" lon="-0.41333">
        <ele>38</ele>
        <time>2013-12-22T15:51:36Z</time>
      </trkpt>
      <trkpt lat="44.78684" lon="-0.41339">
        <ele>38</ele>
        <time>2013-12-22T15:51:37Z</time>
      </trkpt>
      <trkpt lat="44.78687" lon="-0.41345">
        <ele>38</ele>
        <time>2013-12-22T15:51:38Z</time>
      </trkpt>
      <trkpt lat="44.78698" lon="-0.41369">
        <ele>38</ele>
        <time>2013-12-22T15:51:42Z</time>
      </trkpt>
      <trkpt lat="44.78701" lon="-0.41375">
        <ele>38</ele>
        <time>2013-12-22T15:51:43Z</time>
      </trkpt>
      <trkpt lat="44.78704" lon="-0.41381">
        <ele>38</ele>
        <time>2013-12-22T15:51:44Z</time>
      </trkpt>
      <trkpt lat="44.78706" lon="-0.41386">
        <ele>38</ele>
        <time>2013-12-22T15:51:45Z</time>
      </trkpt>
      <trkpt lat="44.78709" lon="-0.41392">
        <ele>38</ele>
        <time>2013-12-22T15:51:46Z</time>
      </trkpt>
      <trkpt lat="44.78733" lon="-0.41438">
        <ele>38</ele>
        <time>2013-12-22T15:51:54Z</time>
      </trkpt>
      <trkpt lat="44.78753" lon="-0.41478">
        <ele>39</ele>
        <time>2013-12-22T15:52:01Z</time>
      </trkpt>
      <trkpt lat="44.78756" lon="-0.41484">
        <ele>39</ele>
        <time>2013-12-22T15:52:02Z</time>
      </trkpt>
      <trkpt lat="44.78785" lon="-0.41537">
        <ele>39</ele>
        <time>2013-12-22T15:52:12Z</time>
      </trkpt>
      <trkpt lat="44.78802" lon="-0.41569">
        <ele>39</ele>
        <time>2013-12-22T15:52:19Z</time>
      </trkpt>
      <trkpt lat="44.78832" lon="-0.41628">
        <ele>40</ele>
        <time>2013-12-22T15:52:30Z</time>
      </trkpt>
      <trkpt lat="44.78859" lon="-0.41682">
        <ele>40</ele>
        <time>2013-12-22T15:52:40Z</time>
      </trkpt>
      <trkpt lat="44.78862" lon="-0.41687">
        <ele>40</ele>
        <time>2013-12-22T15:52:41Z</time>
      </trkpt>
      <trkpt lat="44.78866" lon="-0.41693">
        <ele>40</ele>
        <time>2013-12-22T15:52:42Z</time>
      </trkpt>
      <trkpt lat="44.78894" lon="-0.41749">
        <ele>40</ele>
        <time>2013-12-22T15:52:52Z</time>
      </trkpt>
      <trkpt lat="44.78897" lon="-0.41755">
        <ele>40</ele>
        <time>2013-12-22T15:52:53Z</time>
      </trkpt>
      <trkpt lat="44.78924" lon="-0.4181">
        <ele>40</ele>
        <time>2013-12-22T15:53:03Z</time>
      </trkpt>
      <trkpt lat="44.7893" lon="-0.4182">
        <ele>40</ele>
        <time>2013-12-22T15:53:05Z</time>
      </trkpt>
      <trkpt lat="44.78933" lon="-0.41825">
        <ele>40</ele>
        <time>2013-12-22T15:53:06Z</time>
      </trkpt>
      <trkpt lat="44.78942" lon="-0.41841">
        <ele>40</ele>
        <time>2013-12-22T15:53:09Z</time>
      </trkpt>
      <trkpt lat="44.78944" lon="-0.41846">
        <ele>40</ele>
        <time>2013-12-22T15:53:10Z</time>
      </trkpt>
      <trkpt lat="44.78947" lon="-0.41852">
        <ele>39</ele>
        <time>2013-12-22T15:53:11Z</time>
      </trkpt>
      <trkpt lat="44.78951" lon="-0.41863">
        <ele>39</ele>
        <time>2013-12-22T15:53:13Z</time>
      </trkpt>
      <trkpt lat="44.78954" lon="-0.41869">
        <ele>38</ele>
        <time>2013-12-22T15:53:14Z</time>
      </trkpt>
      <trkpt lat="44.78977" lon="-0.4191">
        <ele>39</ele>
        <time>2013-12-22T15:53:22Z</time>
      </trkpt>
      <trkpt lat="44.78984" lon="-0.41924">
        <ele>39</ele>
        <time>2013-12-22T15:53:25Z</time>
      </trkpt>
      <trkpt lat="44.7899" lon="-0.41934">
        <ele>39</ele>
        <time>2013-12-22T15:53:27Z</time>
      </trkpt>
      <trkpt lat="44.78993" lon="-0.4194">
        <ele>39</ele>
        <time>2013-12-22T15:53:28Z</time>
      </trkpt>
      <trkpt lat="44.78996" lon="-0.41945">
        <ele>38</ele>
        <time>2013-12-22T15:53:29Z</time>
      </trkpt>
      <trkpt lat="44.79021" lon="-0.41995">
        <ele>37</ele>
        <time>2013-12-22T15:53:37Z</time>
      </trkpt>
      <trkpt lat="44.79047" lon="-0.42043">
        <ele>37</ele>
        <time>2013-12-22T15:53:45Z</time>
      </trkpt>
      <trkpt lat="44.7907" lon="-0.42092">
        <ele>38</ele>
        <time>2013-12-22T15:53:53Z</time>
      </trkpt>
      <trkpt lat="44.79076" lon="-0.42105">
        <ele>38</ele>
        <time>2013-12-22T15:53:55Z</time>
      </trkpt>
      <trkpt lat="44.79098" lon="-0.42156">
        <ele>40</ele>
        <time>2013-12-22T15:54:03Z</time>
      </trkpt>
      <trkpt lat="44.79109" lon="-0.42185">
        <ele>40</ele>
        <time>2013-12-22T15:54:07Z</time>
      </trkpt>
      <trkpt lat="44.79112" lon="-0.42192">
        <ele>40</ele>
        <time>2013-12-22T15:54:08Z</time>
      </trkpt>
      <trkpt lat="44.79137" lon="-0.42243">
        <ele>40</ele>
        <time>2013-12-22T15:54:16Z</time>
      </trkpt>
      <trkpt lat="44.7914" lon="-0.42249">
        <ele>40</ele>
        <time>2013-12-22T15:54:17Z</time>
      </trkpt>
      <trkpt lat="44.79144" lon="-0.42255">
        <ele>40</ele>
        <time>2013-12-22T15:54:18Z</time>
      </trkpt>
      <trkpt lat="44.79169" lon="-0.42293">
        <ele>40</ele>
        <time>2013-12-22T15:54:25Z</time>
      </trkpt>
      <trkpt lat="44.79194" lon="-0.42323">
        <ele>37</ele>
        <time>2013-12-22T15:54:31Z</time>
      </trkpt>
      <trkpt lat="44.79224" lon="-0.42352">
        <ele>34</ele>
        <time>2013-12-22T15:54:38Z</time>
      </trkpt>
      <trkpt lat="44.7926" lon="-0.42373">
        <ele>32</ele>
        <time>2013-12-22T15:54:45Z</time>
      </trkpt>
      <trkpt lat="44.79307" lon="-0.42398">
        <ele>30</ele>
        <time>2013-12-22T15:54:54Z</time>
      </trkpt>
      <trkpt lat="44.79343" lon="-0.42419">
        <ele>29</ele>
        <time>2013-12-22T15:55:01Z</time>
      </trkpt>
      <trkpt lat="44.79377" lon="-0.42438">
        <ele>29</ele>
        <time>2013-12-22T15:55:08Z</time>
      </trkpt>
      <trkpt lat="44.79418" lon="-0.42459">
        <ele>29</ele>
        <time>2013-12-22T15:55:16Z</time>
      </trkpt>
      <trkpt lat="44.79459" lon="-0.42481">
        <ele>29</ele>
        <time>2013-12-22T15:55:24Z</time>
      </trkpt>
      <trkpt lat="44.7951" lon="-0.42507">
        <ele>30</ele>
        <time>2013-12-22T15:55:34Z</time>
      </trkpt>
      <trkpt lat="44.79538" lon="-0.42524">
        <ele>30</ele>
        <time>2013-12-22T15:55:40Z</time>
      </trkpt>
      <trkpt lat="44.79569" lon="-0.42549">
        <ele>29</ele>
        <time>2013-12-22T15:55:47Z</time>
      </trkpt>
      <trkpt lat="44.79583" lon="-0.42559">
        <ele>29</ele>
        <time>2013-12-22T15:55:50Z</time>
      </trkpt>
      <trkpt lat="44.79612" lon="-0.42587">
        <ele>29</ele>
        <time>2013-12-22T15:55:58Z</time>
      </trkpt>
      <trkpt lat="44.79641" lon="-0.42626">
        <ele>28</ele>
        <time>2013-12-22T15:56:06Z</time>
      </trkpt>
      <trkpt lat="44.79667" lon="-0.42671">
        <ele>28</ele>
        <time>2013-12-22T15:56:15Z</time>
      </trkpt>
      <trkpt lat="44.79688" lon="-0.42713">
        <ele>29</ele>
        <time>2013-12-22T15:56:23Z</time>
      </trkpt>
      <trkpt lat="44.797" lon="-0.42744">
        <ele>29</ele>
        <time>2013-12-22T15:56:30Z</time>
      </trkpt>
      <trkpt lat="44.79709" lon="-0.42769">
        <ele>30</ele>
        <time>2013-12-22T15:56:36Z</time>
      </trkpt>
      <trkpt lat="44.79713" lon="-0.42783">
        <ele>30</ele>
        <time>2013-12-22T15:56:42Z</time>
      </trkpt>
      <trkpt lat="44.79715" lon="-0.42788">
        <ele>30</ele>
        <time>2013-12-22T15:56:52Z</time>
      </trkpt>
      <trkpt lat="44.79722" lon="-0.42812">
        <ele>30</ele>
        <time>2013-12-22T15:56:59Z</time>
      </trkpt>
      <trkpt lat="44.79729" lon="-0.4284">
        <ele>30</ele>
        <time>2013-12-22T15:57:05Z</time>
      </trkpt>
      <trkpt lat="44.7974" lon="-0.42892">
        <ele>30</ele>
        <time>2013-12-22T15:57:14Z</time>
      </trkpt>
      <trkpt lat="44.7975" lon="-0.42952">
        <ele>29</ele>
        <time>2013-12-22T15:57:23Z</time>
      </trkpt>
      <trkpt lat="44.79756" lon="-0.42988">
        <ele>28</ele>
        <time>2013-12-22T15:57:28Z</time>
      </trkpt>
      <trkpt lat="44.79764" lon="-0.43041">
        <ele>28</ele>
        <time>2013-12-22T15:57:35Z</time>
      </trkpt>
      <trkpt lat="44.79772" lon="-0.43091">
        <ele>28</ele>
        <time>2013-12-22T15:57:42Z</time>
      </trkpt>
      <trkpt lat="44.79774" lon="-0.43098">
        <ele>28</ele>
        <time>2013-12-22T15:57:43Z</time>
      </trkpt>
      <trkpt lat="44.79786" lon="-0.43169">
        <ele>29</ele>
        <time>2013-12-22T15:57:53Z</time>
      </trkpt>
      <trkpt lat="44.79792" lon="-0.43212">
        <ele>29</ele>
        <time>2013-12-22T15:57:59Z</time>
      </trkpt>
      <trkpt lat="44.79793" lon="-0.43218">
        <ele>29</ele>
        <time>2013-12-22T15:58:00Z</time>
      </trkpt>
      <trkpt lat="44.79793" lon="-0.43225">
        <ele>28</ele>
        <time>2013-12-22T15:58:01Z</time>
      </trkpt>
      <trkpt lat="44.79795" lon="-0.43231">
        <ele>28</ele>
        <time>2013-12-22T15:58:02Z</time>
      </trkpt>
      <trkpt lat="44.79797" lon="-0.43238">
        <ele>28</ele>
        <time>2013-12-22T15:58:03Z</time>
      </trkpt>
      <trkpt lat="44.798" lon="-0.43251">
        <ele>28</ele>
        <time>2013-12-22T15:58:05Z</time>
      </trkpt>
      <trkpt lat="44.79802" lon="-0.43258">
        <ele>27</ele>
        <time>2013-12-22T15:58:06Z</time>
      </trkpt>
      <trkpt lat="44.79809" lon="-0.43285">
        <ele>26</ele>
        <time>2013-12-22T15:58:10Z</time>
      </trkpt>
      <trkpt lat="44.79832" lon="-0.43343">
        <ele>24</ele>
        <time>2013-12-22T15:58:19Z</time>
      </trkpt>
      <trkpt lat="44.79853" lon="-0.43385">
        <ele>23</ele>
        <time>2013-12-22T15:58:26Z</time>
      </trkpt>
      <trkpt lat="44.79867" lon="-0.43405">
        <ele>23</ele>
        <time>2013-12-22T15:58:30Z</time>
      </trkpt>
      <trkpt lat="44.79885" lon="-0.43428">
        <ele>23</ele>
        <time>2013-12-22T15:58:36Z</time>
      </trkpt>
      <trkpt lat="44.79898" lon="-0.43446">
        <ele>24</ele>
        <time>2013-12-22T15:58:40Z</time>
      </trkpt>
      <trkpt lat="44.79929" lon="-0.43473">
        <ele>25</ele>
        <time>2013-12-22T15:58:48Z</time>
      </trkpt>
      <trkpt lat="44.79954" lon="-0.43495">
        <ele>26</ele>
        <time>2013-12-22T15:58:54Z</time>
      </trkpt>
      <trkpt lat="44.79974" lon="-0.43513">
        <ele>28</ele>
        <time>2013-12-22T15:58:59Z</time>
      </trkpt>
      <trkpt lat="44.79978" lon="-0.43516">
        <ele>28</ele>
        <time>2013-12-22T15:59:00Z</time>
      </trkpt>
      <trkpt lat="44.79994" lon="-0.43531">
        <ele>29</ele>
        <time>2013-12-22T15:59:04Z</time>
      </trkpt>
      <trkpt lat="44.79997" lon="-0.43534">
        <ele>29</ele>
        <time>2013-12-22T15:59:05Z</time>
      </trkpt>
      <trkpt lat="44.80017" lon="-0.43551">
        <ele>29</ele>
        <time>2013-12-22T15:59:10Z</time>
      </trkpt>
      <trkpt lat="44.80059" lon="-0.43588">
        <ele>26</ele>
        <time>2013-12-22T15:59:20Z</time>
      </trkpt>
      <trkpt lat="44.80086" lon="-0.43614">
        <ele>25</ele>
        <time>2013-12-22T15:59:27Z</time>
      </trkpt>
      <trkpt lat="44.8009" lon="-0.43618">
        <ele>25</ele>
        <time>2013-12-22T15:59:28Z</time>
      </trkpt>
      <trkpt lat="44.80116" lon="-0.43646">
        <ele>26</ele>
        <time>2013-12-22T15:59:35Z</time>
      </trkpt>
      <trkpt lat="44.80138" lon="-0.43673">
        <ele>27</ele>
        <time>2013-12-22T15:59:42Z</time>
      </trkpt>
      <trkpt lat="44.80142" lon="-0.43678">
        <ele>27</ele>
        <time>2013-12-22T15:59:43Z</time>
      </trkpt>
      <trkpt lat="44.80145" lon="-0.43682">
        <ele>27</ele>
        <time>2013-12-22T15:59:44Z</time>
      </trkpt>
      <trkpt lat="44.80148" lon="-0.43687">
        <ele>27</ele>
        <time>2013-12-22T15:59:45Z</time>
      </trkpt>
      <trkpt lat="44.80151" lon="-0.43691">
        <ele>27</ele>
        <time>2013-12-22T15:59:46Z</time>
      </trkpt>
      <trkpt lat="44.80161" lon="-0.43709">
        <ele>28</ele>
        <time>2013-12-22T15:59:50Z</time>
      </trkpt>
      <trkpt lat="44.80176" lon="-0.43736">
        <ele>29</ele>
        <time>2013-12-22T15:59:56Z</time>
      </trkpt>
      <trkpt lat="44.80194" lon="-0.43775">
        <ele>29</ele>
        <time>2013-12-22T16:00:04Z</time>
      </trkpt>
      <trkpt lat="44.80205" lon="-0.43801">
        <ele>28</ele>
        <time>2013-12-22T16:00:09Z</time>
      </trkpt>
      <trkpt lat="44.80206" lon="-0.43808">
        <ele>28</ele>
        <time>2013-12-22T16:00:10Z</time>
      </trkpt>
      <trkpt lat="44.80208" lon="-0.43813">
        <ele>29</ele>
        <time>2013-12-22T16:00:11Z</time>
      </trkpt>
      <trkpt lat="44.80216" lon="-0.4383">
        <ele>29</ele>
        <time>2013-12-22T16:00:14Z</time>
      </trkpt>
      <trkpt lat="44.80218" lon="-0.43836">
        <ele>28</ele>
        <time>2013-12-22T16:00:15Z</time>
      </trkpt>
      <trkpt lat="44.8022" lon="-0.43843">
        <ele>28</ele>
        <time>2013-12-22T16:00:16Z</time>
      </trkpt>
      <trkpt lat="44.80223" lon="-0.43849">
        <ele>28</ele>
        <time>2013-12-22T16:00:17Z</time>
      </trkpt>
      <trkpt lat="44.80225" lon="-0.43855">
        <ele>28</ele>
        <time>2013-12-22T16:00:18Z</time>
      </trkpt>
      <trkpt lat="44.80237" lon="-0.439">
        <ele>28</ele>
        <time>2013-12-22T16:00:25Z</time>
      </trkpt>
      <trkpt lat="44.80238" lon="-0.43907">
        <ele>28</ele>
        <time>2013-12-22T16:00:26Z</time>
      </trkpt>
      <trkpt lat="44.80238" lon="-0.43914">
        <ele>28</ele>
        <time>2013-12-22T16:00:27Z</time>
      </trkpt>
      <trkpt lat="44.80239" lon="-0.4392">
        <ele>27</ele>
        <time>2013-12-22T16:00:28Z</time>
      </trkpt>
      <trkpt lat="44.80241" lon="-0.43927">
        <ele>27</ele>
        <time>2013-12-22T16:00:29Z</time>
      </trkpt>
      <trkpt lat="44.80244" lon="-0.43956">
        <ele>27</ele>
        <time>2013-12-22T16:00:33Z</time>
      </trkpt>
      <trkpt lat="44.80245" lon="-0.4397">
        <ele>27</ele>
        <time>2013-12-22T16:00:35Z</time>
      </trkpt>
      <trkpt lat="44.80247" lon="-0.44035">
        <ele>26</ele>
        <time>2013-12-22T16:00:44Z</time>
      </trkpt>
      <trkpt lat="44.80246" lon="-0.44049">
        <ele>26</ele>
        <time>2013-12-22T16:00:46Z</time>
      </trkpt>
      <trkpt lat="44.80247" lon="-0.44062">
        <ele>25</ele>
        <time>2013-12-22T16:00:48Z</time>
      </trkpt>
      <trkpt lat="44.80246" lon="-0.44076">
        <ele>25</ele>
        <time>2013-12-22T16:00:50Z</time>
      </trkpt>
      <trkpt lat="44.80246" lon="-0.44083">
        <ele>25</ele>
        <time>2013-12-22T16:00:51Z</time>
      </trkpt>
      <trkpt lat="44.80244" lon="-0.44139">
        <ele>24</ele>
        <time>2013-12-22T16:01:00Z</time>
      </trkpt>
      <trkpt lat="44.80245" lon="-0.44156">
        <ele>24</ele>
        <time>2013-12-22T16:01:05Z</time>
      </trkpt>
      <trkpt lat="44.80246" lon="-0.4416">
        <ele>24</ele>
        <time>2013-12-22T16:01:08Z</time>
      </trkpt>
      <trkpt lat="44.80248" lon="-0.44161">
        <ele>24</ele>
        <time>2013-12-22T16:01:09Z</time>
      </trkpt>
      <trkpt lat="44.80251" lon="-0.4416">
        <ele>24</ele>
        <time>2013-12-22T16:01:10Z</time>
      </trkpt>
      <trkpt lat="44.80253" lon="-0.44159">
        <ele>23</ele>
        <time>2013-12-22T16:01:11Z</time>
      </trkpt>
      <trkpt lat="44.80255" lon="-0.44157">
        <ele>23</ele>
        <time>2013-12-22T16:01:12Z</time>
      </trkpt>
      <trkpt lat="44.80269" lon="-0.44152">
        <ele>23</ele>
        <time>2013-12-22T16:01:18Z</time>
      </trkpt>
      <trkpt lat="44.80287" lon="-0.44149">
        <ele>22</ele>
        <time>2013-12-22T16:01:24Z</time>
      </trkpt>
      <trkpt lat="44.80306" lon="-0.44149">
        <ele>22</ele>
        <time>2013-12-22T16:01:30Z</time>
      </trkpt>
      <trkpt lat="44.80332" lon="-0.44149">
        <ele>21</ele>
        <time>2013-12-22T16:01:37Z</time>
      </trkpt>
      <trkpt lat="44.80356" lon="-0.44149">
        <ele>20</ele>
        <time>2013-12-22T16:01:44Z</time>
      </trkpt>
      <trkpt lat="44.80384" lon="-0.44144">
        <ele>20</ele>
        <time>2013-12-22T16:01:52Z</time>
      </trkpt>
      <trkpt lat="44.80416" lon="-0.44139">
        <ele>20</ele>
        <time>2013-12-22T16:02:01Z</time>
      </trkpt>
      <trkpt lat="44.8044" lon="-0.44128">
        <ele>20</ele>
        <time>2013-12-22T16:02:09Z</time>
      </trkpt>
      <trkpt lat="44.80461" lon="-0.44111">
        <ele>20</ele>
        <time>2013-12-22T16:02:17Z</time>
      </trkpt>
      <trkpt lat="44.80481" lon="-0.44093">
        <ele>20</ele>
        <time>2013-12-22T16:02:25Z</time>
      </trkpt>
      <trkpt lat="44.80488" lon="-0.44088">
        <ele>20</ele>
        <time>2013-12-22T16:02:29Z</time>
      </trkpt>
      <trkpt lat="44.80489" lon="-0.44089">
        <ele>20</ele>
        <time>2013-12-22T16:02:30Z</time>
      </trkpt>
      <trkpt lat="44.8049" lon="-0.44092">
        <ele>20</ele>
        <time>2013-12-22T16:02:31Z</time>
      </trkpt>
      <trkpt lat="44.80491" lon="-0.44095">
        <ele>20</ele>
        <time>2013-12-22T16:02:32Z</time>
      </trkpt>
      <trkpt lat="44.80492" lon="-0.44097">
        <ele>21</ele>
        <time>2013-12-22T16:02:33Z</time>
      </trkpt>
      <trkpt lat="44.80493" lon="-0.441">
        <ele>21</ele>
        <time>2013-12-22T16:02:34Z</time>
      </trkpt>
      <trkpt lat="44.80494" lon="-0.44102">
        <ele>21</ele>
        <time>2013-12-22T16:02:35Z</time>
      </trkpt>
      <trkpt lat="44.80499" lon="-0.44121">
        <ele>22</ele>
        <time>2013-12-22T16:02:42Z</time>
      </trkpt>
      <trkpt lat="44.80506" lon="-0.44143">
        <ele>24</ele>
        <time>2013-12-22T16:02:51Z</time>
      </trkpt>
      <trkpt lat="44.80509" lon="-0.44149">
        <ele>25</ele>
        <time>2013-12-22T16:02:54Z</time>
      </trkpt>
      <trkpt lat="44.8051" lon="-0.44152">
        <ele>25</ele>
        <time>2013-12-22T16:02:55Z</time>
      </trkpt>
      <trkpt lat="44.80511" lon="-0.44154">
        <ele>25</ele>
        <time>2013-12-22T16:02:56Z</time>
      </trkpt>
      <trkpt lat="44.80512" lon="-0.44157">
        <ele>26</ele>
        <time>2013-12-22T16:02:57Z</time>
      </trkpt>
      <trkpt lat="44.80513" lon="-0.4416">
        <ele>26</ele>
        <time>2013-12-22T16:02:58Z</time>
      </trkpt>
      <trkpt lat="44.80523" lon="-0.44175">
        <ele>28</ele>
        <time>2013-12-22T16:03:06Z</time>
      </trkpt>
      <trkpt lat="44.8053" lon="-0.44182">
        <ele>29</ele>
        <time>2013-12-22T16:03:11Z</time>
      </trkpt>
      <trkpt lat="44.80532" lon="-0.44183">
        <ele>29</ele>
        <time>2013-12-22T16:03:12Z</time>
      </trkpt>
      <trkpt lat="44.80533" lon="-0.44184">
        <ele>29</ele>
        <time>2013-12-22T16:03:13Z</time>
      </trkpt>
      <trkpt lat="44.80535" lon="-0.44184">
        <ele>29</ele>
        <time>2013-12-22T16:03:14Z</time>
      </trkpt>
      <trkpt lat="44.80537" lon="-0.44184">
        <ele>30</ele>
        <time>2013-12-22T16:03:15Z</time>
      </trkpt>
      <trkpt lat="44.80538" lon="-0.44185">
        <ele>30</ele>
        <time>2013-12-22T16:03:16Z</time>
      </trkpt>
      <trkpt lat="44.8054" lon="-0.44185">
        <ele>30</ele>
        <time>2013-12-22T16:03:17Z</time>
      </trkpt>
      <trkpt lat="44.80541" lon="-0.44185">
        <ele>30</ele>
        <time>2013-12-22T16:03:18Z</time>
      </trkpt>
      <trkpt lat="44.80543" lon="-0.44185">
        <ele>30</ele>
        <time>2013-12-22T16:03:19Z</time>
      </trkpt>
      <trkpt lat="44.80544" lon="-0.44186">
        <ele>30</ele>
        <time>2013-12-22T16:03:20Z</time>
      </trkpt>
      <trkpt lat="44.80546" lon="-0.44186">
        <ele>31</ele>
        <time>2013-12-22T16:03:21Z</time>
      </trkpt>
      <trkpt lat="44.80548" lon="-0.44185">
        <ele>31</ele>
        <time>2013-12-22T16:03:22Z</time>
      </trkpt>
      <trkpt lat="44.8055" lon="-0.44185">
        <ele>31</ele>
        <time>2013-12-22T16:03:23Z</time>
      </trkpt>
      <trkpt lat="44.80552" lon="-0.44185">
        <ele>31</ele>
        <time>2013-12-22T16:03:24Z</time>
      </trkpt>
      <trkpt lat="44.80554" lon="-0.44184">
        <ele>31</ele>
        <time>2013-12-22T16:03:25Z</time>
      </trkpt>
      <trkpt lat="44.80556" lon="-0.44183">
        <ele>31</ele>
        <time>2013-12-22T16:03:26Z</time>
      </trkpt>
      <trkpt lat="44.80558" lon="-0.44183">
        <ele>31</ele>
        <time>2013-12-22T16:03:27Z</time>
      </trkpt>
      <trkpt lat="44.8056" lon="-0.44182">
        <ele>32</ele>
        <time>2013-12-22T16:03:28Z</time>
      </trkpt>
      <trkpt lat="44.80562" lon="-0.44182">
        <ele>32</ele>
        <time>2013-12-22T16:03:29Z</time>
      </trkpt>
      <trkpt lat="44.80564" lon="-0.4418">
        <ele>32</ele>
        <time>2013-12-22T16:03:30Z</time>
      </trkpt>
      <trkpt lat="44.80566" lon="-0.4418">
        <ele>32</ele>
        <time>2013-12-22T16:03:31Z</time>
      </trkpt>
      <trkpt lat="44.80568" lon="-0.44178">
        <ele>32</ele>
        <time>2013-12-22T16:03:32Z</time>
      </trkpt>
      <trkpt lat="44.80569" lon="-0.44177">
        <ele>32</ele>
        <time>2013-12-22T16:03:33Z</time>
      </trkpt>
      <trkpt lat="44.80583" lon="-0.44167">
        <ele>32</ele>
        <time>2013-12-22T16:03:41Z</time>
      </trkpt>
      <trkpt lat="44.80595" lon="-0.44154">
        <ele>32</ele>
        <time>2013-12-22T16:03:49Z</time>
      </trkpt>
      <trkpt lat="44.80607" lon="-0.44141">
        <ele>32</ele>
        <time>2013-12-22T16:03:57Z</time>
      </trkpt>
      <trkpt lat="44.8062" lon="-0.44126">
        <ele>33</ele>
        <time>2013-12-22T16:04:06Z</time>
      </trkpt>
      <trkpt lat="44.80633" lon="-0.44112">
        <ele>33</ele>
        <time>2013-12-22T16:04:15Z</time>
      </trkpt>
      <trkpt lat="44.80647" lon="-0.44109">
        <ele>35</ele>
        <time>2013-12-22T16:04:23Z</time>
      </trkpt>
      <trkpt lat="44.80658" lon="-0.44116">
        <ele>37</ele>
        <time>2013-12-22T16:04:31Z</time>
      </trkpt>
      <trkpt lat="44.80665" lon="-0.4413">
        <ele>39</ele>
        <time>2013-12-22T16:04:38Z</time>
      </trkpt>
      <trkpt lat="44.80665" lon="-0.44133">
        <ele>40</ele>
        <time>2013-12-22T16:04:39Z</time>
      </trkpt>
      <trkpt lat="44.80666" lon="-0.44136">
        <ele>40</ele>
        <time>2013-12-22T16:04:40Z</time>
      </trkpt>
      <trkpt lat="44.80668" lon="-0.44153">
        <ele>41</ele>
        <time>2013-12-22T16:04:47Z</time>
      </trkpt>
      <trkpt lat="44.80666" lon="-0.44175">
        <ele>42</ele>
        <time>2013-12-22T16:04:56Z</time>
      </trkpt>
      <trkpt lat="44.8066" lon="-0.44191">
        <ele>43</ele>
        <time>2013-12-22T16:05:03Z</time>
      </trkpt>
      <trkpt lat="44.80653" lon="-0.442">
        <ele>43</ele>
        <time>2013-12-22T16:05:10Z</time>
      </trkpt>
      <trkpt lat="44.8064" lon="-0.44213">
        <ele>43</ele>
        <time>2013-12-22T16:05:17Z</time>
      </trkpt>
      <trkpt lat="44.8063" lon="-0.44224">
        <ele>43</ele>
        <time>2013-12-22T16:05:24Z</time>
      </trkpt>
      <trkpt lat="44.80623" lon="-0.44238">
        <ele>44</ele>
        <time>2013-12-22T16:05:30Z</time>
      </trkpt>
      <trkpt lat="44.80623" lon="-0.44247">
        <ele>44</ele>
        <time>2013-12-22T16:05:33Z</time>
      </trkpt>
      <trkpt lat="44.80623" lon="-0.4425">
        <ele>44</ele>
        <time>2013-12-22T16:05:34Z</time>
      </trkpt>
      <trkpt lat="44.80623" lon="-0.44253">
        <ele>45</ele>
        <time>2013-12-22T16:05:35Z</time>
      </trkpt>
      <trkpt lat="44.80624" lon="-0.44256">
        <ele>45</ele>
        <time>2013-12-22T16:05:36Z</time>
      </trkpt>
      <trkpt lat="44.80625" lon="-0.44259">
        <ele>45</ele>
        <time>2013-12-22T16:05:37Z</time>
      </trkpt>
      <trkpt lat="44.80625" lon="-0.44261">
        <ele>45</ele>
        <time>2013-12-22T16:05:38Z</time>
      </trkpt>
      <trkpt lat="44.80634" lon="-0.44276">
        <ele>47</ele>
        <time>2013-12-22T16:05:45Z</time>
      </trkpt>
      <trkpt lat="44.80637" lon="-0.44281">
        <ele>48</ele>
        <time>2013-12-22T16:05:48Z</time>
      </trkpt>
      <trkpt lat="44.80639" lon="-0.44282">
        <ele>48</ele>
        <time>2013-12-22T16:05:49Z</time>
      </trkpt>
      <trkpt lat="44.8064" lon="-0.44283">
        <ele>48</ele>
        <time>2013-12-22T16:05:50Z</time>
      </trkpt>
      <trkpt lat="44.80641" lon="-0.44284">
        <ele>48</ele>
        <time>2013-12-22T16:05:51Z</time>
      </trkpt>
      <trkpt lat="44.80643" lon="-0.44286">
        <ele>48</ele>
        <time>2013-12-22T16:05:52Z</time>
      </trkpt>
      <trkpt lat="44.80646" lon="-0.44289">
        <ele>49</ele>
        <time>2013-12-22T16:05:54Z</time>
      </trkpt>
      <trkpt lat="44.80647" lon="-0.4429">
        <ele>49</ele>
        <time>2013-12-22T16:05:55Z</time>
      </trkpt>
      <trkpt lat="44.80657" lon="-0.44299">
        <ele>51</ele>
        <time>2013-12-22T16:06:02Z</time>
      </trkpt>
      <trkpt lat="44.80668" lon="-0.4431">
        <ele>52</ele>
        <time>2013-12-22T16:06:09Z</time>
      </trkpt>
      <trkpt lat="44.80672" lon="-0.44314">
        <ele>52</ele>
        <time>2013-12-22T16:06:11Z</time>
      </trkpt>
      <trkpt lat="44.80674" lon="-0.44317">
        <ele>53</ele>
        <time>2013-12-22T16:06:12Z</time>
      </trkpt>
      <trkpt lat="44.80678" lon="-0.44324">
        <ele>53</ele>
        <time>2013-12-22T16:06:15Z</time>
      </trkpt>
      <trkpt lat="44.8068" lon="-0.44325">
        <ele>53</ele>
        <time>2013-12-22T16:06:16Z</time>
      </trkpt>
      <trkpt lat="44.80694" lon="-0.44338">
        <ele>54</ele>
        <time>2013-12-22T16:06:25Z</time>
      </trkpt>
      <trkpt lat="44.80704" lon="-0.4435">
        <ele>55</ele>
        <time>2013-12-22T16:06:32Z</time>
      </trkpt>
      <trkpt lat="44.80718" lon="-0.44365">
        <ele>56</ele>
        <time>2013-12-22T16:06:41Z</time>
      </trkpt>
      <trkpt lat="44.80729" lon="-0.44378">
        <ele>55</ele>
        <time>2013-12-22T16:06:48Z</time>
      </trkpt>
      <trkpt lat="44.80738" lon="-0.44388">
        <ele>55</ele>
        <time>2013-12-22T16:06:54Z</time>
      </trkpt>
      <trkpt lat="44.80752" lon="-0.44397">
        <ele>55</ele>
        <time>2013-12-22T16:07:01Z</time>
      </trkpt>
      <trkpt lat="44.80766" lon="-0.444">
        <ele>56</ele>
        <time>2013-12-22T16:07:07Z</time>
      </trkpt>
      <trkpt lat="44.80786" lon="-0.44397">
        <ele>57</ele>
        <time>2013-12-22T16:07:15Z</time>
      </trkpt>
      <trkpt lat="44.80807" lon="-0.44395">
        <ele>59</ele>
        <time>2013-12-22T16:07:23Z</time>
      </trkpt>
      <trkpt lat="44.80828" lon="-0.4439">
        <ele>61</ele>
        <time>2013-12-22T16:07:31Z</time>
      </trkpt>
      <trkpt lat="44.80854" lon="-0.44388">
        <ele>62</ele>
        <time>2013-12-22T16:07:41Z</time>
      </trkpt>
      <trkpt lat="44.80875" lon="-0.44384">
        <ele>63</ele>
        <time>2013-12-22T16:07:50Z</time>
      </trkpt>
      <trkpt lat="44.80902" lon="-0.44378">
        <ele>64</ele>
        <time>2013-12-22T16:08:01Z</time>
      </trkpt>
      <trkpt lat="44.80924" lon="-0.44374">
        <ele>66</ele>
        <time>2013-12-22T16:08:10Z</time>
      </trkpt>
      <trkpt lat="44.80942" lon="-0.44371">
        <ele>67</ele>
        <time>2013-12-22T16:08:18Z</time>
      </trkpt>
      <trkpt lat="44.80969" lon="-0.44369">
        <ele>69</ele>
        <time>2013-12-22T16:08:29Z</time>
      </trkpt>
      <trkpt lat="44.8099" lon="-0.44376">
        <ele>70</ele>
        <time>2013-12-22T16:08:38Z</time>
      </trkpt>
      <trkpt lat="44.81009" lon="-0.44388">
        <ele>71</ele>
        <time>2013-12-22T16:08:47Z</time>
      </trkpt>
      <trkpt lat="44.81029" lon="-0.444">
        <ele>71</ele>
        <time>2013-12-22T16:08:56Z</time>
      </trkpt>
      <trkpt lat="44.81052" lon="-0.44414">
        <ele>72</ele>
        <time>2013-12-22T16:09:06Z</time>
      </trkpt>
      <trkpt lat="44.81072" lon="-0.44427">
        <ele>73</ele>
        <time>2013-12-22T16:09:16Z</time>
      </trkpt>
      <trkpt lat="44.81081" lon="-0.44434">
        <ele>73</ele>
        <time>2013-12-22T16:09:21Z</time>
      </trkpt>
      <trkpt lat="44.81094" lon="-0.44446">
        <ele>74</ele>
        <time>2013-12-22T16:09:27Z</time>
      </trkpt>
      <trkpt lat="44.81108" lon="-0.44467">
        <ele>75</ele>
        <time>2013-12-22T16:09:35Z</time>
      </trkpt>
      <trkpt lat="44.81118" lon="-0.44483">
        <ele>75</ele>
        <time>2013-12-22T16:09:41Z</time>
      </trkpt>
      <trkpt lat="44.81131" lon="-0.44503">
        <ele>77</ele>
        <time>2013-12-22T16:09:49Z</time>
      </trkpt>
      <trkpt lat="44.81141" lon="-0.44521">
        <ele>77</ele>
        <time>2013-12-22T16:09:56Z</time>
      </trkpt>
      <trkpt lat="44.81151" lon="-0.44537">
        <ele>78</ele>
        <time>2013-12-22T16:10:02Z</time>
      </trkpt>
      <trkpt lat="44.81169" lon="-0.44558">
        <ele>79</ele>
        <time>2013-12-22T16:10:11Z</time>
      </trkpt>
      <trkpt lat="44.81187" lon="-0.44571">
        <ele>80</ele>
        <time>2013-12-22T16:10:19Z</time>
      </trkpt>
      <trkpt lat="44.81208" lon="-0.44584">
        <ele>80</ele>
        <time>2013-12-22T16:10:27Z</time>
      </trkpt>
      <trkpt lat="44.81231" lon="-0.44599">
        <ele>80</ele>
        <time>2013-12-22T16:10:35Z</time>
      </trkpt>
      <trkpt lat="44.81253" lon="-0.44616">
        <ele>80</ele>
        <time>2013-12-22T16:10:42Z</time>
      </trkpt>
      <trkpt lat="44.81276" lon="-0.44642">
        <ele>80</ele>
        <time>2013-12-22T16:10:50Z</time>
      </trkpt>
      <trkpt lat="44.81285" lon="-0.44651">
        <ele>80</ele>
        <time>2013-12-22T16:10:56Z</time>
      </trkpt>
      <trkpt lat="44.81287" lon="-0.44652">
        <ele>80</ele>
        <time>2013-12-22T16:10:57Z</time>
      </trkpt>
      <trkpt lat="44.8129" lon="-0.44652">
        <ele>80</ele>
        <time>2013-12-22T16:10:58Z</time>
      </trkpt>
      <trkpt lat="44.81312" lon="-0.44655">
        <ele>81</ele>
        <time>2013-12-22T16:11:06Z</time>
      </trkpt>
      <trkpt lat="44.81313" lon="-0.44657">
        <ele>81</ele>
        <time>2013-12-22T16:11:07Z</time>
      </trkpt>
      <trkpt lat="44.81312" lon="-0.44659">
        <ele>81</ele>
        <time>2013-12-22T16:11:08Z</time>
      </trkpt>
      <trkpt lat="44.8131" lon="-0.44659">
        <ele>81</ele>
        <time>2013-12-22T16:11:09Z</time>
      </trkpt>
      <trkpt lat="44.81309" lon="-0.44658">
        <ele>81</ele>
        <time>2013-12-22T16:11:10Z</time>
      </trkpt>
      <trkpt lat="44.81308" lon="-0.44656">
        <ele>81</ele>
        <time>2013-12-22T16:11:11Z</time>
      </trkpt>
      <trkpt lat="44.81307" lon="-0.44654">
        <ele>81</ele>
        <time>2013-12-22T16:11:16Z</time>
      </trkpt>
      <trkpt lat="44.81308" lon="-0.44654">
        <ele>81</ele>
        <time>2013-12-22T16:11:19Z</time>
      </trkpt>
      <trkpt lat="44.8131" lon="-0.44654">
        <ele>81</ele>
        <time>2013-12-22T16:11:20Z</time>
      </trkpt>
      <trkpt lat="44.81311" lon="-0.44654">
        <ele>81</ele>
        <time>2013-12-22T16:11:21Z</time>
      </trkpt>
      <trkpt lat="44.81313" lon="-0.44654">
        <ele>81</ele>
        <time>2013-12-22T16:11:22Z</time>
      </trkpt>
      <trkpt lat="44.81315" lon="-0.44654">
        <ele>81</ele>
        <time>2013-12-22T16:11:23Z</time>
      </trkpt>
      <trkpt lat="44.81317" lon="-0.44654">
        <ele>81</ele>
        <time>2013-12-22T16:11:24Z</time>
      </trkpt>
      <trkpt lat="44.8132" lon="-0.44653">
        <ele>81</ele>
        <time>2013-12-22T16:11:25Z</time>
      </trkpt>
      <trkpt lat="44.8134" lon="-0.4465">
        <ele>81</ele>
        <time>2013-12-22T16:11:32Z</time>
      </trkpt>
      <trkpt lat="44.81355" lon="-0.44651">
        <ele>81</ele>
        <time>2013-12-22T16:11:36Z</time>
      </trkpt>
      <trkpt lat="44.81359" lon="-0.44652">
        <ele>81</ele>
        <time>2013-12-22T16:11:37Z</time>
      </trkpt>
      <trkpt lat="44.81363" lon="-0.44655">
        <ele>81</ele>
        <time>2013-12-22T16:11:38Z</time>
      </trkpt>
      <trkpt lat="44.81381" lon="-0.44678">
        <ele>81</ele>
        <time>2013-12-22T16:11:44Z</time>
      </trkpt>
      <trkpt lat="44.81396" lon="-0.44711">
        <ele>81</ele>
        <time>2013-12-22T16:11:51Z</time>
      </trkpt>
      <trkpt lat="44.81412" lon="-0.4474">
        <ele>81</ele>
        <time>2013-12-22T16:11:57Z</time>
      </trkpt>
      <trkpt lat="44.81418" lon="-0.44749">
        <ele>81</ele>
        <time>2013-12-22T16:11:59Z</time>
      </trkpt>
      <trkpt lat="44.81421" lon="-0.44754">
        <ele>81</ele>
        <time>2013-12-22T16:12:00Z</time>
      </trkpt>
      <trkpt lat="44.81425" lon="-0.44758">
        <ele>81</ele>
        <time>2013-12-22T16:12:01Z</time>
      </trkpt>
      <trkpt lat="44.81436" lon="-0.44769">
        <ele>81</ele>
        <time>2013-12-22T16:12:04Z</time>
      </trkpt>
      <trkpt lat="44.8144" lon="-0.44771">
        <ele>81</ele>
        <time>2013-12-22T16:12:05Z</time>
      </trkpt>
      <trkpt lat="44.81479" lon="-0.4478">
        <ele>80</ele>
        <time>2013-12-22T16:12:13Z</time>
      </trkpt>
      <trkpt lat="44.81483" lon="-0.44781">
        <ele>80</ele>
        <time>2013-12-22T16:12:14Z</time>
      </trkpt>
      <trkpt lat="44.81512" lon="-0.4478">
        <ele>80</ele>
        <time>2013-12-22T16:12:20Z</time>
      </trkpt>
      <trkpt lat="44.81516" lon="-0.4478">
        <ele>80</ele>
        <time>2013-12-22T16:12:21Z</time>
      </trkpt>
      <trkpt lat="44.8152" lon="-0.44781">
        <ele>80</ele>
        <time>2013-12-22T16:12:22Z</time>
      </trkpt>
      <trkpt lat="44.8154" lon="-0.44782">
        <ele>80</ele>
        <time>2013-12-22T16:12:27Z</time>
      </trkpt>
      <trkpt lat="44.8158" lon="-0.4478">
        <ele>79</ele>
        <time>2013-12-22T16:12:35Z</time>
      </trkpt>
      <trkpt lat="44.81618" lon="-0.4478">
        <ele>79</ele>
        <time>2013-12-22T16:12:43Z</time>
      </trkpt>
      <trkpt lat="44.81623" lon="-0.4478">
        <ele>79</ele>
        <time>2013-12-22T16:12:44Z</time>
      </trkpt>
      <trkpt lat="44.81628" lon="-0.4478">
        <ele>79</ele>
        <time>2013-12-22T16:12:45Z</time>
      </trkpt>
      <trkpt lat="44.81637" lon="-0.44781">
        <ele>79</ele>
        <time>2013-12-22T16:12:47Z</time>
      </trkpt>
      <trkpt lat="44.81656" lon="-0.44779">
        <ele>80</ele>
        <time>2013-12-22T16:12:51Z</time>
      </trkpt>
      <trkpt lat="44.8166" lon="-0.44779">
        <ele>80</ele>
        <time>2013-12-22T16:12:52Z</time>
      </trkpt>
      <trkpt lat="44.81664" lon="-0.44778">
        <ele>80</ele>
        <time>2013-12-22T16:12:53Z</time>
      </trkpt>
      <trkpt lat="44.81688" lon="-0.4477">
        <ele>80</ele>
        <time>2013-12-22T16:13:00Z</time>
      </trkpt>
      <trkpt lat="44.81699" lon="-0.44766">
        <ele>81</ele>
        <time>2013-12-22T16:13:04Z</time>
      </trkpt>
      <trkpt lat="44.817" lon="-0.44765">
        <ele>81</ele>
        <time>2013-12-22T16:13:05Z</time>
      </trkpt>
      <trkpt lat="44.81703" lon="-0.44764">
        <ele>81</ele>
        <time>2013-12-22T16:13:06Z</time>
      </trkpt>
      <trkpt lat="44.81705" lon="-0.44763">
        <ele>81</ele>
        <time>2013-12-22T16:13:07Z</time>
      </trkpt>
      <trkpt lat="44.81708" lon="-0.44762">
        <ele>81</ele>
        <time>2013-12-22T16:13:08Z</time>
      </trkpt>
      <trkpt lat="44.81711" lon="-0.44761">
        <ele>81</ele>
        <time>2013-12-22T16:13:09Z</time>
      </trkpt>
      <trkpt lat="44.81731" lon="-0.44757">
        <ele>81</ele>
        <time>2013-12-22T16:13:17Z</time>
      </trkpt>
      <trkpt lat="44.81757" lon="-0.44752">
        <ele>82</ele>
        <time>2013-12-22T16:13:25Z</time>
      </trkpt>
      <trkpt lat="44.81781" lon="-0.44746">
        <ele>83</ele>
        <time>2013-12-22T16:13:33Z</time>
      </trkpt>
      <trkpt lat="44.81799" lon="-0.44739">
        <ele>84</ele>
        <time>2013-12-22T16:13:41Z</time>
      </trkpt>
      <trkpt lat="44.81809" lon="-0.44735">
        <ele>84</ele>
        <time>2013-12-22T16:13:47Z</time>
      </trkpt>
      <trkpt lat="44.81827" lon="-0.44723">
        <ele>84</ele>
        <time>2013-12-22T16:13:54Z</time>
      </trkpt>
      <trkpt lat="44.81837" lon="-0.44706">
        <ele>85</ele>
        <time>2013-12-22T16:14:00Z</time>
      </trkpt>
      <trkpt lat="44.81852" lon="-0.44675">
        <ele>85</ele>
        <time>2013-12-22T16:14:08Z</time>
      </trkpt>
      <trkpt lat="44.81857" lon="-0.44665">
        <ele>85</ele>
        <time>2013-12-22T16:14:10Z</time>
      </trkpt>
      <trkpt lat="44.81862" lon="-0.44655">
        <ele>85</ele>
        <time>2013-12-22T16:14:12Z</time>
      </trkpt>
      <trkpt lat="44.81877" lon="-0.44623">
        <ele>85</ele>
        <time>2013-12-22T16:14:19Z</time>
      </trkpt>
      <trkpt lat="44.81892" lon="-0.446">
        <ele>85</ele>
        <time>2013-12-22T16:14:26Z</time>
      </trkpt>
      <trkpt lat="44.81911" lon="-0.4458">
        <ele>85</ele>
        <time>2013-12-22T16:14:33Z</time>
      </trkpt>
      <trkpt lat="44.81922" lon="-0.44565">
        <ele>85</ele>
        <time>2013-12-22T16:14:39Z</time>
      </trkpt>
      <trkpt lat="44.81938" lon="-0.44547">
        <ele>86</ele>
        <time>2013-12-22T16:14:45Z</time>
      </trkpt>
      <trkpt lat="44.81958" lon="-0.44526">
        <ele>86</ele>
        <time>2013-12-22T16:14:53Z</time>
      </trkpt>
      <trkpt lat="44.81975" lon="-0.44507">
        <ele>86</ele>
        <time>2013-12-22T16:14:59Z</time>
      </trkpt>
      <trkpt lat="44.81996" lon="-0.44485">
        <ele>86</ele>
        <time>2013-12-22T16:15:07Z</time>
      </trkpt>
      <trkpt lat="44.82011" lon="-0.4447">
        <ele>86</ele>
        <time>2013-12-22T16:15:14Z</time>
      </trkpt>
      <trkpt lat="44.82026" lon="-0.44456">
        <ele>86</ele>
        <time>2013-12-22T16:15:21Z</time>
      </trkpt>
      <trkpt lat="44.82039" lon="-0.44443">
        <ele>86</ele>
        <time>2013-12-22T16:15:27Z</time>
      </trkpt>
      <trkpt lat="44.8206" lon="-0.44429">
        <ele>85</ele>
        <time>2013-12-22T16:15:34Z</time>
      </trkpt>
      <trkpt lat="44.82096" lon="-0.44409">
        <ele>85</ele>
        <time>2013-12-22T16:15:44Z</time>
      </trkpt>
      <trkpt lat="44.8213" lon="-0.44394">
        <ele>86</ele>
        <time>2013-12-22T16:15:53Z</time>
      </trkpt>
      <trkpt lat="44.82143" lon="-0.44382">
        <ele>86</ele>
        <time>2013-12-22T16:16:00Z</time>
      </trkpt>
      <trkpt lat="44.82146" lon="-0.44366">
        <ele>86</ele>
        <time>2013-12-22T16:16:04Z</time>
      </trkpt>
      <trkpt lat="44.82137" lon="-0.44322">
        <ele>85</ele>
        <time>2013-12-22T16:16:12Z</time>
      </trkpt>
      <trkpt lat="44.82135" lon="-0.4431">
        <ele>85</ele>
        <time>2013-12-22T16:16:14Z</time>
      </trkpt>
      <trkpt lat="44.82133" lon="-0.44299">
        <ele>85</ele>
        <time>2013-12-22T16:16:16Z</time>
      </trkpt>
      <trkpt lat="44.82132" lon="-0.44293">
        <ele>85</ele>
        <time>2013-12-22T16:16:17Z</time>
      </trkpt>
      <trkpt lat="44.82121" lon="-0.44234">
        <ele>84</ele>
        <time>2013-12-22T16:16:26Z</time>
      </trkpt>
      <trkpt lat="44.82109" lon="-0.4417">
        <ele>83</ele>
        <time>2013-12-22T16:16:35Z</time>
      </trkpt>
      <trkpt lat="44.82108" lon="-0.44165">
        <ele>83</ele>
        <time>2013-12-22T16:16:36Z</time>
      </trkpt>
      <trkpt lat="44.82107" lon="-0.44158">
        <ele>83</ele>
        <time>2013-12-22T16:16:37Z</time>
      </trkpt>
      <trkpt lat="44.82103" lon="-0.44132">
        <ele>83</ele>
        <time>2013-12-22T16:16:41Z</time>
      </trkpt>
      <trkpt lat="44.8209" lon="-0.44075">
        <ele>83</ele>
        <time>2013-12-22T16:16:49Z</time>
      </trkpt>
      <trkpt lat="44.82076" lon="-0.44028">
        <ele>83</ele>
        <time>2013-12-22T16:16:57Z</time>
      </trkpt>
      <trkpt lat="44.8207" lon="-0.43994">
        <ele>83</ele>
        <time>2013-12-22T16:17:04Z</time>
      </trkpt>
      <trkpt lat="44.82064" lon="-0.43961">
        <ele>82</ele>
        <time>2013-12-22T16:17:11Z</time>
      </trkpt>
    </trkseg>
  </trk>
</gpx>